[[{"header":{"parameterUnit":"m.s-1","parameterCategory":1,"la1":30.6,"la2":29.2853,"lo1":-89.7004,"lo2":-87.6739,"dy":0.0162,"dx":0.0183,"nx":112,"ny":82,"refTime":"2024-05-22T06:00:00:Z","depth":0,"parameterNumber":2,"parameterNumberName":"U-component_of_WINDS"},"data":[0.0,0.0,0.0,0.0,0.0,0.0,0.0,0.0,0.0,0.0,0.0,0.0,0.0,0.0,0.0,0.0,0.0,0.0,0.0,0.0,0.0,0.0,0.0,0.0,0.0,0.0,0.0,0.0,0.0,0.0,0.0,0.0,0.0,0.0,0.0,0.0,0.0,0.0,0.0,0.0,0.0,0.0,0.0,0.0,0.0,0.0,0.0,0.0,0.0,0.0,0.0,0.0,0.0,0.0,0.0,0.0,0.0,0.0,0.0,0.0,0.0,0.0,0.0,0.0,0.0,0.0,0.0,0.0,0.0,0.0,0.0,0.0,0.0,0.0,0.0,0.0,0.0,0.0,0.0,0.0,0.0,0.0,0.0,0.0,0.0,0.0,0.0,0.0,0.0,0.0,-5.6969,-5.8817,-6.0456,-6.0217,-5.7244,-5.834,-5.7533,-5.3586,0.0,0.0,0.0,0.0,0.0,0.0,0.0,0.0,0.0,0.0,0.0,0.0,0.0,0.0,0.0,0.0,0.0,0.0,0.0,0.0,0.0,0.0,0.0,0.0,0.0,0.0,0.0,0.0,0.0,0.0,0.0,0.0,0.0,0.0,0.0,0.0,0.0,0.0,0.0,0.0,0.0,0.0,0.0,0.0,0.0,0.0,0.0,0.0,0.0,0.0,0.0,0.0,0.0,0.0,0.0,0.0,0.0,0.0,0.0,0.0,0.0,0.0,0.0,0.0,0.0,0.0,0.0,0.0,0.0,0.0,0.0,0.0,0.0,0.0,0.0,0.0,0.0,0.0,0.0,0.0,0.0,0.0,0.0,0.0,0.0,0.0,0.0,0.0,0.0,0.0,0.0,0.0,0.0,0.0,0.0,0.0,0.0,0.0,0.0,0.0,0.0,0.0,0.0,0.0,-5.4895,-5.7868,-5.963,-5.9832,-5.7978,-5.8676,-5.773,-5.4269,0.0,0.0,0.0,0.0,0.0,0.0,0.0,0.0,0.0,0.0,0.0,0.0,0.0,0.0,0.0,0.0,0.0,0.0,0.0,0.0,0.0,0.0,0.0,0.0,0.0,0.0,0.0,0.0,0.0,0.0,0.0,0.0,0.0,0.0,0.0,0.0,0.0,0.0,0.0,0.0,0.0,0.0,0.0,0.0,0.0,0.0,0.0,0.0,0.0,0.0,0.0,0.0,0.0,0.0,0.0,0.0,0.0,0.0,0.0,0.0,0.0,0.0,0.0,0.0,0.0,0.0,0.0,0.0,0.0,0.0,0.0,0.0,0.0,0.0,0.0,0.0,0.0,0.0,0.0,0.0,0.0,0.0,0.0,0.0,0.0,0.0,0.0,0.0,0.0,0.0,0.0,0.0,0.0,0.0,0.0,0.0,0.0,0.0,0.0,0.0,0.0,0.0,0.0,-5.5023,-5.6363,-5.7831,-5.8657,-5.8804,-5.8052,-5.7941,-5.6667,-5.3734,-5.2899,0.0,0.0,0.0,0.0,0.0,0.0,0.0,0.0,0.0,0.0,0.0,0.0,0.0,0.0,0.0,0.0,0.0,0.0,0.0,0.0,0.0,0.0,0.0,0.0,0.0,0.0,0.0,0.0,0.0,0.0,0.0,0.0,0.0,0.0,0.0,0.0,0.0,0.0,0.0,0.0,0.0,0.0,0.0,0.0,0.0,0.0,0.0,0.0,0.0,0.0,0.0,0.0,0.0,0.0,0.0,0.0,0.0,0.0,0.0,0.0,0.0,0.0,0.0,0.0,0.0,0.0,0.0,0.0,0.0,0.0,0.0,0.0,0.0,0.0,0.0,0.0,0.0,0.0,0.0,0.0,0.0,0.0,0.0,0.0,0.0,0.0,0.0,0.0,0.0,0.0,0.0,0.0,0.0,0.0,0.0,0.0,0.0,0.0,0.0,0.0,0.0,0.0,-5.6767,-5.7997,-5.7997,-5.7831,-5.7795,-5.7978,-5.6891,-5.5202,-5.2937,-5.1847,0.0,0.0,0.0,0.0,0.0,0.0,0.0,0.0,0.0,0.0,0.0,0.0,0.0,0.0,0.0,0.0,0.0,0.0,0.0,0.0,0.0,0.0,0.0,0.0,0.0,0.0,0.0,0.0,0.0,0.0,0.0,0.0,0.0,0.0,0.0,0.0,0.0,0.0,0.0,0.0,0.0,0.0,0.0,0.0,0.0,0.0,0.0,0.0,0.0,0.0,0.0,0.0,0.0,0.0,0.0,0.0,0.0,0.0,0.0,0.0,0.0,0.0,0.0,0.0,0.0,0.0,0.0,0.0,0.0,0.0,0.0,0.0,0.0,0.0,0.0,0.0,0.0,0.0,0.0,0.0,0.0,0.0,0.0,0.0,0.0,0.0,0.0,0.0,0.0,0.0,0.0,0.0,0.0,0.0,0.0,0.0,0.0,0.0,0.0,0.0,0.0,0.0,-5.6088,-5.7997,-5.7997,-5.7336,-5.7189,-5.7941,-5.5778,-5.3754,-5.2262,-5.0125,0.0,0.0,0.0,0.0,0.0,0.0,0.0,0.0,0.0,0.0,0.0,0.0,0.0,0.0,0.0,0.0,0.0,0.0,0.0,0.0,0.0,0.0,0.0,0.0,0.0,0.0,0.0,0.0,0.0,0.0,0.0,0.0,0.0,0.0,0.0,0.0,0.0,0.0,0.0,0.0,0.0,0.0,0.0,0.0,0.0,0.0,0.0,0.0,0.0,0.0,0.0,0.0,0.0,0.0,0.0,0.0,0.0,0.0,0.0,0.0,0.0,0.0,0.0,0.0,0.0,0.0,0.0,0.0,0.0,0.0,0.0,0.0,0.0,0.0,0.0,0.0,0.0,0.0,0.0,0.0,0.0,0.0,0.0,0.0,0.0,0.0,0.0,0.0,0.0,0.0,0.0,0.0,0.0,0.0,0.0,0.0,0.0,0.0,0.0,0.0,0.0,0.0,-5.4821,-5.6492,-5.6492,-5.6216,-5.6381,-5.7189,-5.5393,-5.3604,-5.2173,0.0,0.0,0.0,0.0,0.0,0.0,0.0,0.0,0.0,0.0,0.0,0.0,0.0,0.0,0.0,0.0,0.0,0.0,0.0,0.0,0.0,0.0,0.0,0.0,0.0,0.0,0.0,0.0,0.0,0.0,0.0,0.0,0.0,0.0,0.0,0.0,0.0,0.0,0.0,0.0,0.0,0.0,0.0,0.0,0.0,0.0,0.0,0.0,0.0,0.0,0.0,0.0,0.0,0.0,0.0,0.0,0.0,0.0,0.0,0.0,0.0,0.0,0.0,0.0,0.0,0.0,0.0,0.0,0.0,0.0,0.0,0.0,0.0,0.0,0.0,0.0,0.0,0.0,0.0,0.0,0.0,0.0,0.0,0.0,0.0,0.0,0.0,0.0,0.0,0.0,0.0,0.0,0.0,0.0,0.0,0.0,0.0,0.0,0.0,0.0,0.0,0.0,-5.1958,-5.4127,-5.5614,-5.5614,-5.5614,-5.5812,-5.6363,-5.4543,-5.2726,-5.1209,0.0,0.0,0.0,0.0,0.0,0.0,0.0,0.0,0.0,0.0,0.0,0.0,0.0,0.0,0.0,0.0,0.0,0.0,0.0,0.0,0.0,0.0,0.0,0.0,0.0,0.0,0.0,0.0,0.0,0.0,0.0,0.0,0.0,0.0,0.0,0.0,0.0,0.0,0.0,0.0,0.0,0.0,0.0,0.0,0.0,0.0,0.0,0.0,0.0,0.0,0.0,0.0,0.0,0.0,0.0,0.0,0.0,0.0,0.0,0.0,0.0,0.0,0.0,0.0,0.0,0.0,0.0,0.0,0.0,0.0,0.0,0.0,0.0,0.0,0.0,0.0,0.0,0.0,0.0,0.0,0.0,0.0,0.0,0.0,0.0,0.0,0.0,0.0,0.0,0.0,0.0,0.0,0.0,0.0,0.0,0.0,0.0,0.0,0.0,0.0,0.0,0.0,-5.1867,-5.409,-5.5578,-5.5578,-5.5596,-5.5574,-5.5574,-5.3142,-5.085,0.0,0.0,0.0,0.0,0.0,0.0,0.0,0.0,0.0,0.0,0.0,0.0,0.0,0.0,0.0,0.0,0.0,0.0,0.0,0.0,0.0,0.0,0.0,0.0,0.0,0.0,0.0,0.0,0.0,0.0,0.0,0.0,0.0,0.0,0.0,0.0,0.0,0.0,0.0,0.0,0.0,0.0,0.0,0.0,0.0,0.0,0.0,0.0,0.0,0.0,0.0,0.0,0.0,0.0,0.0,0.0,0.0,0.0,0.0,0.0,0.0,0.0,0.0,0.0,0.0,0.0,0.0,0.0,0.0,0.0,0.0,0.0,0.0,0.0,0.0,0.0,0.0,0.0,0.0,0.0,0.0,0.0,0.0,0.0,0.0,0.0,0.0,0.0,0.0,0.0,0.0,0.0,0.0,0.0,0.0,0.0,0.0,0.0,0.0,0.0,0.0,0.0,0.0,-5.1041,-5.2766,-5.3922,-5.3922,-5.4418,-5.4748,-5.4748,-5.2508,-5.0512,-4.9083,0.0,0.0,0.0,0.0,0.0,0.0,0.0,0.0,0.0,0.0,0.0,0.0,0.0,0.0,0.0,0.0,0.0,0.0,0.0,0.0,0.0,0.0,0.0,0.0,0.0,0.0,0.0,0.0,0.0,0.0,0.0,0.0,0.0,0.0,0.0,0.0,0.0,0.0,0.0,0.0,0.0,0.0,0.0,0.0,0.0,0.0,0.0,0.0,0.0,0.0,0.0,0.0,0.0,0.0,0.0,0.0,0.0,0.0,0.0,0.0,0.0,0.0,0.0,0.0,0.0,0.0,0.0,0.0,0.0,0.0,0.0,0.0,0.0,0.0,0.0,0.0,0.0,0.0,0.0,0.0,0.0,0.0,0.0,0.0,0.0,0.0,0.0,0.0,0.0,0.0,0.0,0.0,0.0,0.0,0.0,0.0,0.0,0.0,0.0,0.0,0.0,0.0,-5.016,-5.1738,-5.2839,-5.3167,-5.3922,-5.4121,-5.3418,-5.1864,-4.9936,-4.7672,0.0,0.0,0.0,0.0,0.0,0.0,0.0,0.0,0.0,0.0,0.0,0.0,0.0,0.0,0.0,0.0,0.0,0.0,0.0,0.0,0.0,0.0,0.0,0.0,0.0,0.0,0.0,0.0,0.0,0.0,0.0,0.0,0.0,0.0,0.0,0.0,0.0,0.0,0.0,0.0,0.0,0.0,0.0,0.0,0.0,0.0,0.0,0.0,0.0,0.0,0.0,0.0,0.0,0.0,0.0,0.0,0.0,0.0,0.0,0.0,0.0,0.0,0.0,0.0,0.0,0.0,0.0,0.0,0.0,0.0,0.0,0.0,0.0,0.0,0.0,0.0,0.0,0.0,0.0,0.0,0.0,0.0,0.0,0.0,0.0,0.0,0.0,0.0,0.0,0.0,0.0,0.0,0.0,0.0,0.0,0.0,0.0,0.0,0.0,0.0,0.0,0.0,-4.9262,-5.0822,-5.2087,-5.2894,-5.3607,-5.3421,-5.1812,-5.1013,-4.9107,-4.5616,0.0,0.0,0.0,0.0,0.0,0.0,0.0,0.0,0.0,0.0,0.0,0.0,0.0,0.0,0.0,0.0,0.0,0.0,0.0,0.0,0.0,0.0,0.0,0.0,0.0,0.0,0.0,0.0,0.0,0.0,0.0,0.0,0.0,0.0,0.0,0.0,0.0,0.0,0.0,0.0,0.0,0.0,0.0,0.0,0.0,0.0,0.0,0.0,0.0,0.0,0.0,0.0,0.0,0.0,0.0,0.0,0.0,0.0,0.0,0.0,-5.4491,-5.4395,0.0,0.0,0.0,0.0,0.0,0.0,0.0,0.0,0.0,0.0,0.0,0.0,0.0,0.0,0.0,0.0,0.0,0.0,0.0,0.0,0.0,0.0,0.0,0.0,0.0,0.0,0.0,0.0,0.0,0.0,0.0,0.0,0.0,0.0,0.0,0.0,0.0,0.0,0.0,0.0,-4.8379,-4.9462,-5.0437,-5.1242,-5.1362,-5.1266,-5.0897,-4.9234,-4.7647,-4.6253,-4.3301,0.0,0.0,0.0,0.0,0.0,0.0,0.0,0.0,0.0,0.0,0.0,0.0,0.0,0.0,0.0,0.0,0.0,0.0,0.0,0.0,0.0,0.0,0.0,0.0,0.0,0.0,0.0,0.0,0.0,0.0,0.0,0.0,0.0,0.0,0.0,0.0,0.0,0.0,0.0,0.0,0.0,0.0,0.0,0.0,0.0,0.0,0.0,0.0,0.0,0.0,0.0,0.0,0.0,0.0,0.0,0.0,0.0,0.0,0.0,-5.4491,-5.4491,0.0,0.0,0.0,0.0,0.0,0.0,0.0,0.0,0.0,0.0,0.0,0.0,0.0,0.0,0.0,0.0,0.0,0.0,0.0,0.0,0.0,0.0,0.0,0.0,0.0,0.0,0.0,0.0,0.0,0.0,0.0,0.0,0.0,0.0,0.0,0.0,0.0,0.0,0.0,0.0,-4.7571,-4.882,-4.9922,-5.071,-5.0743,-5.0497,-4.9974,-4.8695,-4.7305,-4.5834,-4.3444,0.0,0.0,0.0,0.0,0.0,0.0,0.0,0.0,0.0,0.0,0.0,0.0,0.0,0.0,0.0,0.0,0.0,0.0,0.0,0.0,0.0,0.0,0.0,0.0,0.0,0.0,0.0,0.0,0.0,0.0,0.0,0.0,0.0,0.0,0.0,0.0,0.0,0.0,0.0,0.0,0.0,0.0,0.0,0.0,0.0,0.0,0.0,0.0,0.0,0.0,0.0,0.0,0.0,-5.5702,-5.5296,-5.5164,-5.5164,-5.5164,-5.5164,-5.5164,-5.4991,-5.4722,-5.503,0.0,0.0,0.0,0.0,0.0,0.0,0.0,0.0,0.0,0.0,0.0,0.0,0.0,0.0,0.0,0.0,0.0,0.0,0.0,0.0,0.0,0.0,-4.7314,-4.7314,-4.7314,-4.7131,-4.6471,0.0,0.0,0.0,0.0,0.0,0.0,0.0,0.0,0.0,0.0,0.0,-4.7003,-4.8434,-4.9627,-5.0288,-5.0342,-4.9986,-4.907,-4.85,-4.7311,-4.5328,-4.3771,-4.2173,0.0,0.0,0.0,0.0,0.0,0.0,0.0,0.0,0.0,0.0,0.0,0.0,0.0,0.0,0.0,0.0,0.0,0.0,0.0,0.0,0.0,0.0,0.0,0.0,0.0,0.0,0.0,0.0,0.0,0.0,0.0,0.0,-5.6308,-5.6406,0.0,0.0,0.0,0.0,0.0,0.0,0.0,0.0,0.0,0.0,0.0,0.0,0.0,-5.8793,-5.8734,-5.8433,-5.8253,-5.8159,-5.8043,-5.7941,-5.78,-5.78,-5.78,-5.78,-5.78,0.0,-5.5665,-5.7184,0.0,0.0,0.0,0.0,0.0,0.0,0.0,0.0,0.0,0.0,0.0,0.0,0.0,0.0,0.0,0.0,0.0,0.0,0.0,0.0,0.0,0.0,-4.8141,-4.8141,-4.8141,-4.8122,-4.8012,-4.6893,-4.5865,-4.5755,-4.5736,-4.57,0.0,0.0,0.0,0.0,0.0,0.0,-4.7003,-4.7902,-4.8508,-4.8618,-4.8577,-4.8442,-4.8176,-4.7601,-4.6893,-4.6024,-4.3562,-4.2104,-4.1991,-3.9546,0.0,0.0,0.0,0.0,0.0,0.0,0.0,0.0,0.0,0.0,0.0,0.0,0.0,0.0,0.0,0.0,0.0,0.0,0.0,0.0,0.0,0.0,0.0,0.0,0.0,0.0,0.0,0.0,0.0,-5.6113,-5.6601,-5.6601,-5.6601,-5.6601,0.0,0.0,0.0,0.0,0.0,0.0,0.0,0.0,0.0,-5.8512,-5.8845,-5.8961,-5.8908,-5.8828,-5.8741,-5.8624,-5.9028,-5.8916,-5.8379,-5.8795,-5.8723,-5.83,-5.83,-5.7588,-5.6503,-5.7242,-5.6819,-5.5665,0.0,0.0,0.0,0.0,-5.1299,-5.032,-5.0388,-5.0405,-5.0204,-4.9258,0.0,0.0,0.0,0.0,0.0,0.0,0.0,-4.8306,-4.8306,-4.8306,-4.8306,-4.8306,-4.8306,-4.8306,-4.8306,-4.7755,-4.7131,-4.6673,-4.6562,-4.6305,-4.5388,-4.5314,0.0,0.0,0.0,-4.6691,-4.7058,-4.7791,-4.8306,-4.8306,-4.8286,-4.8208,-4.811,-4.7524,-4.6895,-4.6244,-4.3951,-4.2533,-4.2296,-4.0257,-3.8937,0.0,0.0,0.0,0.0,0.0,0.0,0.0,0.0,0.0,0.0,0.0,0.0,0.0,0.0,0.0,0.0,0.0,0.0,0.0,0.0,0.0,0.0,0.0,0.0,0.0,0.0,0.0,0.0,-5.6601,-5.6601,-5.6601,-5.6601,-5.6601,0.0,0.0,0.0,0.0,0.0,0.0,-5.7871,-5.8058,-5.8528,-5.9414,-5.9365,-5.9412,-5.9564,-5.9516,-5.9438,-5.9359,-5.9878,-5.9746,-5.9068,-5.9587,-5.9377,-5.8607,-5.8607,-5.7992,-5.7022,-5.7253,-5.6684,-5.5703,-5.5703,-5.4853,-5.3613,-5.3442,-5.2539,-5.1434,-5.1539,-5.1442,-5.1123,-5.0082,-4.9482,-4.8903,-4.7288,0.0,0.0,0.0,0.0,-4.8306,-4.8306,-4.8306,-4.8306,-4.8306,-4.8306,-4.8306,-4.8306,-4.8306,-4.8122,-4.7516,-4.7406,-4.7021,-4.5828,-4.5957,0.0,-4.5681,-4.647,-4.7168,-4.7369,-4.792,-4.8306,-4.8306,-4.8306,-4.8267,-4.8168,-4.7569,-4.6927,-4.631,-4.4272,-4.2859,-4.2313,-4.0891,-3.9757,-3.9005,0.0,0.0,0.0,0.0,0.0,0.0,0.0,0.0,0.0,0.0,0.0,0.0,0.0,0.0,0.0,0.0,0.0,0.0,0.0,0.0,0.0,0.0,0.0,0.0,0.0,0.0,0.0,0.0,0.0,-5.6601,-5.6601,0.0,0.0,0.0,0.0,-5.6601,-5.7363,-5.7851,-5.7908,-5.8627,-5.9422,-6.0315,-6.0272,-6.06,-6.1364,-6.1374,-6.1264,-6.1065,-6.1048,-6.0945,-6.0775,-6.0742,-6.0262,-5.9435,-5.9435,-5.8511,-5.706,-5.7896,-5.7223,-5.5703,-5.5703,-5.4877,-5.3608,-5.2759,-5.2046,-5.1505,-5.1505,-5.1054,-5.0561,-5.1235,-5.0447,-4.9108,-4.8639,-4.7959,0.0,0.0,-4.8269,-4.8306,-4.8306,-4.8306,-4.8306,-4.8306,-4.8306,-4.8306,-4.8306,-4.8306,-4.8306,-4.8251,-4.8251,-4.8214,-4.8141,0.0,-4.7278,-4.8012,-4.7535,-4.7369,-4.8141,-4.8269,-4.8306,-4.8306,-4.8306,-4.8229,-4.8032,-4.7509,-4.6905,-4.6147,-4.4222,-4.2859,-4.2313,-4.0891,-3.9757,-3.9005,-3.8988,0.0,0.0,0.0,0.0,0.0,0.0,0.0,0.0,0.0,0.0,0.0,0.0,0.0,0.0,0.0,0.0,0.0,0.0,0.0,0.0,0.0,0.0,0.0,0.0,0.0,0.0,0.0,0.0,-5.6601,-5.6601,0.0,-5.6601,-5.7109,-5.7441,-5.7441,-5.8242,-5.8964,-5.9472,-5.9777,-6.0336,-6.1217,-6.117,-6.1246,-6.1505,-6.1499,-6.1443,-6.1337,-6.1212,-6.1125,-6.1022,-6.091,-6.008,-5.8723,-5.8723,-5.7742,-5.6184,-5.6492,-5.6261,-5.5703,-5.5703,-5.5293,-5.4674,-5.4145,-5.3673,-5.3189,-5.2508,-5.2173,-5.1904,-5.1237,-5.0141,-4.9044,-4.8855,-4.851,-4.8181,-4.829,-4.8306,-4.8306,-4.8306,-4.8306,-4.8306,-4.8306,-4.8306,-4.8306,-4.8306,-4.8306,-4.8306,-4.8306,-4.8306,-4.8141,-4.7608,-4.7718,-4.7791,-4.7553,-4.7718,-4.7994,-4.8269,-4.8306,-4.8306,-4.8306,-4.8306,-4.8248,-4.813,-4.7078,-4.6305,-4.5988,-4.395,-4.2688,-4.2497,-4.1533,-4.0631,-3.9863,-3.9582,-3.8465,0.0,0.0,0.0,0.0,0.0,0.0,0.0,0.0,0.0,0.0,0.0,0.0,0.0,0.0,0.0,0.0,0.0,0.0,0.0,0.0,0.0,0.0,0.0,0.0,0.0,-5.623,-5.6601,-5.6601,-5.6855,-5.7031,-5.7031,-5.7832,-5.834,-5.834,-5.9121,-5.9843,-6.0371,-6.0678,-6.1103,-6.1673,-6.1656,-6.1601,-6.1523,-6.1514,-6.1471,-6.1428,-6.1271,-6.115,-6.1089,-6.0962,-5.995,-5.83,-5.83,-5.7319,-5.5703,-5.5703,-5.5703,-5.5703,-5.5703,-5.5539,-5.5275,-5.5056,-5.4716,-5.4183,-5.3174,-5.2655,-5.2259,-5.1075,-4.9982,-4.9094,-4.9029,-4.8855,-4.866,-4.8476,-4.8363,-4.8306,-4.8306,-4.8306,-4.8306,-4.8306,-4.8306,-4.8306,-4.8306,-4.8306,-4.8306,-4.8306,-4.8306,-4.8141,-4.759,-4.7957,-4.8122,-4.759,-4.7957,-4.8306,-4.8306,-4.8306,-4.8306,-4.8306,-4.8306,-4.8286,-4.8207,-4.6845,-4.6105,-4.6301,-4.3978,-4.2717,-4.298,-4.1775,-4.0845,-4.0293,-3.9648,-3.8487,-3.6855,0.0,0.0,0.0,0.0,0.0,0.0,0.0,0.0,0.0,0.0,0.0,0.0,0.0,0.0,0.0,0.0,0.0,0.0,0.0,0.0,0.0,0.0,0.0,-5.6601,-5.6601,-5.6621,-5.668,-5.7402,-5.791,-5.7949,-5.873,-5.9238,-5.9238,-5.998,-6.0449,-6.0449,-6.1249,-6.1716,-6.1736,-6.1707,-6.1672,-6.1639,-6.1543,-6.1498,-6.151,-6.1303,-6.1178,-6.1089,-6.0972,-5.995,-5.83,-5.83,-5.7319,-5.5703,-5.5703,-5.5703,-5.5703,-5.5703,-5.5531,-5.5314,-5.5301,-5.49,-5.4244,-5.3271,-5.2311,-5.1456,-5.085,-5.0027,-4.9292,-4.9211,-4.9046,-4.8874,-4.866,-4.8476,-4.8306,-4.8306,-4.8306,-4.8306,-4.8306,-4.8306,-4.8306,-4.8306,-4.8306,-4.8306,-4.8306,-4.8306,-4.8306,-4.8306,-4.8306,-4.8306,-4.8306,-4.8306,0.0,-4.8306,-4.8306,-4.8306,-4.8306,-4.8306,-4.8286,-4.8207,-4.6866,-4.6324,-4.7004,-4.4289,-4.2973,-4.3734,-4.1587,-4.0371,-4.035,-3.9141,-3.8322,-3.7939,0.0,0.0,0.0,0.0,0.0,0.0,0.0,0.0,0.0,0.0,0.0,0.0,0.0,0.0,0.0,0.0,0.0,0.0,0.0,0.0,0.0,-5.4922,-5.5879,-5.6504,-5.6601,-5.707,-5.832,-5.8144,-5.8144,-5.8789,-5.959,-6.0078,-6.0078,-6.0859,-6.1348,-6.1348,-6.1561,-6.1989,-6.261,-6.2036,-6.1964,-6.2539,-6.1859,-6.1498,-6.151,-6.1389,-6.1255,-6.1099,-6.107,-6.0043,-5.83,-5.83,-5.7319,-5.5703,-5.5703,-5.5703,-5.5703,-5.5703,-5.5651,-5.5573,-5.5364,-5.4567,-5.3368,-5.1684,-5.0951,-5.0615,-4.9861,-4.9401,-4.915,-4.9079,-4.896,-4.8804,-4.8623,-4.8476,-4.8306,-4.8306,-4.8306,-4.8306,-4.8306,-4.8306,-4.8306,-4.8306,-4.8306,-4.8306,-4.8306,-4.8306,-4.8306,-4.8306,-4.8306,-4.8306,-4.8306,-4.8306,-4.8306,-4.8306,-4.8306,-4.8306,-4.8306,-4.8306,-4.8286,-4.8207,-4.7185,-4.6386,-4.5959,-4.4527,-4.3522,-4.3162,-4.2516,-4.1877,-4.1165,-3.9423,-3.8579,0.0,0.0,0.0,0.0,0.0,0.0,0.0,0.0,0.0,0.0,0.0,0.0,0.0,0.0,0.0,0.0,0.0,0.0,0.0,0.0,0.0,0.0,-5.582,-5.6562,-5.707,-5.6836,-5.7109,-5.8496,-5.8535,-5.8789,-5.9629,-6.0469,-6.0937,-6.0937,-6.1406,-6.1699,-6.1699,-6.1699,-6.2107,-6.2962,-6.2156,-6.2099,-6.2926,-6.2009,-6.1532,-6.1506,-6.1465,-6.132,-6.1099,-6.1099,-6.0074,-5.83,-5.83,-5.7319,-5.5703,-5.5703,-5.5703,-5.5703,0.0,0.0,0.0,0.0,-5.4191,-5.3263,-5.1563,-5.0985,-5.082,-4.9963,-4.9444,-4.915,-4.9127,-4.9062,-4.8926,-4.8767,-4.8569,-4.842,-4.8325,-4.8306,-4.8306,-4.8306,-4.8306,-4.8306,-4.8306,-4.8306,-4.8306,-4.8306,-4.8306,0.0,-4.8306,-4.8306,-4.8306,-4.8306,-4.8306,-4.8306,-4.8306,-4.8306,-4.8306,-4.8306,-4.8306,-4.8287,-4.8247,-4.7418,0.0,0.0,0.0,-4.3569,-4.2164,-4.211,0.0,0.0,0.0,0.0,0.0,0.0,0.0,0.0,-3.8396,-3.8531,0.0,0.0,0.0,0.0,0.0,0.0,0.0,0.0,0.0,0.0,0.0,0.0,0.0,0.0,0.0,0.0,-5.7246,-5.7793,-5.789,-5.7226,-5.7109,-5.8066,-5.8789,-5.9551,-6.0469,-6.125,-6.1699,-6.1699,-6.1699,-6.1699,-6.1699,-6.1699,0.0,0.0,0.0,-6.2115,-6.2984,-6.2067,-6.1577,-6.1505,-6.1495,-6.1363,-6.1099,-6.1002,-5.9977,-5.83,-5.8204,-5.7223,-5.5703,-5.5703,-5.5703,-5.5684,-5.5588,-5.5549,-5.5401,-5.404,-5.3674,-5.3612,-5.2077,0.0,0.0,-5.0561,-4.9743,-4.9179,-4.926,-4.9228,-4.9129,-4.8943,-4.875,-4.855,-4.8363,-4.8306,-4.8306,-4.8306,-4.8306,-4.8306,-4.8306,-4.8306,-4.8306,-4.8306,-4.8306,-4.8306,-4.8306,-4.8306,-4.8306,-4.8306,-4.8306,-4.8306,-4.8306,-4.8306,-4.8306,-4.8306,-4.8306,0.0,-4.8306,-4.7495,-4.6905,-4.6679,-4.5088,-4.3259,-4.1296,-4.1105,-4.0655,-3.983,-3.9715,-3.9816,-4.0096,-4.0096,-4.0096,-4.0079,-3.8751,-3.8497,0.0,0.0,0.0,0.0,0.0,0.0,0.0,0.0,0.0,0.0,0.0,0.0,0.0,0.0,0.0,-5.6543,-5.6738,-5.7109,-5.7793,-5.7754,-5.8203,-5.9746,-5.9492,-5.9785,-6.1308,-6.1601,-6.1699,-6.1699,-6.1699,-6.1699,-6.1699,-6.1699,-6.2108,-6.2961,-6.2158,-6.2112,-6.2991,-6.2066,-6.1577,-6.1505,-6.1495,0.0,-6.1079,-6.0364,-5.9398,-5.8261,-5.755,-5.6646,-5.5703,-5.5703,-5.5703,-5.5645,-5.4991,-5.4722,-5.4509,-5.2686,-5.2879,-5.3658,-5.0902,-5.0808,-5.1644,-4.9786,-4.9072,-4.8978,-4.91,-4.9047,0.0,-4.8857,-4.8696,-4.855,-4.8363,-4.8306,-4.8306,-4.8306,-4.8306,-4.8306,-4.8306,-4.8306,-4.8306,-4.8306,-4.8306,-4.8306,-4.8306,-4.8306,-4.8306,-4.8306,-4.8306,-4.8306,-4.8306,-4.8306,-4.8306,-4.8306,-4.8306,-4.8306,-4.8306,-4.74,-4.6552,-4.5877,-4.4177,-4.2973,-4.2533,-4.1804,-4.1336,-4.1138,-4.0388,-4.0043,-4.0096,-4.0096,-4.0096,-4.0096,-3.9808,-3.9757,0.0,0.0,0.0,0.0,0.0,0.0,0.0,0.0,0.0,0.0,0.0,-5.5683,-5.4805,0.0,-5.7754,-5.7324,-5.7949,-5.8359,-5.7969,-5.8613,-5.9316,-5.9746,-5.9805,-6.0293,-6.1582,-6.1699,-6.1699,-6.1699,-6.1699,-6.1699,-6.1699,-6.1699,-6.2109,-6.2963,-6.216,-6.2114,-6.2998,-6.2094,-6.1601,-6.1508,-6.1498,-6.1351,-6.1079,-6.0209,-5.9244,-5.8261,-5.7376,-5.6522,-5.5703,-5.5703,-5.5453,-5.5011,-5.4184,-5.3857,-5.3663,-5.2165,-5.2403,-5.3116,-5.0431,-5.0606,-5.1654,-4.9565,-4.8962,-4.8996,-4.9084,-4.9083,-4.9029,-4.8926,-4.8785,-4.866,-4.8495,-4.8382,-4.8306,-4.8306,-4.8306,-4.8306,-4.8306,-4.8306,-4.8306,-4.8306,-4.8306,-4.8306,-4.8306,-4.8306,-4.8306,-4.8306,-4.8306,-4.8306,-4.8306,-4.8306,-4.8306,-4.8306,-4.8306,-4.8287,-4.8247,-4.6955,-4.5799,-4.5017,-4.3666,-4.2806,-4.2575,-4.2098,-4.1739,-4.1503,-4.0808,-4.0434,-4.0434,-4.0204,-4.0096,-4.0096,-4.0096,-4.0096,0.0,0.0,0.0,0.0,0.0,0.0,0.0,-5.3027,-5.4355,-5.3828,-5.5937,-5.7734,-5.7207,-5.8242,-5.9023,-5.8476,-5.9394,-5.9746,-5.8555,-5.9551,-6.0156,-5.9512,-6.0019,-6.0742,-6.1621,-6.1699,-6.1699,-6.1699,-6.1699,-6.1699,-6.1699,-6.1699,-6.2011,-6.2732,-6.2063,-6.2037,-6.2732,-6.2056,-6.1636,-6.1505,-6.1508,-6.1276,-6.0855,-5.9967,-5.9032,-5.8025,-5.7118,-5.6349,-5.5703,-5.5703,-5.5222,-5.4414,-5.3549,-5.3106,-5.2817,-5.1796,-5.2066,-5.2628,-5.0354,-5.0662,-5.1713,-4.9582,-4.8979,-4.9049,-4.9049,-4.9116,-4.9148,-4.8993,-4.8891,-4.8769,-4.8624,-4.8439,-4.8306,-4.8306,-4.8306,-4.8306,-4.8306,-4.8306,-4.8306,-4.8306,-4.8306,-4.8306,-4.8306,-4.8306,-4.8306,-4.8306,-4.8306,-4.8306,-4.8306,-4.8306,-4.8306,-4.8306,-4.8177,-4.7938,-4.753,-4.6169,-4.4942,-4.4086,-4.3319,-4.2731,-4.2358,-4.2257,-4.2032,-4.1635,-4.1162,-4.0926,-4.0926,-4.0458,-4.0246,-4.0229,-4.0146,-4.0096,-5.0176,-5.0195,-5.0566,-5.2051,-5.2558,-5.3262,0.0,-5.6094,-5.6504,-5.7187,-5.7637,-5.8105,-5.8789,-5.9062,-5.9394,-6.0019,-5.9687,-5.9512,-6.0058,-6.0273,-6.0371,-6.0273,-6.0351,-6.0742,-6.1621,-6.1699,-6.1699,-6.1699,-6.1699,-6.1699,-6.1699,-6.1699,-6.1738,-6.1834,-6.1751,-6.1744,-6.1834,-6.1744,-6.1636,-6.1503,-6.1505,-6.1021,-6.009,-5.916,-5.8181,-5.7186,-5.6246,-5.578,-5.5703,-5.5703,-5.5222,-5.4414,-5.3549,-5.2741,-5.1942,-5.1105,-5.1788,-5.2839,-5.0564,-5.0856,-5.1901,-4.9631,-4.8909,-4.8926,-4.8926,-4.8996,-4.9084,-4.8875,-4.8804,-4.8751,-4.855,-4.8401,-4.8306,-4.8306,-4.8306,-4.8306,-4.8306,-4.8306,-4.8306,-4.8306,-4.8306,-4.8306,-4.8306,-4.8306,-4.8306,-4.8306,-4.8306,-4.8306,-4.8306,-4.8306,-4.8306,-4.8306,-4.7776,-4.6765,-4.5132,-4.4821,-4.4218,-4.3119,-4.2955,-4.2882,-4.2825,-4.2418,-4.2177,-4.2115,-4.1674,-4.1415,-4.1415,-4.0949,-4.0707,-4.0707,-4.0279,-4.0096,-5.0058,-5.1641,-5.3086,-5.2773,-5.3848,-5.5117,-5.5703,-5.623,-5.6699,-5.707,-5.7949,-5.8769,-5.9121,-6.0,-6.0762,-6.1094,-6.0879,-6.0762,-6.1113,-6.1152,-6.1152,-6.1152,-6.1152,-6.1308,-6.166,-6.1699,-6.1699,-6.1699,-6.1699,-6.1699,-6.1699,-6.1699,-6.1699,-6.1699,-6.1694,-6.1708,-6.1705,-6.1709,-6.1649,-6.1555,-6.1518,-6.0972,-5.9976,-5.9064,-5.7839,-5.6387,-5.591,-5.5703,-5.5665,-5.5184,-5.4491,-5.3664,-5.2779,-5.1933,-5.1164,-5.0827,-5.1433,-5.2209,-5.0591,-5.0709,-5.1334,-4.9724,-4.9061,-4.8909,-4.8909,-4.8926,-4.8979,-4.898,-4.884,-4.8697,-4.8679,-4.8495,-4.8306,-4.8306,-4.8306,-4.8306,-4.8306,-4.8306,-4.8306,-4.8306,-4.8306,-4.8306,-4.8306,-4.8306,-4.8306,-4.8306,-4.8306,-4.8306,-4.8306,-4.8306,-4.816,-4.7776,-4.7022,-4.6047,-4.4818,-4.4691,-4.4199,-4.3141,-4.3068,-4.3031,-4.2901,-4.2711,-4.2614,-4.2614,-4.2157,-4.1909,-4.1909,-4.1162,-4.0802,-4.0778,-4.0328,-4.0096,-5.0644,-5.2695,-5.4394,-5.3613,-5.4844,-5.6133,-5.5742,-5.6152,-5.668,-5.6914,-5.7969,-5.8984,-5.9453,-6.0527,-6.1504,-6.1973,-6.2051,-6.2051,-6.2051,-6.2051,-6.1973,-6.1738,-6.1699,-6.1699,-6.1699,-6.1699,-6.1699,-6.1699,-6.1699,-6.1699,-6.1699,-6.1699,-6.1699,-6.1699,-6.1695,-6.1708,-6.1707,-6.1709,-6.1662,-6.1601,-6.1527,-6.088,-5.9658,-5.8496,-5.719,-5.5885,-5.5756,-5.5703,-5.5645,-5.4818,-5.3991,-5.3106,-5.2231,-5.1414,-5.0712,-5.0712,-5.1202,-5.1739,-5.0593,-5.0602,-5.0908,-4.9766,-4.9176,-4.8909,-4.8909,-4.8909,-4.8926,-4.9032,-4.8821,-4.8605,-4.8715,-4.8513,-4.8306,-4.8306,-4.8306,-4.8306,-4.8306,-4.8306,-4.8306,-4.8306,-4.8306,-4.8306,-4.8306,-4.8306,-4.8306,-4.8306,-4.8306,-4.8306,-4.8306,-4.8142,-4.7684,-4.6799,-4.6136,-4.5435,-4.4589,-4.4483,-4.4086,-4.3251,-4.3214,-4.3105,-4.2901,-4.2901,-4.2901,-4.2901,-4.2575,-4.2338,-4.2198,-4.1388,-4.0926,-4.0778,-4.0328,-4.0096,-5.2383,-5.2695,-5.3164,-5.4805,-5.5273,-5.5547,-5.6367,-5.6582,-5.6836,-5.7695,-5.789,-5.8437,-6.0058,-6.041,-6.0996,-6.2695,-6.2969,-6.2969,-6.2969,-6.2969,-6.2656,-6.1797,-6.1699,-6.1699,-6.1699,-6.1699,-6.1699,-6.1699,-6.1699,-6.1699,-6.1699,-6.1699,-6.1699,-6.1697,-6.1693,-6.1705,-6.1699,-6.1705,-6.1662,-6.1601,-6.1527,-6.06,-5.888,-5.6953,-5.6026,-5.5885,-5.5756,-5.5703,-5.5645,-5.4818,-5.3991,-5.3106,-5.2231,-5.1414,-5.0712,-5.0712,-5.1202,-5.1739,-5.0593,-5.0602,-5.0908,-4.9766,-4.9176,-4.8909,-4.8909,-4.8909,-4.8909,-4.8909,-4.8767,-4.8605,-4.8605,-4.8439,-4.8306,-4.8306,-4.8306,-4.8306,-4.8306,-4.8306,-4.8306,-4.8306,-4.8306,-4.8306,-4.8306,-4.8306,-4.8306,-4.8306,-4.8306,-4.8306,-4.8306,-4.7739,-4.6762,-4.5327,-4.514,-4.4774,-4.3896,-4.3824,-4.3655,-4.3233,-4.3214,-4.3105,-4.2901,-4.2901,-4.2901,-4.2901,-4.2882,-4.2653,-4.2198,-4.17,-4.1253,-4.0778,-4.0328,-4.0096,-5.1914,-5.3105,-5.457,-5.5156,-5.5293,-5.5371,-5.5664,-5.5742,-5.582,-5.6113,-5.709,-5.8066,-5.8633,-5.9648,-6.0976,-6.2715,-6.3008,-6.3203,-6.3789,-6.3867,-6.332,-6.1875,-6.2207,-6.2344,-6.1758,-6.1699,-6.1699,-6.1699,-6.1699,-6.1699,-6.1699,-6.1699,-6.1698,-6.1697,-6.1709,-6.1701,-6.1697,-6.1705,-6.1688,-6.1644,-6.0423,-5.9212,-5.7992,-5.6622,-5.5995,-5.5959,-5.5787,-5.5703,-5.5588,-5.4203,-5.3472,-5.3068,-5.1645,-5.0933,-5.0712,-5.0712,-5.0856,-5.1058,-5.0661,-5.0516,-5.0443,-5.0057,-4.9608,-4.9241,-4.9241,-4.9077,-4.8909,-4.8909,-4.8838,-4.8767,-4.8623,-4.855,-4.8476,-4.8344,-4.8306,-4.8306,-4.8306,-4.8306,-4.8306,-4.8306,-4.8306,-4.8306,-4.8306,-4.8306,-4.8306,-4.8306,-4.8306,-4.8142,-4.7684,-4.7021,-4.6187,-4.5214,-4.4668,-4.4239,-4.3963,-4.3929,-4.3832,-4.3618,-4.3601,-4.3445,-4.3105,-4.3105,-4.305,-4.2901,-4.2901,-4.2673,-4.2198,-4.1739,-4.1253,-4.0778,-4.0328,-4.0096,-5.2402,-5.3555,-5.4844,-5.4844,-5.4844,-5.4922,-5.5234,-5.5293,-5.539,-5.5703,-5.666,-5.7539,-5.7832,-5.9023,-6.0644,-6.2676,-6.3262,-6.3769,-6.4648,-6.4492,-6.3769,-6.2324,-6.2383,-6.2324,-6.1758,-6.1699,-6.1699,-6.1699,-6.1699,-6.1699,-6.1699,-6.1697,-6.1695,-6.1693,-6.1704,-6.1696,-6.1692,-6.1703,-6.1539,-6.1188,-5.9698,-5.8519,-5.7554,-5.6482,-5.6012,-5.5995,-5.5778,-5.553,-5.5164,-5.378,-5.3029,-5.2606,-5.1221,-5.0712,-5.0712,-5.0712,-5.0712,-5.0712,-5.0712,-5.0483,-5.0195,-5.0195,-4.983,-4.9399,-4.9399,-4.9176,-4.8909,-4.8909,-4.8909,-4.8855,-4.8714,-4.8642,-4.855,-4.842,-4.8325,-4.8306,-4.8306,-4.8306,-4.8306,-4.8306,-4.8306,-4.8306,-4.8306,-4.8306,-4.8306,-4.8306,-4.8105,-4.7684,-4.7003,-4.6262,-4.5515,-4.4781,-4.4289,-4.4005,-4.4005,-4.4005,-4.3945,-4.3804,-4.3804,-4.3618,-4.3233,-4.3214,-4.2978,-4.2484,-4.2466,-4.2037,-4.1135,-4.1106,-4.0762,-4.0179,-4.011,-4.0096,-5.3711,-5.3965,-5.4004,-5.4004,-5.4004,-5.4219,-5.5039,-5.5273,-5.5527,-5.6367,-5.6601,-5.6914,-5.7754,-5.8652,-6.0078,-6.2598,-6.373,-6.4609,-6.5488,-6.4922,-6.4082,-6.3105,-6.2305,-6.1797,-6.1719,-6.1699,-6.1699,-6.1699,-6.1698,-6.1697,-6.1697,-6.1692,-6.1705,-6.1697,-6.1697,-6.1692,-6.1698,-6.1659,-6.1166,-6.0224,-5.9345,-5.8441,-5.7509,-5.647,-5.6012,-5.5984,-5.5788,-5.5252,-5.4444,-5.3568,-5.2692,-5.1808,-5.101,-5.0712,-5.0712,-5.0712,-5.0712,-5.0712,-5.0712,-5.0493,-5.0237,-5.0237,-4.987,-4.9442,-4.9411,-4.9193,-4.8926,-4.889,-4.8909,-4.8891,-4.8822,-4.8715,-4.8605,-4.8513,-4.8401,-4.8306,-4.8306,-4.8306,-4.8306,-4.8306,-4.8306,-4.8306,-4.8306,-4.8306,-4.8306,-4.8306,-4.7702,-4.6984,-4.6299,-4.5552,-4.4819,-4.4082,-4.4005,-4.4005,-4.4005,-4.4005,-4.3945,-4.382,-4.3804,-4.3617,-4.3178,-4.316,-4.2687,-4.1669,-4.1651,-4.0861,-3.9223,-3.9972,-3.9914,-3.9078,-3.9832,-4.0171,-5.3144,-5.3516,-5.4004,-5.4004,-5.4004,-5.4062,-5.4277,-5.4824,-5.5351,-5.5586,-5.666,-5.7637,-5.7851,-5.9101,-6.0723,-6.2676,-6.373,-6.4609,-6.5488,-6.5976,-6.543,-6.3262,-6.3379,-6.3125,-6.1836,-6.1699,-6.1698,-6.1698,-6.1697,-6.1696,-6.1692,-6.1705,-6.1701,-6.1697,-6.1709,-6.1703,-6.1698,-6.1056,-6.0299,-5.9393,-5.8479,-5.7551,-5.6617,-5.6236,-5.6082,-5.6073,-5.5866,-5.5285,-5.4437,-5.3569,-5.2692,-5.1808,-5.101,-5.0712,-5.0712,-5.0712,-5.0712,-5.0712,-5.0712,-5.0634,-5.0565,-5.0565,-5.0313,-4.9962,-4.9762,-4.9514,-4.9225,-4.8959,-4.9012,-4.9062,-4.8857,-4.8856,-4.8838,-4.8569,-4.8476,-4.8419,-4.8306,-4.8306,-4.8306,-4.8306,-4.8306,-4.8306,-4.8306,-4.8306,-4.8306,-4.8306,-4.7261,-4.6411,-4.6225,-4.5552,-4.4819,-4.4082,-4.4005,-4.4005,-4.4005,-4.4005,-4.3989,-4.3961,-4.3961,-4.3569,-4.2715,-4.2678,-4.2161,-4.1049,-4.1031,-4.0564,-3.9649,-4.0448,-4.0532,-3.9998,-4.0791,-4.0972,-5.2832,-5.3066,-5.334,-5.2949,-5.3144,-5.3535,-5.3906,-5.4668,-5.541,-5.5781,-5.6953,-5.7773,-5.7402,-5.9004,-6.0723,-6.1699,-6.3222,-6.4609,-6.5488,-6.5682,-6.5213,-6.3748,-6.3338,-6.2771,-6.1795,-6.1695,-6.1694,-6.1692,-6.1691,-6.1709,-6.1705,-6.1696,-6.169,-6.169,-6.1703,-6.1698,-6.1698,-6.0842,-5.9963,-5.9082,-5.815,-5.7205,-5.6303,-5.6168,-5.6094,-5.609,-5.5923,-5.5143,-5.3937,-5.3445,-5.2492,-5.1337,-5.0875,-5.0712,-5.0712,-5.0712,-5.0712,-5.0712,-5.0712,-5.0712,-5.0712,-5.0712,-5.0483,-5.0171,-5.0019,-4.9712,-4.9368,-4.9176,-4.9162,-4.9164,-4.891,-4.8907,-4.8906,-4.8624,-4.8532,-4.8457,-4.8325,-4.8306,-4.8306,-4.8306,-4.8306,-4.8306,-4.8306,-4.8306,-4.8306,-4.8306,-4.7077,-4.6172,-4.6188,-4.5271,-4.4459,-4.4042,-4.4005,-4.4005,-4.4005,-4.4005,-4.4005,-4.4005,-4.4005,-4.3722,-4.3102,-4.3068,-4.24,-4.0944,-4.0823,-4.0182,-3.892,-3.9593,-3.9906,-3.9845,-4.0617,-4.1011,-5.2558,-5.2539,-5.2363,-5.1738,-5.2226,-5.3105,-5.3965,-5.4844,-5.5683,-5.6445,-5.7285,-5.7676,-5.6914,-5.8769,-6.0449,-6.0547,-6.2577,-6.4431,-6.529,-6.4779,-6.4267,-6.4131,-6.2783,-6.1826,-6.1709,-6.1708,-6.1705,-6.1699,-6.1697,-6.1696,-6.1696,-6.1705,-6.1698,-6.1698,-6.1698,-6.164,-6.1522,-6.0666,-5.9786,-5.8925,-5.7999,-5.7119,-5.6305,-5.6181,-5.6129,-5.6117,-5.5967,-5.491,-5.3302,-5.3292,-5.2281,-5.0702,-5.0693,-5.0712,-5.0712,-5.0712,-5.0712,-5.0712,-5.0712,-5.0712,-5.0712,-5.0712,-5.0504,-5.026,-5.0206,-4.987,-4.9503,-4.9411,-4.9321,-4.9211,-4.8959,-4.8959,-4.8976,-4.8678,-4.8569,-4.8476,-4.8363,-4.8306,-4.8306,-4.8306,-4.8306,-4.8306,-4.8306,-4.8306,-4.8306,-4.8306,-4.704,-4.6118,-4.6171,-4.4916,-4.3989,-4.4005,-4.4005,-4.4005,-4.4005,-4.4005,-4.4005,-4.4005,-4.4005,-4.3905,-4.367,-4.367,-4.2814,-4.0995,-4.0776,-3.9758,-3.7878,-3.8437,-3.894,-3.9403,-4.0137,-4.0891,-5.1828,-5.1635,-5.1754,-5.2324,-5.3125,-5.4004,-5.4883,-5.5742,-5.6426,-5.6562,-5.7285,-5.7851,-5.7695,-5.918,-6.0644,-6.1367,-6.246,-6.3533,-6.4393,-6.4408,-6.4033,-6.3311,-6.2959,-6.249,-6.1768,-6.1704,-6.1699,-6.1697,-6.1709,-6.1703,-6.1703,-6.1701,-6.1698,-6.1698,-6.1698,-6.1349,-6.0627,-5.9768,-5.8894,-5.8004,-5.7128,-5.6592,-5.6375,-5.6299,-5.6245,-5.6184,-5.6037,-5.5002,-5.3375,-5.3321,-5.2281,-5.0702,-5.0702,-5.0712,-5.0712,-5.0712,-5.0712,-5.0712,-5.0712,-5.0712,-5.0712,-5.0712,-5.0663,-5.0565,-5.0283,-5.0135,-4.9974,-4.9514,-4.9472,-4.9439,-4.901,-4.9029,-4.9096,-4.8821,-4.8678,-4.855,-4.8476,-4.8382,-4.8306,-4.8306,-4.8306,-4.8306,-4.8306,-4.8306,-4.8306,-4.8306,-4.704,-4.61,-4.6119,-4.4816,-4.3945,-4.3989,-4.4005,-4.4005,-4.4005,-4.4005,-4.4005,-4.4005,-4.4005,-4.3692,-4.2993,-4.2974,-4.2119,-4.032,-4.0131,-3.9479,-3.8302,-3.8952,-3.9608,-4.0292,-4.1085,-4.1665,-5.1503,-5.1408,-5.1507,-5.1923,-5.3018,-5.4114,-5.4528,-5.5642,-5.66,-5.6601,-5.7285,-5.7754,-5.7305,-5.8965,-6.0254,-5.9805,-6.1561,-6.2983,-6.2944,-6.3346,-6.3474,-6.3045,-6.2596,-6.2164,-6.1735,-6.1692,-6.1709,-6.1709,-6.1703,-6.1698,-6.1698,-6.1698,-6.1483,-6.1037,-6.1017,-6.0607,-5.9729,-5.8851,-5.8207,-5.7799,-5.6911,-5.6483,-5.6455,-5.6358,-5.626,-5.6175,-5.5656,-5.4655,-5.3363,-5.2875,-5.1903,-5.0692,-5.0692,-5.0693,-5.0712,-5.0712,-5.0712,-5.0712,-5.0712,-5.0712,-5.0712,-5.0712,-5.0712,-5.0673,-5.0504,-5.0347,-5.0147,-4.9897,-4.9707,-4.9539,-4.9283,-4.9209,-4.9129,-4.8927,-4.8697,-4.8513,-4.842,-4.8343,-4.8306,-4.8306,-4.8306,-4.8306,-4.8306,-4.8306,-4.8159,-4.7736,-4.6728,-4.5863,-4.5457,-4.4507,-4.3883,-4.3945,-4.3974,-4.4005,-4.4005,-4.4005,-4.4005,-4.4005,-4.4005,-4.3838,-4.3448,-4.3429,-4.2823,-4.1541,-4.0851,-4.007,-3.9184,-3.8923,-3.9369,-4.051,-4.089,-4.1612,-5.1445,-5.1406,-5.1447,-5.1627,-5.2858,-5.4055,-5.4247,-5.548,-5.6596,-5.6601,-5.7148,-5.7402,-5.6738,-5.8535,-5.9707,-5.8398,-6.074,-6.2472,-6.1807,-6.2283,-6.2718,-6.2716,-6.213,-6.1698,-6.1698,-6.1698,-6.1698,-6.1698,-6.1698,-6.1698,-6.1698,-6.1522,-6.1115,-6.0412,-6.0217,-5.971,-5.8831,-5.8148,-5.7719,-5.7523,-5.6848,-5.6503,-5.6504,-5.6375,-5.6284,-5.6147,-5.5281,-5.4336,-5.3342,-5.2464,-5.1563,-5.072,-5.0701,-5.0692,-5.0712,-5.0712,-5.0712,-5.0712,-5.0712,-5.0712,-5.0712,-5.0712,-5.0712,-5.0712,-5.0712,-5.0534,-5.0294,-5.0218,-4.9987,-4.974,-4.9598,-4.9427,-4.9193,-4.889,-4.8678,-4.8494,-4.8325,-4.8306,-4.8306,-4.8306,-4.8306,-4.8306,-4.8306,-4.8306,-4.8031,-4.7223,-4.6416,-4.5626,-4.487,-4.4183,-4.3786,-4.3883,-4.3942,-4.4005,-4.4005,-4.4005,-4.4005,-4.4005,-4.4005,-4.4005,-4.4005,-4.4005,-4.354,-4.2556,-4.1765,-4.0871,-3.9882,-3.9084,-3.9423,-4.0817,-4.0781,-4.156,-5.1606,-5.1397,-5.1581,-5.2386,-5.3307,-5.4211,-5.5009,-5.5929,-5.6596,-5.6601,-5.666,-5.6699,-5.6601,-5.8086,-5.9258,-5.9101,-6.0624,-6.1793,-6.1709,-6.1761,-6.1828,-6.1818,-6.1757,-6.1698,-6.1698,-6.1698,-6.1698,-6.1698,-6.1698,-6.1698,-6.1698,-6.0959,-6.0471,-6.0393,-5.9631,-5.8792,-5.7933,-5.7836,-5.7426,-5.6704,-5.663,-5.657,-5.6504,-5.6424,-5.6315,-5.6147,-5.5281,-5.4351,-5.3412,-5.2481,-5.1589,-5.0784,-5.072,-5.0692,-5.0712,-5.0712,-5.0712,-5.0712,-5.0712,-5.0712,-5.0712,-5.0712,-5.0712,-5.0712,-5.0712,-5.0673,-5.0594,-5.0283,-5.0256,-5.024,-4.987,-4.9627,-4.9346,-4.8748,-4.8605,-4.855,-4.8344,-4.8306,-4.8306,-4.8306,-4.8306,-4.8306,-4.8306,-4.8306,-4.8031,-4.7223,-4.6416,-4.5608,-4.48,-4.408,-4.3667,-4.3804,-4.3929,-4.4005,-4.4005,-4.4005,-4.4005,-4.4005,-4.4005,-4.4005,-4.4005,-4.4005,-4.328,-4.1739,-4.2023,-4.1403,-3.9808,-4.014,-4.0834,-4.1866,-4.1669,-4.2159,-5.2216,-5.1732,-5.1424,-5.1772,-5.2906,-5.4024,-5.4389,-5.5537,-5.6545,-5.6597,-5.6601,-5.6601,-5.6601,-5.8027,-5.9023,-5.8496,-6.0253,-6.1521,-6.0992,-6.1375,-6.1696,-6.1692,-6.1705,-6.1698,-6.1698,-6.1698,-6.1698,-6.1698,-6.1698,-6.1464,-6.0959,-6.0588,-5.9924,-5.887,-5.8499,-5.7914,-5.7094,-5.7074,-5.6918,-5.6606,-5.6606,-5.6595,-5.655,-5.6484,-5.6395,-5.6184,-5.478,-5.3922,-5.3382,-5.1965,-5.1159,-5.0855,-5.0784,-5.0739,-5.0712,-5.0702,-5.0712,-5.0712,-5.0712,-5.0712,-5.0712,-5.0712,-5.0712,-5.0712,-5.0712,-5.0712,-5.0673,-5.0544,-5.044,-5.0352,-5.0197,-4.9836,-4.9404,-4.9055,-4.8783,-4.8569,-4.8438,-4.8363,-4.8306,-4.8306,-4.8306,-4.8306,-4.8306,-4.7901,-4.7296,-4.6507,-4.57,-4.4892,-4.4085,-4.3819,-4.3736,-4.3788,-4.3881,-4.3961,-4.4005,-4.4005,-4.4005,-4.4005,-4.4005,-4.4005,-4.4005,-4.4005,-4.3466,-4.2333,-4.1915,-4.1364,-4.0701,-4.0317,-4.0836,-4.2183,-4.2097,-4.2536,-5.2664,-5.2158,-5.169,-5.169,-5.2995,-5.427,-5.4275,-5.5435,-5.6515,-5.6591,-5.6599,-5.6601,-5.6601,-5.8027,-5.9004,-5.8379,-6.0214,-6.1483,-6.0877,-6.1319,-6.1701,-6.1697,-6.1473,-6.1427,-6.1679,-6.1698,-6.1698,-6.1698,-6.1451,-6.0948,-6.005,-5.9765,-5.9079,-5.7836,-5.7562,-5.7172,-5.6606,-5.6606,-5.6606,-5.6606,-5.6606,-5.6606,-5.6606,-5.6521,-5.63,-5.5859,-5.4333,-5.3462,-5.3027,-5.1509,-5.0861,-5.0838,-5.0801,-5.0757,-5.0692,-5.0693,-5.0702,-5.0712,-5.0712,-5.0712,-5.0712,-5.0712,-5.0712,-5.0712,-5.0712,-5.0712,-5.0712,-5.0712,-5.0613,-5.0459,-5.0374,-5.0032,-4.9622,-4.9293,-4.8971,-4.8713,-4.8532,-4.8382,-4.8306,-4.8306,-4.8306,-4.8306,-4.8306,-4.7626,-4.6819,-4.6012,-4.5223,-4.4415,-4.3624,-4.3651,-4.3753,-4.3818,-4.3883,-4.3929,-4.3989,-4.4005,-4.4005,-4.4005,-4.4005,-4.4005,-4.4005,-4.4005,-4.3615,-4.2816,-4.231,-4.1902,-4.1662,-4.119,-4.1566,-4.2735,-4.2685,-4.2964,-5.284,-5.2586,-5.2586,-5.2586,-5.3907,-5.5186,-5.5188,-5.5865,-5.6515,-5.6591,-5.6599,-5.6601,-5.6601,-5.8027,-5.9199,-5.9199,-6.0605,-6.1699,-6.1697,-6.1693,-6.1707,-6.1699,-6.0946,-6.0744,-6.162,-6.1698,-6.1698,-6.1698,-6.0899,-6.0029,-5.9169,-5.8299,-5.7828,-5.7799,-5.7035,-5.6606,-5.6606,-5.6606,-5.6606,-5.6606,-5.6606,-5.6606,-5.6608,-5.6523,-5.5989,-5.5056,-5.4047,-5.312,-5.2237,-5.1225,-5.0766,-5.0701,-5.0775,-5.0758,-5.0693,-5.0702,-5.0712,-5.0712,-5.0712,-5.0712,-5.0712,-5.0712,-5.0712,-5.0712,-5.0712,-5.0712,-5.0712,-5.0712,-5.0712,-5.0614,-5.0283,-5.0195,-5.0031,-4.9367,-4.915,-4.899,-4.8587,-4.8382,-4.8306,-4.8306,-4.8306,-4.8306,-4.8306,-4.7626,-4.6819,-4.6012,-4.5223,-4.4433,-4.3692,-4.3599,-4.3666,-4.3881,-4.3897,-4.3929,-4.3989,-4.4005,-4.4005,-4.4005,-4.4005,-4.4005,-4.4005,-4.4005,-4.3615,-4.2816,-4.3442,-4.3344,-4.2495,-4.3142,-4.3582,-4.3769,-4.3583,-4.3496,-5.4453,-5.4375,-5.4375,-5.4375,-5.5236,-5.6098,-5.6094,-5.6299,-5.6684,-5.7295,-5.7411,-5.7614,-5.8262,-5.9277,-5.9844,-5.9297,-6.0117,-6.0801,-6.08,-6.0816,-6.1025,-6.1627,-6.1458,-6.1393,-6.1662,-6.1701,-6.1453,-6.0855,-6.0564,-5.9765,-5.83,-5.7949,-5.7558,-5.7008,-5.6728,-5.6606,-5.6606,-5.6593,-5.6606,-5.6606,-5.6606,-5.6606,-5.6606,-5.6582,-5.6034,-5.5059,-5.4172,-5.3223,-5.2225,-5.1303,-5.089,-5.0838,-5.0801,-5.0821,-5.0831,-5.0784,-5.0766,-5.0776,-5.0776,-5.0749,-5.0692,-5.0692,-5.0693,-5.0712,-5.0712,-5.0712,-5.0712,-5.0712,-5.0712,-5.0673,-5.0565,-5.0369,-5.0159,-4.9924,-4.9512,-4.9118,-4.8956,-4.866,-4.8401,-4.8306,-4.8306,-4.8141,-4.7571,-4.6801,-4.6012,-4.5204,-4.4397,-4.3808,-4.355,-4.3565,-4.3615,-4.3682,-4.3786,-4.3883,-4.3989,-4.4005,-4.4005,-4.4005,-4.4005,-4.4005,-4.4005,-4.4005,-4.3615,-4.2816,-4.3011,-4.2981,-4.2702,-4.2378,-4.2526,-4.3129,-4.3619,-4.3846,-5.529,-5.5193,-5.5193,-5.5193,-5.586,-5.6507,-5.6507,-5.6496,-5.6742,-5.7621,-5.7801,-5.8072,-5.8997,-5.9841,-6.0233,-5.9725,-6.035,-6.0781,-6.0449,-6.0682,-6.0971,-6.1183,-6.092,-6.0723,-6.0718,-6.0718,-6.0486,-5.9941,-5.9609,-5.8944,-5.7851,-5.7516,-5.7124,-5.6616,-5.6601,-5.6598,-5.6598,-5.6606,-5.6598,-5.6598,-5.661,-5.6606,-5.6606,-5.6591,-5.5892,-5.4642,-5.4102,-5.3121,0.0,-5.1218,-5.0947,-5.0906,-5.0852,-5.0846,-5.0855,-5.0846,-5.081,-5.0801,-5.0801,-5.0775,-5.0748,-5.0748,-5.073,-5.0721,-5.0702,-5.0702,-5.0712,-5.0712,-5.0712,-5.0712,-5.0712,-5.0544,-5.0358,-5.023,-4.9846,-4.9453,-4.9324,-4.892,-4.8605,-4.8495,-4.8383,-4.8049,-4.7241,-4.6434,-4.5626,-4.4837,-4.4011,-4.3515,-4.3531,-4.3565,-4.3615,-4.3667,-4.3736,-4.3818,-4.3913,-4.3929,-4.3945,-4.3958,-4.3958,-4.3974,-4.4005,-4.4005,-4.3763,-4.3262,-4.3243,-4.3095,-4.2797,-4.2296,-4.2463,-4.3262,-4.3763,-4.4005,0.0,-5.5329,-5.5388,-5.5388,-5.5996,-5.6585,-5.6585,-5.6535,0.0,-5.7613,-5.7794,-5.8065,-5.8944,-5.9802,-6.0359,-6.0242,-6.0945,-6.1206,-6.0332,-6.0976,-6.121,-6.0404,-5.9582,-5.9097,-5.9101,-5.9101,-5.9062,-5.9004,-5.8258,-5.7784,-5.7725,-5.7008,-5.6606,-5.6606,-5.6596,-5.6601,-5.6601,-5.6598,-5.6593,-5.6593,-5.6596,-5.6567,-5.6508,-5.6518,-5.5557,-5.3906,-5.3771,-5.2757,-5.1183,-5.101,-5.0905,-5.0905,-5.0917,-5.0863,-5.081,-5.0872,-5.0863,-5.081,-5.081,-5.081,-5.0801,-5.0801,-5.0801,-5.0793,-5.072,-5.0712,-5.0693,-5.0693,-5.0712,-5.0712,-5.0712,-5.0712,-5.0614,-5.0306,-5.0123,-4.993,-4.9651,-4.918,-4.8799,-4.8764,-4.8514,-4.8031,-4.7149,-4.6397,-4.5608,-4.4745,-4.3975,-4.3513,-4.3582,-4.3582,-4.3634,-4.3771,-4.3788,-4.3788,-4.3788,-4.3804,-4.3818,-4.3899,-4.3897,-4.3945,-4.4005,-4.4005,-4.4005,-4.4005,-4.4005,-4.3596,-4.2797,-4.2853,-4.3243,-4.3912,-4.3968,-4.4005,-5.6253,0.0,-5.7107,-5.7107,-5.7262,-5.7423,0.0,-5.694,-5.6745,-5.7609,-5.7798,-5.8064,-5.8946,-5.9812,-5.9952,-5.8625,-5.9132,-5.941,-5.8525,-5.9157,-5.9648,-5.9433,-5.9218,-5.9101,-5.9097,-5.9096,-5.882,-5.8165,-5.7926,-5.7532,-5.6907,-5.6706,-5.6606,-5.6606,-5.6596,-5.6606,-5.6597,-5.66,-5.6593,-5.6593,-5.6596,-5.6259,-5.5601,-5.5617,-5.4656,-5.3008,-5.2967,-5.2284,-5.119,-5.1155,-5.1039,-5.0903,-5.0961,-5.0941,-5.0872,-5.0893,-5.0882,-5.0874,-5.0874,-5.0869,-5.0863,-5.081,-5.0801,-5.0793,-5.072,-5.0692,-5.0692,-5.0702,-5.0712,-5.0712,-5.0712,-5.0712,-5.0673,-5.0604,-5.0325,-4.9962,-4.9594,-4.9227,-4.8834,-4.8495,-4.8345,-4.7847,-4.6434,-4.603,-4.5424,-4.3993,-4.3608,-4.3515,-4.3513,-4.3513,-4.3549,-4.3566,-4.3566,-4.3566,-4.3566,-4.3751,-4.3883,-4.3897,-4.3961,-4.3974,-4.4005,-4.4005,-4.4005,-4.4005,-4.4005,-4.3596,-4.2797,-4.3429,-4.3503,-4.3095,-4.3708,-4.4005,-5.6507,-5.6819,-5.715,-5.715,-5.7423,-5.7598,-5.7228,-5.6819,-5.6628,-5.71,-5.7201,-5.7579,-5.8829,-5.9761,-6.0043,-5.9106,-5.9366,-5.9395,-5.8513,-5.8139,-5.8241,-5.9003,-5.8417,-5.8101,-5.8479,-5.8165,-5.775,-5.727,-5.725,-5.7055,-5.6626,-5.6606,-5.6606,-5.6606,-5.6606,-5.6596,-5.6593,-5.6601,-5.6597,-5.6593,-5.6186,-5.5751,-5.5292,-5.4898,-5.3974,-5.2695,-5.2695,-5.216,-5.1282,-5.1258,-5.1174,-5.1086,-5.1024,-5.0995,-5.0971,-5.0917,-5.0901,-5.0898,-5.0898,-5.0909,-5.0885,-5.0861,-5.0852,-5.0844,-5.0801,-5.0784,-5.0785,-5.0712,-5.0712,-5.0712,-5.0712,-5.0712,-5.0712,-5.0712,-5.0502,-5.0178,-4.9819,-4.9424,-4.9019,-4.8604,-4.8402,-4.7792,-4.6177,-4.5902,-4.5351,-4.3753,-4.3515,-4.3515,-4.3515,-4.3515,-4.3515,-4.3515,-4.3515,-4.3515,-4.3515,-4.3667,-4.3767,-4.3767,-4.3798,-4.3846,-4.3897,-4.3897,-4.3897,-4.3897,-4.3574,-4.3367,-4.3293,-4.3414,-4.3429,-4.3355,-4.3801,-4.4005,-5.6643,-5.6585,-5.6526,-5.6643,-5.7111,-5.7364,-5.6819,-5.6487,-5.6292,-5.6292,-5.6292,-5.6741,-5.8159,-5.9225,-5.9856,-5.9739,-5.9745,-5.9505,-5.8744,-5.7423,-5.7059,-5.8472,-5.74,-5.6811,-5.7495,-5.6972,-5.6606,-5.6606,-5.6606,-5.6606,-5.6606,-5.6606,-5.6606,-5.6606,-5.6469,-5.6403,-5.64,-5.6405,-5.6405,-5.6399,-5.5526,-5.5033,-5.4886,-5.4143,-5.3333,-5.25,-5.2499,-5.2087,-5.1396,-5.1335,-5.1307,-5.1275,-5.1097,-5.103,-5.1063,-5.0937,-5.0905,-5.089,-5.0898,-5.0898,-5.0898,-5.0898,-5.0898,-5.089,-5.0897,-5.0899,-5.0874,-5.075,-5.0712,-5.0712,-5.0702,-5.0702,-5.0702,-5.0702,-5.0594,-5.0407,-5.0056,-4.9664,-4.9234,-4.8717,-4.8384,-4.7684,-4.6012,-4.5718,-4.5204,-4.3735,-4.3515,-4.3515,-4.3515,-4.3515,-4.3515,-4.3515,-4.3515,-4.3515,-4.3515,-4.3548,-4.3582,-4.3582,-4.3599,-4.3667,-4.3788,-4.3804,-4.3804,-4.3804,-4.3201,-4.323,-4.3897,-4.3271,-4.3336,-4.4005,-4.4005,-4.4005,-5.7325,-5.7013,-5.6663,-5.7345,-5.7111,-5.6838,-5.7384,-5.6425,-5.5392,-5.5392,-5.5392,-5.5489,-5.5743,-5.7057,-5.7879,-5.7197,-5.6991,-5.685,-5.6601,-5.6333,-5.6278,-5.6525,-5.6431,-5.6395,-5.6527,-5.6578,-5.6606,-5.6606,-5.6606,-5.6606,-5.6606,-5.6606,-5.6606,-5.6606,-5.5884,-5.5492,-5.5507,-5.5508,-5.5507,-5.5485,-5.4616,-5.3815,-5.3082,-5.2962,-5.2418,-5.1601,-5.1601,-5.1522,-5.1397,-5.1387,-5.1316,-5.1203,-5.1113,-5.103,-5.0935,-5.0921,-5.0908,-5.0897,-5.0909,-5.0898,-5.0898,-5.0898,-5.0898,-5.089,-5.0897,-5.0899,-5.0891,-5.0812,-5.0775,-5.0766,-5.0701,-5.0711,-5.0711,-5.0711,-5.0595,-5.0407,-5.0056,-4.9865,-4.9334,-4.8038,-4.7742,-4.7104,-4.5203,-4.4892,-4.458,-4.3626,-4.3515,-4.3515,-4.3515,-4.3515,-4.3515,-4.3515,-4.3515,-4.3515,-4.3515,-4.3515,-4.3532,-4.3532,-4.3686,-4.3788,-4.3804,-4.3804,-4.3804,-4.3804,-4.3738,-4.3786,-4.3897,-4.3828,-4.3875,-4.4005,-4.4005,-4.4005,-5.6819,-5.7111,-5.7345,-5.8183,-5.8124,-5.7812,-5.7715,-5.7477,-5.7009,-5.6093,-5.5899,-5.6002,-5.6388,-5.7067,-5.7439,-5.6996,-5.6498,-5.6123,-5.609,-5.6104,-5.6097,-5.6097,-5.6152,-5.6212,-5.6284,-5.6383,-5.6478,-5.6584,-5.6606,-5.6391,-5.5923,-5.5903,-5.5689,-5.522,-5.481,-5.4594,-5.4609,-5.4121,-5.4121,-5.458,-5.3715,-5.3094,-5.2673,-5.2204,-5.1776,-5.1406,-5.1406,-5.1404,-5.1398,-5.1393,-5.1353,-5.1291,-5.1108,-5.1022,-5.0985,-5.0882,-5.0863,-5.0899,-5.0905,-5.0901,-5.0898,-5.0898,-5.0898,-5.0898,-5.0901,-5.0893,-5.0885,-5.0863,-5.0838,-5.0784,-5.071,-5.0701,-5.0692,-5.0712,-5.0604,-5.0281,-4.9484,-4.9213,-4.8758,-4.7423,-4.7055,-4.652,-4.5203,-4.4813,-4.4433,-4.3608,-4.3515,-4.3515,-4.3515,-4.3515,-4.3515,-4.3515,-4.3515,-4.3515,-4.3515,-4.3515,-4.3515,-4.3515,-4.3583,-4.3652,-4.3652,-4.3652,-4.3652,-4.3652,-4.3701,-4.3767,-4.3853,-4.3913,-4.3945,-4.3961,-4.3974,-4.3958,-5.6253,-5.6799,-5.736,-5.8431,-5.8704,-5.8568,-5.81,-5.8061,-5.7749,-5.6464,-5.6191,-5.6407,-5.712,-5.7398,-5.7398,-5.7052,-5.6412,-5.5959,-5.5971,-5.6005,-5.6013,-5.6013,-5.6022,-5.6091,-5.6211,-5.6086,-5.6083,-5.6233,-5.6092,-5.5708,-5.5025,-5.5005,-5.4693,-5.4029,-5.3799,-5.3698,-5.3691,-5.2831,-5.2831,-5.3695,-5.2818,-5.2394,-5.2362,-5.1698,-5.1406,-5.1406,-5.1406,-5.1404,-5.1398,-5.1394,-5.1405,-5.1386,-5.1141,-5.105,-5.1029,-5.0847,-5.0829,-5.0891,-5.0899,-5.0897,-5.0909,-5.0898,-5.0898,-5.0898,-5.0898,-5.0898,-5.089,-5.0888,-5.0855,-5.0801,-5.0729,-5.071,-5.0711,-5.0693,-5.048,-4.998,-4.9022,-4.8623,-4.8067,-4.6873,-4.6461,-4.6053,-4.5152,-4.4737,-4.4335,-4.3708,-4.3548,-4.3515,-4.3515,-4.3515,-4.3515,-4.3515,-4.3515,-4.3515,-4.3515,-4.3515,-4.3515,-4.3515,-4.3515,-4.3515,-4.3515,-4.3515,-4.3515,-4.3515,-4.3565,-4.3651,-4.3753,-4.3835,-4.3883,-4.3883,-4.3929,-4.3915,-5.6253,-5.5957,-5.5762,-5.7379,-5.7793,-5.7988,-5.8743,-5.7126,-5.5446,-5.531,-5.529,-5.5563,-5.6401,-5.7075,-5.719,-5.6257,-5.5938,-5.5769,-5.5654,-5.5686,-5.5737,-5.5737,-5.5845,-5.5913,-5.593,-5.5485,-5.5197,-5.5201,-5.4566,-5.4166,-5.4108,-5.4088,-5.4068,-5.401,-5.3227,-5.2787,-5.2791,-5.1933,-5.1931,-5.2785,-5.191,-5.1483,-5.1484,-5.1426,-5.1406,-5.1406,-5.1406,-5.1405,-5.1398,-5.1398,-5.139,-5.139,-5.1245,-5.1072,-5.0908,-5.0763,-5.0757,-5.0829,-5.0891,-5.0899,-5.0888,-5.0909,-5.0898,-5.0898,-5.0898,-5.0898,-5.089,-5.0888,-5.0899,-5.0883,-5.0801,-5.0757,-5.0701,-5.0692,-5.0067,-4.9423,-4.9207,-4.8532,-4.7592,-4.6379,-4.614,-4.5772,-4.4655,-4.4226,-4.4013,-4.3974,-4.3699,-4.3515,-4.3515,-4.3515,-4.3515,-4.3515,-4.3515,-4.3515,-4.3515,-4.3515,-4.3515,-4.3515,-4.3515,-4.3515,-4.3515,-4.3515,-4.3515,-4.3515,-4.3565,-4.3599,-4.3599,-4.3736,-4.3804,-4.3804,-4.382,-4.3804,-5.545,-5.6145,-5.6672,-5.6898,-5.7279,-5.767,-5.8106,-5.7866,-5.7418,-5.6873,-5.6685,-5.6492,-5.6036,-5.6521,-5.6711,-5.5791,-5.5624,-5.561,-5.5596,-5.5671,-5.5703,-5.5703,-5.5738,-5.5605,-5.5191,-5.497,-5.4704,-5.4312,-5.404,-5.3682,-5.3229,-5.319,-5.2936,-5.2409,-5.2065,-5.1882,-5.1892,-5.1561,-5.1562,-5.1891,-5.156,-5.1405,-5.1406,-5.1406,-5.1406,-5.1406,-5.1406,-5.1406,-5.1402,-5.1399,-5.1394,-5.138,-5.1258,-5.1086,-5.089,-5.0839,-5.0791,-5.0729,-5.0766,-5.0829,-5.0899,-5.0897,-5.0901,-5.0898,-5.0893,-5.0905,-5.0897,-5.0855,-5.0821,-5.0775,-5.0738,-5.0344,-4.9941,-4.9894,-4.923,-4.8414,-4.7778,-4.7394,-4.6854,-4.5802,-4.5432,-4.5155,-4.472,-4.443,-4.4192,-4.4036,-4.3894,-4.3732,-4.3532,-4.3515,-4.3515,-4.3515,-4.3515,-4.3515,-4.3515,-4.3515,-4.3515,-4.3515,-4.3515,-4.3515,-4.3515,-4.3515,-4.3515,-4.3515,-4.3513,-4.3548,-4.3599,-4.3651,-4.3667,-4.3667,-4.3753,-4.3719,-5.4933,-5.5629,-5.6213,-5.6288,-5.6259,-5.6375,-5.6988,-5.7688,-5.8009,-5.7276,-5.7509,-5.7374,-5.5962,-5.6516,-5.6824,-5.5657,-5.5485,-5.5516,-5.5562,-5.5429,-5.5318,-5.5318,-5.5068,-5.4726,-5.4272,-5.4014,-5.373,-5.3346,-5.3119,-5.2779,-5.231,-5.2292,-5.2019,-5.1414,-5.1403,-5.1394,-5.1403,-5.1404,-5.1406,-5.1405,-5.1405,-5.1406,-5.1406,-5.1406,-5.1406,-5.1406,-5.1406,-5.1406,-5.1405,-5.1402,-5.1397,-5.1385,-5.1239,-5.1083,-5.0923,-5.091,-5.0816,-5.0702,-5.0692,-5.0775,-5.0863,-5.0899,-5.0897,-5.0893,-5.0908,-5.0891,-5.0855,-5.0784,-5.0748,-5.0643,-5.0393,-4.9911,-4.9421,-4.9095,-4.8401,-4.7594,-4.6887,-4.6532,-4.6138,-4.5443,-4.5319,-4.5337,-4.5337,-4.5338,-4.5194,-4.4724,-4.4588,-4.4312,-4.3718,-4.3649,-4.3615,-4.3515,-4.3515,-4.3515,-4.3515,-4.3515,-4.3515,-4.3515,-4.3515,-4.3515,-4.3515,-4.3515,-4.3515,-4.3515,-4.3515,-4.3513,-4.3565,-4.3565,-4.3565,-4.3565,-4.3669,-4.3617,-5.4912,-5.4163,-5.3807,-5.5462,-5.4639,-5.3846,-5.55,-5.6201,-5.6388,-5.5982,-5.7265,-5.794,-5.6205,-5.7207,-5.7674,-5.5887,-5.5527,-5.5485,-5.5485,-5.4916,-5.4491,-5.4491,-5.3722,-5.3203,-5.3203,-5.2527,-5.214,-5.2291,-5.1614,-5.1255,-5.1392,-5.1394,-5.1394,-5.1394,-5.1398,-5.1403,-5.1398,-5.1406,-5.1405,-5.1406,-5.1406,-5.1406,-5.1406,-5.1406,-5.1406,-5.1406,-5.1406,-5.1406,-5.1405,-5.1405,-5.14,-5.1385,-5.1242,-5.1128,-5.099,-5.0935,-5.0827,-5.0702,-5.0702,-5.0738,-5.081,-5.0883,-5.0899,-5.0899,-5.0899,-5.0855,-5.0784,-5.071,-5.0701,-5.0508,-4.9699,-4.9488,-4.9256,-4.8381,-4.7621,-4.702,-4.6819,-4.6146,-4.5541,-4.5348,-4.5946,-4.65,-4.65,-4.6994,-4.71,-4.6228,-4.5881,-4.5273,-4.4144,-4.4005,-4.3878,-4.3549,-4.3515,-4.3515,-4.3515,-4.3515,-4.3515,-4.3515,-4.3515,-4.3515,-4.3515,-4.3515,-4.3515,-4.3515,-4.3515,-4.3515,-4.3515,-4.3515,-4.3515,-4.3515,-4.3515,-4.3515,-5.5112,-5.4557,-5.4255,-5.4909,-5.458,-5.4227,-5.4669,-5.5453,-5.6005,-5.5741,-5.6106,-5.6277,-5.5669,-5.5933,-5.5878,-5.4724,-5.4606,-5.445,-5.3836,-5.3648,-5.3587,-5.3587,-5.3356,-5.2972,-5.2346,-5.2098,-5.1799,-5.1411,-5.1173,-5.1155,-5.139,-5.1394,-5.1394,-5.1394,-5.1409,-5.1396,-5.1398,-5.1405,-5.1406,-5.1406,-5.1406,-5.1406,-5.1406,-5.1406,-5.1406,-5.1406,-5.1406,-5.1406,-5.1406,-5.1403,-5.1397,-5.1408,-5.1364,-5.1255,-5.1128,-5.1016,-5.0916,-5.0836,-5.074,-5.0702,-5.0729,-5.0757,-5.0784,-5.081,-5.0775,-5.0757,-5.073,-5.0702,-5.0288,-4.9661,-4.8813,-4.8202,-4.7734,-4.7439,-4.6765,-4.6136,-4.5984,-4.5808,-4.5618,-4.5419,-4.606,-4.6604,-4.6511,-4.6655,-4.661,-4.6177,-4.5496,-4.4807,-4.4101,-4.4005,-4.3878,-4.3549,-4.3515,-4.3515,-4.3515,-4.3515,-4.3515,-4.3515,-4.3515,-4.3515,-4.3515,-4.3515,-4.3515,-4.3515,-4.3515,-4.3515,-4.3515,-4.3515,-4.3515,-4.3515,-4.3515,-4.3515,-5.5854,-5.5335,-5.4861,-5.4948,-5.4906,-5.4817,-5.4752,-5.5237,-5.5679,-5.5618,-5.5822,-5.5911,-5.5467,-5.5677,-5.5619,-5.4753,-5.4432,-5.4112,-5.3587,-5.3033,-5.2673,-5.2673,-5.2395,-5.1991,-5.1471,-5.1414,-5.1303,-5.1023,-5.1002,-5.1123,-5.139,-5.1394,-5.1394,-5.1394,-5.1408,-5.1395,-5.1398,-5.1404,-5.1406,-5.1406,-5.1406,-5.1406,-5.1406,-5.1406,-5.1406,-5.1406,-5.1406,-5.1406,-5.1406,-5.1402,-5.1396,-5.1393,-5.14,-5.1325,-5.1172,-5.1047,-5.0959,-5.089,-5.074,-5.0702,-5.0701,-5.0701,-5.072,-5.0747,-5.071,-5.0702,-5.0635,-5.0317,-4.9864,-4.9227,-4.8058,-4.7433,-4.7001,-4.6611,-4.614,-4.5769,-4.5665,-4.5665,-4.5748,-4.588,-4.6608,-4.7143,-4.7027,-4.7302,-4.7239,-4.6397,-4.5442,-4.4808,-4.4843,-4.4341,-4.3926,-4.3716,-4.3582,-4.3515,-4.3515,-4.3515,-4.3515,-4.3515,-4.3515,-4.3515,-4.3515,-4.3515,-4.3515,-4.3515,-4.3515,-4.3515,-4.3515,-4.3515,-4.3515,-4.3515,-4.3515,-4.3515,-5.681,-5.6203,-5.5408,-5.5486,-5.5504,-5.5472,-5.5416,-5.5403,-5.5428,-5.555,-5.6122,-5.634,-5.5549,-5.6046,-5.6301,-5.5422,-5.4661,-5.415,-5.4074,-5.2754,-5.1788,-5.1788,-5.1144,-5.0712,-5.0712,-5.0712,-5.0782,-5.0985,-5.0996,-5.1099,-5.1364,-5.1392,-5.1394,-5.1394,-5.1391,-5.1398,-5.1398,-5.1405,-5.1406,-5.1406,-5.1406,-5.1406,-5.1406,-5.1406,-5.1406,-5.1406,-5.1406,-5.1406,-5.1406,-5.1402,-5.1398,-5.1397,-5.1402,-5.1327,-5.1203,-5.1053,-5.0972,-5.0887,-5.0749,-5.0702,-5.0692,-5.0692,-5.0692,-5.0692,-5.0692,-5.0702,-5.0529,-4.972,-4.9449,-4.9052,-4.7507,-4.7028,-4.6785,-4.5981,-4.5798,-4.5786,-4.5712,-4.5715,-4.5918,-4.659,-4.7366,-4.789,-4.7821,-4.8449,-4.8391,-4.6653,-4.551,-4.5109,-4.5886,-4.4857,-4.4048,-4.4005,-4.3732,-4.3531,-4.3496,-4.3515,-4.3515,-4.3515,-4.3515,-4.3515,-4.3515,-4.3515,-4.3515,-4.3515,-4.3515,-4.3515,-4.3515,-4.3515,-4.3515,-4.3515,-4.3515,-4.3515,-5.686,-5.5813,-5.4788,-5.6165,-5.595,-5.5416,-5.5403,-5.5403,-5.5416,-5.544,-5.5568,-5.5626,-5.5441,-5.5549,-5.5396,-5.4524,-5.3755,-5.305,-5.2349,-5.1516,-5.0952,-5.0952,-5.0808,-5.0712,-5.0712,-5.0712,-5.0748,-5.0905,-5.0966,-5.1069,-5.1222,-5.1335,-5.1394,-5.1394,-5.1391,-5.1398,-5.1398,-5.1405,-5.1406,-5.1406,-5.1406,-5.1406,-5.1406,-5.1406,-5.1406,-5.1406,-5.1406,-5.1406,-5.1406,-5.1402,-5.1398,-5.1397,-5.1402,-5.1388,-5.1327,-5.1084,-5.099,-5.0946,-5.0756,-5.0693,-5.0702,-5.0702,-5.0702,-5.0702,-5.0702,-5.0702,-5.0529,-4.972,-4.9043,-4.8334,-4.7341,-4.6595,-4.6025,-4.5831,-4.58,-4.58,-4.5786,-4.5778,-4.5993,-4.6707,-4.751,-4.801,-4.7897,-4.7985,-4.7513,-4.5812,-4.535,-4.5174,-4.509,-4.4833,-4.4471,-4.4033,-4.3942,-4.3798,-4.3513,-4.3515,-4.3515,-4.3515,-4.3515,-4.3515,-4.3515,-4.3515,-4.3515,-4.3515,-4.3515,-4.3515,-4.3515,-4.3515,-4.3515,-4.3515,-4.3515,-4.3515,-5.6657,-5.6297,-5.5756,-5.7095,-5.6403,-5.5403,-5.5403,-5.5403,-5.5403,-5.5403,-5.5403,-5.5403,-5.5403,-5.5059,-5.4639,-5.418,-5.3142,-5.2226,-5.1754,-5.1113,-5.0712,-5.0712,-5.0712,-5.0712,-5.0712,-5.0712,-5.0758,-5.0879,-5.0953,-5.1058,-5.1195,-5.1327,-5.1394,-5.1394,-5.1391,-5.1398,-5.1398,-5.1405,-5.1406,-5.1406,-5.1406,-5.1406,-5.1406,-5.1406,-5.1406,-5.1406,-5.1406,-5.1406,-5.1406,-5.1404,-5.1401,-5.1397,-5.1407,-5.1398,-5.1386,-5.1163,-5.1053,-5.0978,-5.0847,-5.0749,-5.0712,-5.0712,-5.0712,-5.0712,-5.0712,-5.0712,-5.0452,-4.9265,-4.8626,-4.8023,-4.6793,-4.6134,-4.5807,-4.5807,-4.5807,-4.5807,-4.5807,-4.5807,-4.6023,-4.6802,-4.7292,-4.7509,-4.7346,-4.6917,-4.6443,-4.5946,-4.5545,-4.5369,-4.559,-4.5138,-4.4637,-4.4236,-4.4079,-4.3862,-4.3513,-4.3515,-4.3515,-4.3515,-4.3515,-4.3515,-4.3515,-4.3515,-4.3515,-4.3515,-4.3515,-4.3515,-4.3515,-4.3515,-4.3515,-4.3515,-4.3515,-4.3515,-5.6011,-5.6731,-5.6973,-5.767,-5.6741,-5.5588,-5.5441,-5.5403,-5.5365,-5.5212,-5.5307,-5.5345,-5.5212,-5.46,-5.4046,-5.3894,-5.2652,-5.1705,-5.1697,-5.1102,-5.0702,-5.0712,-5.0712,-5.0712,-5.0712,-5.0712,-5.0758,-5.0879,-5.0953,-5.1058,-5.1195,-5.1327,-5.1396,-5.14,-5.1393,-5.1399,-5.1401,-5.1406,-5.1406,-5.1406,-5.1406,-5.1406,-5.1406,-5.1406,-5.1406,-5.1406,-5.1406,-5.1406,-5.1406,-5.1405,-5.1402,-5.1397,-5.1393,-5.1403,-5.1388,-5.1252,-5.1123,-5.0984,-5.0928,-5.0819,-5.0712,-5.0712,-5.0712,-5.0712,-5.0712,-5.0596,-5.0202,-4.8714,-4.8208,-4.775,-4.6211,-4.5807,-4.5807,-4.5807,-4.5807,-4.5807,-4.5807,-4.5807,-4.603,-4.6854,-4.6987,-4.6891,-4.6704,-4.5913,-4.5526,-4.6194,-4.5831,-4.5698,-4.6233,-4.5578,-4.4921,-4.4443,-4.4192,-4.3908,-4.3531,-4.3515,-4.3515,-4.3515,-4.3515,-4.3515,-4.3515,-4.3515,-4.3515,-4.3515,-4.3515,-4.3515,-4.3515,-4.3515,-4.3515,-4.3515,-4.3515,-4.3515,-5.4351,-5.5756,-5.6808,-5.6862,-5.6722,-5.634,-5.5568,-5.5403,-5.5193,-5.4428,-5.4868,-5.5174,-5.4409,-5.418,-5.3855,-5.3091,-5.2253,-5.171,-5.1697,-5.1071,-5.0633,-5.0683,-5.0712,-5.0712,-5.0712,-5.0712,-5.0758,-5.0879,-5.0953,-5.1058,-5.1195,-5.1327,-5.1402,-5.1396,-5.1397,-5.1402,-5.1406,-5.1406,-5.1406,-5.1406,-5.1406,-5.1406,-5.1406,-5.1406,-5.1406,-5.1406,-5.1406,-5.1406,-5.1406,-5.1405,-5.1402,-5.1397,-5.1393,-5.1403,-5.1388,-5.1252,-5.1123,-5.0984,-5.0928,-5.0819,-5.0712,-5.0712,-5.0712,-5.0712,-5.0712,-5.0211,-4.9468,-4.8549,-4.78,-4.7028,-4.6044,-4.5807,-4.5807,-4.5807,-4.5807,-4.5807,-4.5807,-4.5807,-4.6063,-4.6913,-4.6955,-4.6753,-4.6572,-4.5842,-4.5345,-4.543,-4.5965,-4.6137,-4.5545,-4.5944,-4.5791,-4.4527,-4.4374,-4.4114,-4.3548,-4.3515,-4.3515,-4.3515,-4.3515,-4.3515,-4.3515,-4.3515,-4.3515,-4.3515,-4.3515,-4.3515,-4.3515,-4.3515,-4.3515,-4.3515,-4.3515,-4.3515,-5.3348,-5.4869,-5.6165,-5.6588,-5.632,-5.5995,-5.6065,-5.5728,-5.5154,-5.4276,-5.4409,-5.4409,-5.3531,-5.2996,-5.2575,-5.2193,-5.1476,-5.099,-5.1026,-5.0773,-5.0623,-5.0683,-5.0712,-5.0712,-5.0712,-5.0712,-5.0758,-5.0879,-5.0953,-5.1058,-5.1195,-5.1327,-5.1403,-5.1398,-5.1401,-5.1405,-5.1406,-5.1406,-5.1406,-5.1406,-5.1406,-5.1406,-5.1406,-5.1406,-5.1406,-5.1406,-5.1406,-5.1406,-5.1406,-5.1406,-5.1404,-5.1398,-5.1396,-5.1408,-5.1392,-5.133,-5.1187,-5.0996,-5.0979,-5.0835,-5.0712,-5.0712,-5.0712,-5.0712,-5.0712,-5.0144,-4.9323,-4.8538,-4.773,-4.6901,-4.6025,-4.5807,-4.5807,-4.5807,-4.5807,-4.5807,-4.5807,-4.5807,-4.5902,-4.6241,-4.6142,-4.5985,-4.5897,-4.5548,-4.5449,-4.5908,-4.6271,-4.6366,-4.6023,-4.629,-4.6024,-4.4757,-4.4493,-4.4231,-4.383,-4.3599,-4.3515,-4.3515,-4.3515,-4.3515,-4.3515,-4.3515,-4.3515,-4.3515,-4.3515,-4.3515,-4.3515,-4.3515,-4.3515,-4.3515,-4.3515,-4.3515,-5.2582,-5.3904,-5.509,-5.5848,-5.5721,-5.5581,-5.6161,-5.5823,-5.5097,-5.3989,-5.376,-5.3435,-5.2365,-5.1868,-5.1544,-5.1314,-5.0776,-5.0393,-5.0489,-5.0532,-5.0603,-5.0683,-5.0712,-5.0712,-5.0712,-5.0712,-5.0757,-5.092,-5.0972,-5.1069,-5.1245,-5.1355,-5.1405,-5.1402,-5.1403,-5.1405,-5.1406,-5.1405,-5.1386,-5.1365,-5.1386,-5.1406,-5.1406,-5.1406,-5.1406,-5.1406,-5.1406,-5.1406,-5.1406,-5.1406,-5.1405,-5.1398,-5.1398,-5.139,-5.1394,-5.1394,-5.1252,-5.1047,-5.1014,-5.0882,-5.0759,-5.0702,-5.0558,-5.0366,-5.0366,-4.9817,-4.9006,-4.8174,-4.7521,-4.6885,-4.601,-4.5793,-4.5793,-4.5793,-4.58,-4.5807,-4.5807,-4.5807,-4.5778,-4.5692,-4.5538,-4.541,-4.5351,-4.5319,-4.5485,-4.6077,-4.6547,-4.6691,-4.6252,-4.6577,-4.6317,-4.4957,-4.4624,-4.436,-4.4036,-4.3781,-4.3582,-4.3515,-4.3515,-4.3515,-4.3515,-4.3515,-4.3515,-4.3515,-4.3515,-4.3515,-4.3515,-4.3515,-4.3515,-4.3515,-4.3515,-4.3515,-5.1962,-5.272,-5.3472,-5.4075,-5.4873,-5.5491,-5.5473,-5.5441,-5.4925,-5.3225,-5.2862,-5.2365,-5.0722,-5.1066,-5.1322,-5.0512,-5.0321,-5.0348,-5.0489,-5.05,-5.0553,-5.0673,-5.0712,-5.0712,-5.0712,-5.0712,-5.0791,-5.0978,-5.1002,-5.1103,-5.1386,-5.1392,-5.1391,-5.1406,-5.1403,-5.1405,-5.1399,-5.1405,-5.1364,-5.132,-5.1364,-5.1406,-5.1406,-5.1406,-5.1406,-5.1406,-5.1406,-5.1406,-5.1406,-5.1406,-5.1405,-5.1398,-5.1398,-5.139,-5.1394,-5.1394,-5.1302,-5.1163,-5.1042,-5.0952,-5.0874,-5.073,-5.0144,-4.9471,-4.9471,-4.8912,-4.8092,-4.7225,-4.699,-4.6827,-4.6012,-4.5807,-4.5807,-4.5807,-4.5798,-4.5807,-4.5807,-4.5807,-4.5764,-4.5637,-4.5559,-4.5438,-4.5246,-4.5203,-4.5222,-4.526,-4.6678,-4.7169,-4.5564,-4.6748,-4.6973,-4.5014,-4.4776,-4.4578,-4.4033,-4.3989,-4.3846,-4.3513,-4.3515,-4.3515,-4.3515,-4.3515,-4.3515,-4.3515,-4.3515,-4.3515,-4.3515,-4.3515,-4.3515,-4.3515,-4.3515,-4.3515,-5.1393,-5.1871,-5.2491,-5.3259,-5.3606,-5.3912,-5.4428,-5.4123,-5.3416,-5.227,-5.204,-5.1677,-5.0512,-5.0569,-5.0665,-5.0359,-5.0302,-5.0348,-5.0489,-5.05,-5.0542,-5.0673,-5.0712,-5.0712,-5.0712,-5.0712,-5.0771,-5.0984,-5.1002,-5.1123,-5.139,-5.1394,-5.1391,-5.1406,-5.1405,-5.1406,-5.1403,-5.1406,-5.1386,-5.1363,-5.1386,-5.1406,-5.1406,-5.1406,-5.1406,-5.1406,-5.1406,-5.1406,-5.1406,-5.1406,-5.1406,-5.1402,-5.1399,-5.1394,-5.1403,-5.1396,-5.1322,-5.1191,-5.1047,-5.0959,-5.0882,-5.074,-5.0106,-4.9394,-4.9394,-4.8441,-4.7418,-4.7649,-4.7375,-4.7061,-4.7336,-4.7394,-4.7394,-4.7394,-4.741,-4.7399,-4.7399,-4.7339,-4.7244,-4.7108,-4.6579,-4.6113,-4.5989,-4.6008,-4.6031,-4.6031,-4.7518,-4.8009,-4.629,-4.7092,-4.7117,-4.5311,-4.4934,-4.4714,-4.4538,-4.436,-4.4132,-4.3846,-4.383,-4.3732,-4.3515,-4.3515,-4.3515,-4.3515,-4.3515,-4.3515,-4.3515,-4.3515,-4.3515,-4.3515,-4.3515,-4.3515,-5.1111,-5.133,-5.1756,-5.255,-5.2611,-5.2694,-5.3575,-5.3267,-5.2575,-5.1773,-5.1589,-5.1322,-5.0455,-5.0302,-5.0302,-5.0302,-5.0302,-5.0444,-5.0873,-5.0952,-5.109,-5.1481,-5.1279,-5.1106,-5.1106,-5.0856,-5.0771,-5.0984,-5.1002,-5.1123,-5.139,-5.139,-5.1405,-5.1404,-5.1406,-5.1386,-5.138,-5.1386,-5.1386,-5.1363,-5.1386,-5.1406,-5.1406,-5.1406,-5.1406,-5.1406,-5.1406,-5.1406,-5.1406,-5.1406,-5.1406,-5.1404,-5.14,-5.1395,-5.1408,-5.1398,-5.1335,-5.1245,-5.1058,-5.0966,-5.0913,-5.0758,-5.0106,-4.9394,-4.9394,-4.8412,-4.7419,-4.7997,-4.7784,-4.7501,-4.8116,-4.8279,-4.8279,-4.8296,-4.8482,-4.8677,-4.8694,-4.8418,-4.8143,-4.7991,-4.7451,-4.6963,-4.6855,-4.6866,-4.6896,-4.6866,-4.7865,-4.8102,-4.668,-4.7005,-4.6825,-4.5449,-4.5098,-4.4934,-4.48,-4.4637,-4.443,-4.4151,-4.4048,-4.391,-4.3682,-4.3548,-4.3515,-4.3515,-4.3515,-4.3515,-4.3515,-4.3515,-4.3515,-4.3515,-4.3515,-4.3515,0.0,0.0,0.0,-5.1912,-5.1931,-5.1991,-5.2846,-5.2866,-5.2511,-5.1728,-5.1563,-5.1314,-5.0455,-5.0302,-5.0302,-5.0302,-5.0321,-5.0673,-5.1659,-5.1815,-5.2165,-5.3086,-5.2442,-5.1942,-5.1942,-5.1202,-5.0829,-5.1023,-5.1002,-5.1123,-5.139,-5.1406,-5.139,-5.1408,-5.1406,-5.136,-5.1299,-5.1364,-5.1364,-5.1299,-5.1364,-5.1406,-5.1406,-5.1406,-5.1406,-5.1406,-5.1406,-5.1406,-5.1406,-5.1406,-5.1406,-5.1404,-5.14,-5.1395,-5.1408,-5.1398,-5.1394,-5.1362,-5.1108,-5.1008,-5.0959,-5.0764,-5.0115,-4.9394,-4.9394,-4.8798,-4.8105,-4.8125,-4.8144,-4.8153,-4.8256,-4.8265,-4.8293,-4.8356,-4.892,-4.9471,-4.9508,-4.8917,-4.8328,-4.8192,-4.8097,-4.7979,-4.7762,-4.7747,-4.7705,-4.7608,-4.7712,-4.7465,-4.6604,-4.6538,-4.6214,-4.5403,-4.5307,-4.5173,-4.4843,-4.48,-4.4701,-4.4425,-4.4181,-4.402,-4.4005,-4.3682,-4.3515,-4.3515,-4.3515,-4.3515,-4.3515,-4.3515,-4.3515,-4.3515,-4.3515,-4.3515,-5.1335,0.0,0.0,0.0,0.0,0.0,-5.1374,-5.1318,-5.1149,-5.0919,-5.0771,-5.0588,-5.034,-5.0302,-5.0302,-5.0302,-5.0837,-5.1357,-5.1679,-5.2261,-5.2776,-5.3091,-5.296,-5.2817,-5.2775,-5.2037,-5.1652,-5.1852,-5.134,-5.1123,-5.139,-5.1391,-5.1396,-5.1409,-5.1406,-5.1385,-5.1365,-5.1386,-5.1386,-5.1365,-5.1386,-5.1406,-5.1406,-5.1406,-5.1406,-5.1406,-5.1406,-5.1406,-5.1406,-5.1406,-5.1406,-5.1406,-5.1402,-5.1397,-5.1395,-5.14,-5.1394,-5.1386,-5.1203,-5.1074,-5.0978,-5.0875,-5.0188,-4.9394,-4.9394,-4.8798,-4.824,-4.8856,-4.9048,-4.9183,-4.9836,-5.001,-5.0019,-5.0028,-5.0183,-5.0346,-5.0356,-5.0202,-5.0,-4.9853,-4.9314,-4.8811,-4.8659,-4.8681,-4.8512,-4.7898,-4.8898,-4.8969,-4.6851,-4.7119,-4.6936,-4.546,-4.5307,-4.5256,-4.5173,-4.5162,-4.5023,-4.4701,-4.4612,-4.4402,-4.402,-4.391,-4.3749,-4.3496,-4.3515,-4.3515,-4.3515,-4.3515,-4.3515,-4.3515,-4.3515,-4.3515,-5.1397,-5.1308,-5.1225,-5.1181,0.0,0.0,-5.0932,-5.0805,-5.0671,-5.0606,-5.0506,-5.0407,-5.0314,-5.0302,-5.0302,-5.0302,-5.1028,-5.1739,-5.2135,-5.2978,-5.3686,-5.4106,-5.3911,-5.3731,-5.3689,-5.2932,-5.2385,-5.2246,-5.1806,-5.1493,-5.141,-5.1394,-5.1398,-5.1394,-5.1406,-5.1406,-5.1406,-5.1406,-5.1406,-5.1406,-5.1406,-5.1406,-5.1406,-5.1406,-5.1406,-5.1406,-5.1406,-5.1406,-5.1406,-5.1406,-5.1406,-5.1406,-5.1402,-5.1398,-5.1397,-5.1402,-5.1394,-5.1367,-5.1172,-5.1063,-5.0972,-5.0863,-5.042,-4.9933,-4.9933,-4.9336,-4.8817,-4.9702,-4.9933,-5.0048,-5.0577,-5.0712,-5.0712,-5.0712,-5.0712,-5.0712,-5.0712,-5.0712,-5.0673,-5.0603,-5.017,-4.9775,-4.9658,-4.9669,-4.9507,-4.9026,-4.9507,-4.9365,-4.7829,-4.7484,-4.6966,-4.5918,-4.5488,-4.5307,-4.5307,-4.5307,-4.5224,-4.5023,-4.4879,-4.465,-4.4351,-4.4106,-4.391,-4.3716,-4.3565,-4.3515,-4.3515,-4.3515,-4.3515,-4.3515,-4.3515,-4.3515,-5.1391,-5.1403,-5.1391,-5.1323,-5.1215,0.0,-5.1134,-5.0979,-5.079,-5.068,-5.0644,-5.0567,-5.0388,-5.034,-5.0317,-5.0317,-5.104,-5.1911,-5.2774,-5.3706,-5.4607,-5.5489,-5.5102,-5.4769,-5.4769,-5.3905,-5.3145,-5.2615,-5.2335,-5.1974,-5.1429,-5.1405,-5.1393,-5.1398,-5.1405,-5.1406,-5.1406,-5.1406,-5.1406,-5.1406,-5.1406,-5.1406,-5.1406,-5.1406,-5.1406,-5.1406,-5.1406,-5.1406,-5.1406,-5.1406,-5.1406,-5.1406,-5.1402,-5.1398,-5.1397,-5.1402,-5.1394,-5.1362,-5.1118,-5.1014,-5.0966,-5.0782,-5.0712,-5.0712,-5.0712,-5.0164,-4.9702,-5.0481,-5.0712,-5.0712,-5.0712,-5.0712,-5.0712,-5.0712,-5.0712,-5.0712,-5.0712,-5.0712,-5.0712,-5.0712,-5.0712,-5.0663,-5.0542,-5.0521,-5.05,-5.0446,-4.9765,-4.9228,-4.9111,-4.7809,-4.6793,-4.6519,-4.587,-4.5403,-4.5307,-4.5307,-4.5307,-4.5307,-4.5023,-4.4843,-4.4788,-4.4332,-4.4064,-4.4005,-4.3666,-4.3515,-4.3515,-4.3515,-4.3515,-4.3515,-4.3515,-4.3515,-5.1391,-5.14,-5.1406,-5.1381,-5.1352,0.0,-5.133,-5.12,-5.1025,-5.1005,-5.0874,-5.0753,-5.072,-5.0605,-5.0546,-5.0546,-5.1135,-5.1888,-5.2695,-5.3635,-5.4537,-5.542,-5.6065,-5.6425,-5.6425,-5.5151,-5.4297,-5.4238,-5.2572,-5.1525,-5.1412,-5.1405,-5.1393,-5.1398,-5.1405,-5.1406,-5.1406,-5.1406,-5.1406,-5.1406,-5.1406,-5.1406,-5.1406,-5.1406,-5.1406,-5.1406,-5.1406,-5.1406,-5.1406,-5.1406,-5.1406,-5.1406,-5.1402,-5.1398,-5.1397,-5.1402,-5.1394,-5.1386,-5.1211,-5.1084,-5.0978,-5.089,-5.0784,-5.0712,-5.0712,-5.0577,-5.0481,-5.0654,-5.0712,-5.0712,-5.0712,-5.0712,-5.0712,-5.0712,-5.0712,-5.0712,-5.0712,-5.0712,-5.0712,-5.0712,-5.0712,-5.0683,-5.0663,-5.0653,-5.0653,-5.0643,-5.0509,-5.0074,-4.9209,-4.8867,-4.8118,-4.6579,-4.6334,-4.6003,-4.5364,-4.5307,-4.5307,-4.5307,-4.5246,-4.5087,-4.48,-4.4688,-4.4443,-4.402,-4.3666,-4.3515,-4.3515,-4.3515,-4.3515,-4.3515,-4.3515,-4.3515,-5.1399,-5.1394,-5.1407,-5.1396,-5.1394,0.0,0.0,-5.132,-5.1222,-5.1127,-5.1017,-5.0925,-5.0832,-5.0745,-5.0689,-5.0606,-5.0881,-5.1357,-5.2091,-5.3362,-5.4501,-5.5349,-5.5923,-5.6238,-5.6215,-5.5623,-5.4957,-5.4259,-5.2834,-5.1812,-5.1419,-5.1402,-5.1391,-5.1404,-5.1406,-5.1406,-5.1406,-5.1406,-5.1406,-5.1406,-5.1406,-5.1406,-5.1406,-5.1406,-5.1406,-5.1406,-5.1406,-5.1406,-5.1406,-5.1406,-5.1406,-5.1406,-5.1402,-5.1398,-5.1397,-5.1402,-5.1394,-5.1364,-5.1163,-5.1053,-5.0972,-5.0847,-5.0758,-5.0712,-5.0712,-5.0712,-5.0712,-5.0712,-5.0712,-5.0712,-5.0712,-5.0712,-5.0712,-5.0712,-5.0712,-5.0712,-5.0712,-5.0712,-5.0712,-5.0712,-5.0712,-5.0712,-5.0712,-5.0712,-5.0712,-5.0712,-5.0643,-5.0389,-4.9811,-4.9327,-4.8536,-4.7186,-4.6682,-4.6143,-4.5373,-4.5307,-4.5307,-4.5307,-4.5307,-4.5216,-4.5045,-4.4879,-4.4599,-4.4206,-4.3889,-4.3749,-4.3749,-4.3582,-4.3515,-4.3515,-4.3515,-4.3515,-5.1402,-5.1401,-5.1399,-5.1408,-5.1405,-5.1405,0.0,0.0,0.0,-5.1198,-5.1167,-5.1103,-5.0926,-5.0877,-5.0817,-5.0707,-5.0653,-5.0894,-5.159,-5.2916,-5.4143,-5.5056,-5.5562,-5.5812,-5.5804,-5.576,-5.5098,-5.3604,-5.2777,-5.208,-5.1428,-5.14,-5.1391,-5.1406,-5.1406,-5.1406,-5.1406,-5.1406,-5.1406,-5.1406,-5.1406,-5.1406,-5.1406,-5.1406,-5.1406,-5.1406,-5.1406,-5.1406,-5.1406,-5.1406,-5.1406,-5.1406,-5.1402,-5.1398,-5.1397,-5.1402,-5.1388,-5.1327,-5.1079,-5.099,-5.0946,-5.0766,-5.0712,-5.0712,-5.0712,-5.0712,-5.0712,-5.0712,-5.0712,-5.0712,-5.0712,-5.0712,-5.0712,-5.0712,-5.0712,-5.0712,-5.0712,-5.0712,-5.0712,-5.0712,-5.0712,-5.0712,-5.0712,-5.0712,-5.0712,-5.0712,-5.0613,-5.0511,-5.0435,-4.9713,-4.89,-4.8014,-4.7198,-4.6361,-4.5592,-4.5394,-4.5319,-4.5319,-4.5319,-4.5319,-4.5319,-4.5004,-4.4726,-4.4479,-4.4177,-4.4033,-4.402,-4.3682,-4.3496,-4.3515,-4.3515,-4.3515,-5.1406,-5.1406,-5.1406,-5.1406,-5.1406,-5.1405,-5.1398,0.0,-5.1385,-5.1378,0.0,-5.1346,-5.1261,0.0,0.0,-5.1043,-5.0896,-5.1067,-5.1923,-5.2213,-5.2839,-5.4173,-5.565,-5.6671,-5.6895,-5.5831,-5.4447,-5.2832,-5.1932,-5.1421,-5.1407,-5.14,-5.1391,-5.1406,-5.1406,-5.1406,-5.1406,-5.1406,-5.1406,-5.1406,-5.1406,-5.1406,-5.1406,-5.1406,-5.1406,-5.1406,-5.1406,-5.1406,-5.1406,-5.1406,-5.1406,-5.1406,-5.1402,-5.1398,-5.1397,-5.1402,-5.1327,-5.1203,-5.1053,-5.0966,-5.0887,-5.074,-5.0712,-5.0712,-5.0712,-5.0712,-5.0712,-5.0712,-5.0712,-5.0712,-5.0712,-5.0712,-5.0712,-5.0712,-5.0712,-5.0712,-5.0712,-5.0712,-5.0712,-5.0712,-5.0712,-5.0712,-5.0712,-5.0712,-5.0712,-5.0712,-5.0702,-5.0633,-5.0511,-5.0445,-4.9989,-4.8884,-4.8143,-4.7335,-4.6358,-4.5722,-4.539,-4.539,-4.539,-4.539,-4.539,-4.5118,-4.4915,-4.4751,-4.4318,-4.4095,-4.4094,-4.3747,-4.3548,-4.3515,-4.3515,-4.3515,-5.1406,-5.1406,-5.1406,-5.1406,-5.1406,-5.1406,-5.1405,-5.1402,-5.1395,-5.1402,0.0,0.0,0.0,0.0,0.0,0.0,-5.1037,-5.1067,-5.1308,-5.1788,-5.2483,-5.3552,-5.4269,-5.4753,-5.4983,-5.4515,-5.3752,-5.2672,-5.2262,-5.1865,-5.1419,-5.1407,-5.1398,-5.1406,-5.1406,-5.1406,-5.1406,-5.1406,-5.1406,-5.1406,-5.1406,-5.1406,-5.1406,-5.1406,-5.1406,-5.1406,-5.1406,-5.1406,-5.1406,-5.1406,-5.1406,-5.1406,-5.1402,-5.1398,-5.1397,-5.1402,-5.1362,-5.1291,-5.1069,-5.0991,-5.0925,-5.0757,-5.0712,-5.0712,-5.0712,-5.0712,-5.0712,-5.0712,-5.0712,-5.0712,-5.0712,-5.0712,-5.0712,-5.0712,-5.0712,-5.0712,-5.0712,-5.0712,-5.0712,-5.0712,-5.0712,-5.0712,-5.0712,-5.0712,-5.0712,-5.0712,-5.0633,-5.0553,-5.0511,-5.0457,-5.0068,-4.911,-4.8351,-4.7561,-4.6701,-4.5908,-4.5466,-4.5513,-4.5513,-4.5513,-4.5513,-4.541,-4.5322,-4.5272,-4.4886,-4.4606,-4.4443,-4.4106,-4.3836,-4.3669,-4.36,-4.3549,-5.1406,-5.1406,-5.1406,-5.1406,-5.1406,-5.1406,-5.1406,-5.1405,-5.1402,-5.1399,-5.1391,0.0,0.0,0.0,-5.1349,-5.1215,0.0,-5.1103,-5.0953,-5.1476,-5.215,-5.289,-5.3168,-5.3368,-5.3502,-5.3404,-5.3126,-5.2637,-5.2405,-5.201,-5.1431,-5.1391,-5.1402,-5.1406,-5.1406,-5.1406,-5.1406,-5.1406,-5.1406,-5.1406,-5.1406,-5.1406,-5.1406,-5.1406,-5.1406,-5.1406,-5.1406,-5.1406,-5.1406,-5.1406,-5.1406,-5.1406,-5.1402,-5.1398,-5.1397,-5.1402,-5.1386,-5.1302,-5.1074,-5.0959,-5.0896,-5.0748,-5.0712,-5.0712,-5.0712,-5.0712,-5.0712,-5.0712,-5.0712,-5.0712,-5.0712,-5.0712,-5.0712,-5.0712,-5.0712,-5.0712,-5.0712,-5.0712,-5.0712,-5.0712,-5.0712,-5.0712,-5.0712,-5.0712,-5.0712,-5.0712,-5.0623,-5.0553,-5.0553,-5.0478,-5.0175,-4.9554,-4.8569,-4.7719,-4.7146,-4.6128,-4.5558,-4.5629,-4.5629,-4.562,-4.5594,-4.562,-4.562,-4.5594,-4.5304,-4.5061,-4.4861,-4.4529,-4.4237,-4.3958,-4.3749,-4.3634,-5.1406,-5.1406,-5.1406,-5.1406,-5.1406,-5.1406,-5.1406,-5.1406,-5.1406,-5.14,-5.1398,-5.1394,-5.1396,-5.1394,-5.1394,-5.1391,-5.1342,0.0,0.0,-5.1312,-5.1531,-5.2071,-5.3007,-5.3592,-5.3598,-5.3011,-5.2621,-5.2606,-5.1882,-5.1428,-5.1392,-5.1391,-5.1402,-5.1406,-5.1406,-5.1406,-5.1406,-5.1406,-5.1406,-5.1406,-5.1406,-5.1406,-5.1406,-5.1406,-5.1406,-5.1406,-5.1406,-5.1406,-5.1406,-5.1406,-5.1406,-5.1406,-5.1402,-5.1398,-5.1397,-5.1402,-5.1325,-5.1191,-5.1047,-5.0867,-5.0702,-5.0693,-5.0712,-5.0712,-5.0712,-5.0712,-5.0712,-5.0712,-5.0712,-5.0712,-5.0712,-5.0712,-5.0712,-5.0712,-5.0712,-5.0712,-5.0712,-5.0712,-5.0712,-5.0712,-5.0712,-5.0712,-5.0712,-5.0712,-5.0712,-5.0712,-5.0702,-5.0683,-5.0683,-5.0683,-5.0624,-5.0472,-4.9037,-4.8019,-4.7882,-4.6472,-4.5632,-4.57,-4.57,-4.5668,-4.5594,-4.566,-4.566,-4.5594,-4.539,-4.5294,-4.5292,-4.4931,-4.4644,-4.4374,-4.3974,-4.3788,-5.1406,-5.1406,-5.1406,-5.1406,-5.1406,-5.1406,-5.1406,-5.1406,-5.1406,-5.1405,-5.1405,-5.1404,-5.1395,-5.1408,-5.1394,-5.14,-5.1385,-5.1349,0.0,-5.13,-5.1373,-5.1555,-5.1872,-5.2042,-5.1946,-5.1828,-5.176,-5.1804,-5.1542,-5.1392,-5.1391,-5.1402,-5.1406,-5.1406,-5.1406,-5.1406,-5.1406,-5.1406,-5.1406,-5.1406,-5.1406,-5.1406,-5.1406,-5.1406,-5.1406,-5.1406,-5.1406,-5.1406,-5.1406,-5.1406,-5.1406,-5.1405,-5.1401,-5.1396,-5.1391,-5.14,-5.1364,-5.1297,-5.1074,-5.0879,-5.0712,-5.0712,-5.0712,-5.0712,-5.0712,-5.0712,-5.0712,-5.0712,-5.0712,-5.0712,-5.0712,-5.0712,-5.0712,-5.0712,-5.0712,-5.0712,-5.0712,-5.0712,-5.0712,-5.0712,-5.0712,-5.0712,-5.0712,-5.0712,-5.0712,-5.0712,-5.0712,-5.0712,-5.0712,-5.0712,-5.0673,-5.0643,-4.9635,-4.8731,-4.8219,-4.6664,-4.573,-4.5764,-4.5764,-4.5757,-4.5727,-4.5749,-4.5757,-4.5727,-4.5677,-4.5549,-4.5371,-4.5031,-4.4731,-4.4452,-4.4091,-4.3881,-5.1406,-5.1406,-5.1406,-5.1406,-5.1406,-5.1406,-5.1406,-5.1406,-5.1406,-5.1406,-5.1406,-5.1406,-5.1404,-5.1401,-5.1393,-5.141,-5.1396,-5.138,0.0,-5.1342,-5.1335,-5.13,-5.13,-5.1276,-5.1171,-5.1248,-5.1335,-5.1391,-5.1401,-5.1403,-5.1397,-5.1405,-5.1406,-5.1406,-5.1406,-5.1406,-5.1406,-5.1406,-5.1406,-5.1406,-5.1406,-5.1406,-5.1406,-5.1406,-5.1406,-5.1406,-5.1406,-5.1406,-5.1406,-5.1406,-5.1406,-5.1405,-5.1401,-5.1396,-5.1391,-5.14,-5.1333,-5.1222,-5.1058,-5.0879,-5.0712,-5.0712,-5.0712,-5.0712,-5.0712,-5.0712,-5.0712,-5.0712,-5.0712,-5.0712,-5.0712,-5.0712,-5.0712,-5.0712,-5.0712,-5.0712,-5.0712,-5.0712,-5.0712,-5.0712,-5.0712,-5.0712,-5.0712,-5.0712,-5.0712,-5.0712,-5.0712,-5.0712,-5.0712,-5.0712,-5.0712,-5.0712,-4.9913,-4.897,-4.7921,-4.6592,-4.5793,-4.5807,-4.5807,-4.5807,-4.5807,-4.5807,-4.5807,-4.5807,-4.5807,-4.5703,-4.5549,-4.5236,-4.4931,-4.4638,-4.4313,-4.4064]},{"header":{"parameterUnit":"m.s-1","parameterCategory":1,"la1":30.6,"la2":29.2853,"lo1":-89.7004,"lo2":-87.6739,"dy":0.0162,"dx":0.0183,"nx":112,"ny":82,"refTime":"2024-05-22T06:00:00:Z","depth":0,"parameterNumber":3,"parameterNumberName":"V-component_of_WINDS"},"data":[0.0,0.0,0.0,0.0,0.0,0.0,0.0,0.0,0.0,0.0,0.0,0.0,0.0,0.0,0.0,0.0,0.0,0.0,0.0,0.0,0.0,0.0,0.0,0.0,0.0,0.0,0.0,0.0,0.0,0.0,0.0,0.0,0.0,0.0,0.0,0.0,0.0,0.0,0.0,0.0,0.0,0.0,0.0,0.0,0.0,0.0,0.0,0.0,0.0,0.0,0.0,0.0,0.0,0.0,0.0,0.0,0.0,0.0,0.0,0.0,0.0,0.0,0.0,0.0,0.0,0.0,0.0,0.0,0.0,0.0,0.0,0.0,0.0,0.0,0.0,0.0,0.0,0.0,0.0,0.0,0.0,0.0,0.0,0.0,0.0,0.0,0.0,0.0,0.0,0.0,-2.0735,-2.148,-2.2004,-2.1917,-2.0835,-2.1306,-2.1011,-1.9636,0.0,0.0,0.0,0.0,0.0,0.0,0.0,0.0,0.0,0.0,0.0,0.0,0.0,0.0,0.0,0.0,0.0,0.0,0.0,0.0,0.0,0.0,0.0,0.0,0.0,0.0,0.0,0.0,0.0,0.0,0.0,0.0,0.0,0.0,0.0,0.0,0.0,0.0,0.0,0.0,0.0,0.0,0.0,0.0,0.0,0.0,0.0,0.0,0.0,0.0,0.0,0.0,0.0,0.0,0.0,0.0,0.0,0.0,0.0,0.0,0.0,0.0,0.0,0.0,0.0,0.0,0.0,0.0,0.0,0.0,0.0,0.0,0.0,0.0,0.0,0.0,0.0,0.0,0.0,0.0,0.0,0.0,0.0,0.0,0.0,0.0,0.0,0.0,0.0,0.0,0.0,0.0,0.0,0.0,0.0,0.0,0.0,0.0,0.0,0.0,0.0,0.0,0.0,0.0,-1.998,-2.1062,-2.1704,-2.1777,-2.1102,-2.1356,-2.1155,-2.0155,0.0,0.0,0.0,0.0,0.0,0.0,0.0,0.0,0.0,0.0,0.0,0.0,0.0,0.0,0.0,0.0,0.0,0.0,0.0,0.0,0.0,0.0,0.0,0.0,0.0,0.0,0.0,0.0,0.0,0.0,0.0,0.0,0.0,0.0,0.0,0.0,0.0,0.0,0.0,0.0,0.0,0.0,0.0,0.0,0.0,0.0,0.0,0.0,0.0,0.0,0.0,0.0,0.0,0.0,0.0,0.0,0.0,0.0,0.0,0.0,0.0,0.0,0.0,0.0,0.0,0.0,0.0,0.0,0.0,0.0,0.0,0.0,0.0,0.0,0.0,0.0,0.0,0.0,0.0,0.0,0.0,0.0,0.0,0.0,0.0,0.0,0.0,0.0,0.0,0.0,0.0,0.0,0.0,0.0,0.0,0.0,0.0,0.0,0.0,0.0,0.0,0.0,0.0,-2.0027,-2.0514,-2.1049,-2.1349,-2.1403,-2.1129,-2.1089,-2.0765,-2.0024,-2.0571,0.0,0.0,0.0,0.0,0.0,0.0,0.0,0.0,0.0,0.0,0.0,0.0,0.0,0.0,0.0,0.0,0.0,0.0,0.0,0.0,0.0,0.0,0.0,0.0,0.0,0.0,0.0,0.0,0.0,0.0,0.0,0.0,0.0,0.0,0.0,0.0,0.0,0.0,0.0,0.0,0.0,0.0,0.0,0.0,0.0,0.0,0.0,0.0,0.0,0.0,0.0,0.0,0.0,0.0,0.0,0.0,0.0,0.0,0.0,0.0,0.0,0.0,0.0,0.0,0.0,0.0,0.0,0.0,0.0,0.0,0.0,0.0,0.0,0.0,0.0,0.0,0.0,0.0,0.0,0.0,0.0,0.0,0.0,0.0,0.0,0.0,0.0,0.0,0.0,0.0,0.0,0.0,0.0,0.0,0.0,0.0,0.0,0.0,0.0,0.0,0.0,0.0,-2.0661,-2.1109,-2.1109,-2.1049,-2.1036,-2.1102,-2.0777,-2.0502,-2.0254,-2.141,0.0,0.0,0.0,0.0,0.0,0.0,0.0,0.0,0.0,0.0,0.0,0.0,0.0,0.0,0.0,0.0,0.0,0.0,0.0,0.0,0.0,0.0,0.0,0.0,0.0,0.0,0.0,0.0,0.0,0.0,0.0,0.0,0.0,0.0,0.0,0.0,0.0,0.0,0.0,0.0,0.0,0.0,0.0,0.0,0.0,0.0,0.0,0.0,0.0,0.0,0.0,0.0,0.0,0.0,0.0,0.0,0.0,0.0,0.0,0.0,0.0,0.0,0.0,0.0,0.0,0.0,0.0,0.0,0.0,0.0,0.0,0.0,0.0,0.0,0.0,0.0,0.0,0.0,0.0,0.0,0.0,0.0,0.0,0.0,0.0,0.0,0.0,0.0,0.0,0.0,0.0,0.0,0.0,0.0,0.0,0.0,0.0,0.0,0.0,0.0,0.0,0.0,-2.0414,-2.1109,-2.1109,-2.0869,-2.0815,-2.1089,-2.0578,-2.0634,-2.1581,-2.2448,0.0,0.0,0.0,0.0,0.0,0.0,0.0,0.0,0.0,0.0,0.0,0.0,0.0,0.0,0.0,0.0,0.0,0.0,0.0,0.0,0.0,0.0,0.0,0.0,0.0,0.0,0.0,0.0,0.0,0.0,0.0,0.0,0.0,0.0,0.0,0.0,0.0,0.0,0.0,0.0,0.0,0.0,0.0,0.0,0.0,0.0,0.0,0.0,0.0,0.0,0.0,0.0,0.0,0.0,0.0,0.0,0.0,0.0,0.0,0.0,0.0,0.0,0.0,0.0,0.0,0.0,0.0,0.0,0.0,0.0,0.0,0.0,0.0,0.0,0.0,0.0,0.0,0.0,0.0,0.0,0.0,0.0,0.0,0.0,0.0,0.0,0.0,0.0,0.0,0.0,0.0,0.0,0.0,0.0,0.0,0.0,0.0,0.0,0.0,0.0,0.0,0.0,-1.9953,-2.0561,-2.0561,-2.0461,-2.0521,-2.0815,-2.0436,-2.0644,-2.1744,0.0,0.0,0.0,0.0,0.0,0.0,0.0,0.0,0.0,0.0,0.0,0.0,0.0,0.0,0.0,0.0,0.0,0.0,0.0,0.0,0.0,0.0,0.0,0.0,0.0,0.0,0.0,0.0,0.0,0.0,0.0,0.0,0.0,0.0,0.0,0.0,0.0,0.0,0.0,0.0,0.0,0.0,0.0,0.0,0.0,0.0,0.0,0.0,0.0,0.0,0.0,0.0,0.0,0.0,0.0,0.0,0.0,0.0,0.0,0.0,0.0,0.0,0.0,0.0,0.0,0.0,0.0,0.0,0.0,0.0,0.0,0.0,0.0,0.0,0.0,0.0,0.0,0.0,0.0,0.0,0.0,0.0,0.0,0.0,0.0,0.0,0.0,0.0,0.0,0.0,0.0,0.0,0.0,0.0,0.0,0.0,0.0,0.0,0.0,0.0,0.0,0.0,-1.8911,-1.9634,-2.0173,-2.0173,-2.0173,-2.0314,-2.0514,-2.0257,-2.0637,-2.1869,0.0,0.0,0.0,0.0,0.0,0.0,0.0,0.0,0.0,0.0,0.0,0.0,0.0,0.0,0.0,0.0,0.0,0.0,0.0,0.0,0.0,0.0,0.0,0.0,0.0,0.0,0.0,0.0,0.0,0.0,0.0,0.0,0.0,0.0,0.0,0.0,0.0,0.0,0.0,0.0,0.0,0.0,0.0,0.0,0.0,0.0,0.0,0.0,0.0,0.0,0.0,0.0,0.0,0.0,0.0,0.0,0.0,0.0,0.0,0.0,0.0,0.0,0.0,0.0,0.0,0.0,0.0,0.0,0.0,0.0,0.0,0.0,0.0,0.0,0.0,0.0,0.0,0.0,0.0,0.0,0.0,0.0,0.0,0.0,0.0,0.0,0.0,0.0,0.0,0.0,0.0,0.0,0.0,0.0,0.0,0.0,0.0,0.0,0.0,0.0,0.0,0.0,-1.8878,-1.962,-2.016,-2.016,-2.0167,-2.0227,-2.0227,-1.9935,-2.0545,0.0,0.0,0.0,0.0,0.0,0.0,0.0,0.0,0.0,0.0,0.0,0.0,0.0,0.0,0.0,0.0,0.0,0.0,0.0,0.0,0.0,0.0,0.0,0.0,0.0,0.0,0.0,0.0,0.0,0.0,0.0,0.0,0.0,0.0,0.0,0.0,0.0,0.0,0.0,0.0,0.0,0.0,0.0,0.0,0.0,0.0,0.0,0.0,0.0,0.0,0.0,0.0,0.0,0.0,0.0,0.0,0.0,0.0,0.0,0.0,0.0,0.0,0.0,0.0,0.0,0.0,0.0,0.0,0.0,0.0,0.0,0.0,0.0,0.0,0.0,0.0,0.0,0.0,0.0,0.0,0.0,0.0,0.0,0.0,0.0,0.0,0.0,0.0,0.0,0.0,0.0,0.0,0.0,0.0,0.0,0.0,0.0,0.0,0.0,0.0,0.0,0.0,0.0,-1.8577,-1.9205,-1.9626,-1.9626,-1.9806,-1.9927,-1.9927,-2.0551,-2.1311,-2.2239,0.0,0.0,0.0,0.0,0.0,0.0,0.0,0.0,0.0,0.0,0.0,0.0,0.0,0.0,0.0,0.0,0.0,0.0,0.0,0.0,0.0,0.0,0.0,0.0,0.0,0.0,0.0,0.0,0.0,0.0,0.0,0.0,0.0,0.0,0.0,0.0,0.0,0.0,0.0,0.0,0.0,0.0,0.0,0.0,0.0,0.0,0.0,0.0,0.0,0.0,0.0,0.0,0.0,0.0,0.0,0.0,0.0,0.0,0.0,0.0,0.0,0.0,0.0,0.0,0.0,0.0,0.0,0.0,0.0,0.0,0.0,0.0,0.0,0.0,0.0,0.0,0.0,0.0,0.0,0.0,0.0,0.0,0.0,0.0,0.0,0.0,0.0,0.0,0.0,0.0,0.0,0.0,0.0,0.0,0.0,0.0,0.0,0.0,0.0,0.0,0.0,0.0,-1.8257,-1.8831,-1.9232,-1.9417,-1.9626,-1.9765,-1.9641,-2.0692,-2.1519,-2.1851,0.0,0.0,0.0,0.0,0.0,0.0,0.0,0.0,0.0,0.0,0.0,0.0,0.0,0.0,0.0,0.0,0.0,0.0,0.0,0.0,0.0,0.0,0.0,0.0,0.0,0.0,0.0,0.0,0.0,0.0,0.0,0.0,0.0,0.0,0.0,0.0,0.0,0.0,0.0,0.0,0.0,0.0,0.0,0.0,0.0,0.0,0.0,0.0,0.0,0.0,0.0,0.0,0.0,0.0,0.0,0.0,0.0,0.0,0.0,0.0,0.0,0.0,0.0,0.0,0.0,0.0,0.0,0.0,0.0,0.0,0.0,0.0,0.0,0.0,0.0,0.0,0.0,0.0,0.0,0.0,0.0,0.0,0.0,0.0,0.0,0.0,0.0,0.0,0.0,0.0,0.0,0.0,0.0,0.0,0.0,0.0,0.0,0.0,0.0,0.0,0.0,0.0,-1.7869,-1.8435,-1.8958,-1.9252,-1.9578,-1.9576,-1.9307,-2.0611,-2.1416,-2.1271,0.0,0.0,0.0,0.0,0.0,0.0,0.0,0.0,0.0,0.0,0.0,0.0,0.0,0.0,0.0,0.0,0.0,0.0,0.0,0.0,0.0,0.0,0.0,0.0,0.0,0.0,0.0,0.0,0.0,0.0,0.0,0.0,0.0,0.0,0.0,0.0,0.0,0.0,0.0,0.0,0.0,0.0,0.0,0.0,0.0,0.0,0.0,0.0,0.0,0.0,0.0,0.0,0.0,0.0,0.0,0.0,0.0,0.0,0.0,0.0,-0.9608,-0.9591,0.0,0.0,0.0,0.0,0.0,0.0,0.0,0.0,0.0,0.0,0.0,0.0,0.0,0.0,0.0,0.0,0.0,0.0,0.0,0.0,0.0,0.0,0.0,0.0,0.0,0.0,0.0,0.0,0.0,0.0,0.0,0.0,0.0,0.0,0.0,0.0,0.0,0.0,0.0,0.0,-1.7609,-1.8003,-1.8295,-1.8651,-1.8949,-1.904,-1.8966,-2.1025,-2.2092,-2.1753,-2.2902,0.0,0.0,0.0,0.0,0.0,0.0,0.0,0.0,0.0,0.0,0.0,0.0,0.0,0.0,0.0,0.0,0.0,0.0,0.0,0.0,0.0,0.0,0.0,0.0,0.0,0.0,0.0,0.0,0.0,0.0,0.0,0.0,0.0,0.0,0.0,0.0,0.0,0.0,0.0,0.0,0.0,0.0,0.0,0.0,0.0,0.0,0.0,0.0,0.0,0.0,0.0,0.0,0.0,0.0,0.0,0.0,0.0,0.0,0.0,-0.9608,-0.9608,0.0,0.0,0.0,0.0,0.0,0.0,0.0,0.0,0.0,0.0,0.0,0.0,0.0,0.0,0.0,0.0,0.0,0.0,0.0,0.0,0.0,0.0,0.0,0.0,0.0,0.0,0.0,0.0,0.0,0.0,0.0,0.0,0.0,0.0,0.0,0.0,0.0,0.0,0.0,0.0,-1.7373,-1.7769,-1.8109,-1.8457,-1.8594,-1.8755,-1.8871,-2.0545,-2.162,-2.1862,-2.2797,0.0,0.0,0.0,0.0,0.0,0.0,0.0,0.0,0.0,0.0,0.0,0.0,0.0,0.0,0.0,0.0,0.0,0.0,0.0,0.0,0.0,0.0,0.0,0.0,0.0,0.0,0.0,0.0,0.0,0.0,0.0,0.0,0.0,0.0,0.0,0.0,0.0,0.0,0.0,0.0,0.0,0.0,0.0,0.0,0.0,0.0,0.0,0.0,0.0,0.0,0.0,0.0,0.0,-0.7828,-0.8449,-0.9727,-0.9727,-0.9727,-0.9727,-0.9727,-0.9696,-0.9649,-0.9703,0.0,0.0,0.0,0.0,0.0,0.0,0.0,0.0,0.0,0.0,0.0,0.0,0.0,0.0,0.0,0.0,0.0,0.0,0.0,0.0,0.0,0.0,-1.728,-1.728,-1.728,-1.7213,-1.6914,0.0,0.0,0.0,0.0,0.0,0.0,0.0,0.0,0.0,0.0,0.0,-1.7166,-1.7629,-1.8063,-1.8303,-1.8385,-1.8503,-1.8775,-1.9842,-2.0941,-2.1924,-2.2423,-2.2898,0.0,0.0,0.0,0.0,0.0,0.0,0.0,0.0,0.0,0.0,0.0,0.0,0.0,0.0,0.0,0.0,0.0,0.0,0.0,0.0,0.0,0.0,0.0,0.0,0.0,0.0,0.0,0.0,0.0,0.0,0.0,0.0,0.0,0.0,0.0,0.0,0.0,0.0,0.0,0.0,0.0,0.0,0.0,0.0,0.0,0.0,0.0,-0.2953,-0.4236,-0.5498,-0.683,-0.8174,-0.8157,-0.8853,-1.0192,-1.0192,-1.0192,-1.0192,-1.0192,0.0,-0.9815,-1.0083,0.0,0.0,0.0,0.0,0.0,0.0,0.0,0.0,0.0,0.0,0.0,0.0,0.0,0.0,0.0,0.0,0.0,0.0,0.0,0.0,0.0,0.0,-1.7522,-1.7522,-1.7522,-1.7515,-1.7475,-1.7068,-1.6693,-1.6653,-1.6647,-1.6633,0.0,0.0,0.0,0.0,0.0,0.0,-1.7166,-1.7435,-1.7655,-1.7695,-1.7921,-1.8172,-1.8433,-1.9717,-2.1062,-2.2323,-2.2316,-2.2861,-2.4183,-2.2832,0.0,0.0,0.0,0.0,0.0,0.0,0.0,0.0,0.0,0.0,0.0,0.0,0.0,0.0,0.0,0.0,0.0,0.0,0.0,0.0,0.0,0.0,0.0,0.0,0.0,0.0,0.0,0.0,0.0,0.0,0.0,0.0,0.0,0.0,0.0,0.0,0.0,0.0,0.0,0.0,0.0,0.0,0.0,-0.0638,-0.1605,-0.2703,-0.399,-0.547,-0.6693,-0.7653,-0.8165,-0.8805,-0.9704,-1.0169,-1.0354,-1.028,-1.028,-1.0154,-0.9899,-1.0093,-1.0019,-0.9815,0.0,0.0,0.0,0.0,-1.4106,-1.6289,-1.5948,-1.5893,-1.601,-1.5827,0.0,0.0,0.0,0.0,0.0,0.0,0.0,-1.7582,-1.7582,-1.7582,-1.7582,-1.7582,-1.7582,-1.7582,-1.7582,-1.7382,-1.7154,-1.6987,-1.7005,-1.6854,-1.652,-1.6493,0.0,0.0,0.0,-1.7052,-1.7186,-1.7454,-1.7582,-1.7582,-1.7694,-1.7905,-1.8167,-1.9443,-2.0818,-2.2181,-2.2455,-2.3094,-2.4358,-2.3242,-2.248,0.0,0.0,0.0,0.0,0.0,0.0,0.0,0.0,0.0,0.0,0.0,0.0,0.0,0.0,0.0,0.0,0.0,0.0,0.0,0.0,0.0,0.0,0.0,0.0,0.0,0.0,0.0,0.0,0.0,0.0,0.0,0.0,0.0,0.0,0.0,0.0,0.0,0.0,0.0,0.0126,0.095,0.0894,-0.0194,-0.1101,-0.2205,-0.3513,-0.5011,-0.6247,-0.7288,-0.8149,-0.8796,-0.9355,-1.0172,-1.047,-1.0334,-1.0334,-1.0226,-0.999,-1.0031,-0.9995,-0.9822,-0.9822,-1.116,-1.3119,-1.283,-1.4385,-1.6526,-1.6065,-1.585,-1.5691,-1.5551,-1.5246,-1.5068,-1.588,0.0,0.0,0.0,0.0,-1.7582,-1.7582,-1.7582,-1.7582,-1.7582,-1.7582,-1.7582,-1.7582,-1.7582,-1.7515,-1.7353,-1.7313,-1.7172,-1.6737,-1.6727,0.0,-1.6627,-1.6971,-1.7226,-1.73,-1.7501,-1.7582,-1.7582,-1.7582,-1.7747,-1.8069,-1.928,-2.0649,-2.2089,-2.2558,-2.3271,-2.4368,-2.3549,-2.2896,-2.2519,0.0,0.0,0.0,0.0,0.0,0.0,0.0,0.0,0.0,0.0,0.0,0.0,0.0,0.0,0.0,0.0,0.0,0.0,0.0,0.0,0.0,0.0,0.0,0.0,0.0,0.0,0.0,0.0,0.0,0.0,0.0,0.0,0.0,0.0,0.0,0.0,0.0,0.0126,0.0442,0.0831,0.1167,0.1448,0.046,-0.0793,-0.2277,-0.3687,-0.5427,-0.7498,-0.824,-0.8972,-0.9694,-1.0369,-1.0626,-1.048,-1.048,-1.0317,-0.9997,-1.0209,-1.009,-0.9822,-0.9822,-1.104,-1.2808,-1.2666,-1.4189,-1.6301,-1.6301,-1.5914,-1.5458,-1.5725,-1.5363,-1.5131,-1.6274,-1.6514,0.0,0.0,-1.7569,-1.7582,-1.7582,-1.7582,-1.7582,-1.7582,-1.7582,-1.7582,-1.7582,-1.7582,-1.7582,-1.7562,-1.7562,-1.7549,-1.7522,0.0,-1.7266,-1.7475,-1.736,-1.73,-1.7522,-1.7569,-1.7582,-1.7582,-1.7582,-1.7793,-1.8318,-1.9376,-2.07,-2.2383,-2.2654,-2.3271,-2.4368,-2.3549,-2.2896,-2.2519,-2.251,0.0,0.0,0.0,0.0,0.0,0.0,0.0,0.0,0.0,0.0,0.0,0.0,0.0,0.0,0.0,0.0,0.0,0.0,0.0,0.0,0.0,0.0,0.0,0.0,0.0,0.0,0.0,0.0,0.0,0.0,0.0,0.0,0.0,0.0,0.0,0.0191,0.0257,0.0195,0.0978,0.1382,0.1269,0.0467,-0.0668,-0.2148,-0.3559,-0.5173,-0.6853,-0.7584,-0.8251,-0.8984,-0.9715,-1.0189,-1.0354,-1.0354,-1.0181,-0.9907,-0.9961,-0.992,-0.9822,-0.9822,-1.0748,-1.2184,-1.2999,-1.4382,-1.5945,-1.6367,-1.6262,-1.5807,-1.5177,-1.5091,-1.5405,-1.5992,-1.6349,-1.6708,-1.7397,-1.7582,-1.7582,-1.7582,-1.7582,-1.7582,-1.7582,-1.7582,-1.7582,-1.7582,-1.7582,-1.7582,-1.7582,-1.7582,-1.7522,-1.7387,-1.7427,-1.7454,-1.7367,-1.7427,-1.7468,-1.7569,-1.7582,-1.7582,-1.7582,-1.7582,-1.774,-1.8115,-1.914,-2.0074,-2.0837,-2.1318,-2.1751,-2.2122,-2.1563,-2.1095,-2.0752,-2.1324,-2.1048,0.0,0.0,0.0,0.0,0.0,0.0,0.0,0.0,0.0,0.0,0.0,0.0,0.0,0.0,0.0,0.0,0.0,0.0,0.0,0.0,0.0,0.0,0.0,0.0,0.0,0.0,0.0,0.0,0.0,0.0,0.0,0.0,0.0,0.0,0.0193,0.0261,0.0,0.0794,0.1133,0.0875,0.0673,-0.0134,-0.1544,-0.2887,-0.4298,-0.578,-0.6913,-0.7915,-0.8653,-0.9383,-0.9898,-1.028,-1.028,-1.0107,-0.9822,-0.9822,-0.9822,-0.9822,-0.9822,-1.0607,-1.1812,-1.2711,-1.4023,-1.5537,-1.613,-1.6224,-1.5915,-1.4827,-1.4805,-1.5244,-1.5517,-1.5992,-1.6577,-1.7107,-1.7424,-1.7582,-1.7582,-1.7582,-1.7582,-1.7582,-1.7582,-1.7582,-1.7582,-1.7582,-1.7582,-1.7582,-1.7582,-1.7522,-1.738,-1.7455,-1.7515,-1.738,-1.7514,-1.7582,-1.7582,-1.7582,-1.7582,-1.7582,-1.7582,-1.7694,-1.7964,-1.8986,-1.9749,-2.0132,-2.0624,-2.095,-2.1079,-2.0432,-1.9977,-1.9816,-2.053,-2.068,-2.0167,0.0,0.0,0.0,0.0,0.0,0.0,0.0,0.0,0.0,0.0,0.0,0.0,0.0,0.0,0.0,0.0,0.0,0.0,0.0,0.0,0.0,0.0,0.0,0.0,0.0,0.0,0.0,0.0,0.0,0.0,0.0,0.0,0.0,0.0,0.0,0.0,0.0334,0.0539,0.0539,0.1212,0.0942,-0.0471,-0.1544,-0.2819,-0.4301,-0.6443,-0.7851,-0.8653,-0.9316,-0.9898,-1.028,-1.028,-1.0107,-0.9822,-0.9822,-0.9822,-0.9822,-0.9822,-1.0543,-1.1631,-1.1692,-1.3117,-1.5107,-1.5527,-1.5744,-1.567,-1.4761,-1.4582,-1.4659,-1.4928,-1.5464,-1.5998,-1.6577,-1.7107,-1.7582,-1.7582,-1.7582,-1.7582,-1.7582,-1.7582,-1.7582,-1.7582,-1.7582,-1.7582,-1.7582,-1.7582,-1.7582,-1.7582,-1.7582,-1.7582,-1.7582,-1.7582,0.0,-1.7582,-1.7582,-1.7582,-1.7582,-1.7582,-1.7694,-1.7964,-1.8935,-1.9783,-2.0377,-2.0652,-2.096,-2.1271,-2.0283,-1.9745,-1.9789,-2.0321,-2.1024,-2.1904,0.0,0.0,0.0,0.0,0.0,0.0,0.0,0.0,0.0,0.0,0.0,0.0,0.0,0.0,0.0,0.0,0.0,0.0,0.0,0.0,0.0,0.0,0.0,0.0,0.0,0.0,0.0,0.0,0.0,0.0,0.0,0.0,0.0,0.0,0.0,0.0,0.0336,0.0609,0.0956,0.1354,0.1014,-0.0136,-0.1417,-0.2819,-0.4301,-0.5979,-0.7386,-0.8587,-0.8787,-0.9443,-1.028,-1.028,-1.0107,-0.9822,-0.9822,-0.9822,-0.9822,-0.9822,-1.0001,-1.0425,-1.139,-1.2912,-1.4612,-1.5248,-1.5517,-1.5414,-1.5006,-1.5044,-1.5261,-1.5357,-1.5731,-1.6271,-1.6624,-1.7107,-1.7582,-1.7582,-1.7582,-1.7582,-1.7582,-1.7582,-1.7582,-1.7582,-1.7582,-1.7582,-1.7582,-1.7582,-1.7582,-1.7582,-1.7582,-1.7582,-1.7582,-1.7582,-1.7582,-1.7582,-1.7582,-1.7582,-1.7582,-1.7582,-1.7694,-1.7964,-1.829,-1.8506,-1.8627,-1.8615,-1.8586,-1.8433,-1.8156,-1.8645,-2.0078,-2.0413,-2.1165,0.0,0.0,0.0,0.0,0.0,0.0,0.0,0.0,0.0,0.0,0.0,0.0,0.0,0.0,0.0,0.0,0.0,0.0,0.0,0.0,0.0,0.0,0.0,0.0,0.0,0.0,0.0,0.0,0.0,0.0,0.0,0.0,0.0,0.0,0.0,0.0,0.0,0.0202,0.0474,0.0893,0.1221,0.1152,0.0686,-0.0541,-0.1947,-0.3425,-0.4905,-0.6648,-0.8587,-0.8587,-0.9246,-1.028,-1.028,-1.0107,-0.9822,-0.9822,-0.9822,-0.9822,0.0,0.0,0.0,0.0,-1.2636,-1.3713,-1.4968,-1.5405,-1.5477,-1.5275,-1.5235,-1.5261,-1.5137,-1.541,-1.5838,-1.6258,-1.6783,-1.7265,-1.7529,-1.7582,-1.7582,-1.7582,-1.7582,-1.7582,-1.7582,-1.7582,-1.7582,-1.7582,-1.7582,0.0,-1.7582,-1.7582,-1.7582,-1.7582,-1.7582,-1.7582,-1.7582,-1.7582,-1.7582,-1.7582,-1.7582,-1.7635,-1.7799,-1.7788,0.0,0.0,0.0,-1.7658,-1.7735,-1.7712,0.0,0.0,0.0,0.0,0.0,0.0,0.0,0.0,-2.2168,-2.2246,0.0,0.0,0.0,0.0,0.0,0.0,0.0,0.0,0.0,0.0,0.0,0.0,0.0,0.0,0.0,0.0,0.0,0.0,0.0,0.0,0.0,0.0,0.0,0.0,0.0,0.0,0.0,0.0,0.0,0.0,0.0,0.0,0.0,0.0,0.0,0.1288,0.1718,0.0609,-0.0739,-0.2148,-0.3627,-0.5841,-0.8587,-0.8573,-0.9231,-1.028,-1.0263,-1.009,-0.9822,-0.9822,-0.9822,-0.9819,-0.9802,-0.9795,-0.9956,-1.161,-1.2268,-1.2624,-1.4442,0.0,0.0,-1.5458,-1.5327,-1.5035,-1.4767,-1.4874,-1.5196,-1.5785,-1.6311,-1.6836,-1.7424,-1.7582,-1.7582,-1.7582,-1.7582,-1.7582,-1.7582,-1.7582,-1.7582,-1.7582,-1.7582,-1.7582,-1.7582,-1.7582,-1.7582,-1.7582,-1.7582,-1.7582,-1.7582,-1.7582,-1.7582,-1.7582,-1.7582,0.0,-1.7582,-1.7581,-1.7654,-1.7918,-1.7591,-1.7643,-1.8171,-1.8409,-1.9337,-2.1067,-2.1284,-2.1957,-2.3091,-2.3091,-2.3091,-2.3081,-2.2373,-2.2227,0.0,0.0,0.0,0.0,0.0,0.0,0.0,0.0,0.0,0.0,0.0,0.0,0.0,0.0,0.0,0.0,0.0,0.0,0.0,0.0,0.0,0.0,0.0,0.0,0.0,0.0,0.0,0.0,0.0,0.0,0.0,0.0,0.0339,0.0962,0.1085,0.1423,0.2131,0.0677,-0.0739,-0.2148,-0.3627,0.0,-0.8584,-0.8484,-0.9142,-1.0273,-1.0148,-0.9988,-0.9822,-0.9822,-0.9822,-0.9812,-0.9696,-0.9649,-0.9734,-1.054,-1.1059,-1.1528,-1.3401,-1.4269,-1.4687,-1.5518,-1.5767,-1.5678,-1.5422,-1.5523,0.0,-1.6111,-1.6471,-1.6836,-1.7424,-1.7582,-1.7582,-1.7582,-1.7582,-1.7582,-1.7582,-1.7582,-1.7582,-1.7582,-1.7582,-1.7582,-1.7582,-1.7582,-1.7582,-1.7582,-1.7582,-1.7582,-1.7582,-1.7582,-1.7582,-1.7582,-1.7582,-1.7582,-1.7582,-1.7781,-1.7812,-1.761,-1.7402,-1.7362,-1.7509,-1.8996,-1.9994,-2.0399,-2.1929,-2.2829,-2.3091,-2.3091,-2.3091,-2.3091,-2.2925,-2.2896,0.0,0.0,0.0,0.0,0.0,0.0,0.0,0.0,0.0,0.0,0.0,0.0,0.0,0.0,0.0,0.0,0.0,0.0,0.0,0.0,0.0,0.0,0.0,0.0,0.0,0.0,0.0,0.0,0.0,0.0,0.0,0.0,0.0271,0.0824,0.1017,0.1355,0.1925,0.1355,0.0,-0.2081,-0.2819,-0.5098,-0.8584,-0.8462,-0.9118,-1.0273,-1.0117,-0.9903,-0.9822,-0.9822,-0.9778,-0.97,-0.9554,-0.9496,-0.9583,-1.0258,-1.0661,-1.1169,-1.3042,-1.3975,-1.4507,-1.5569,-1.5791,-1.5684,-1.5535,-1.5476,-1.5517,-1.5838,-1.6205,-1.6577,-1.7054,-1.7371,-1.7582,-1.7582,-1.7582,-1.7582,-1.7582,-1.7582,-1.7582,-1.7582,-1.7582,-1.7582,-1.7582,-1.7582,-1.7582,-1.7582,-1.7582,-1.7582,-1.7582,-1.7582,-1.7582,-1.7582,-1.7582,-1.7635,-1.7799,-1.7907,-1.781,-1.745,-1.7366,-1.7512,-1.8017,-1.8964,-1.9741,-2.0187,-2.1641,-2.2413,-2.2413,-2.2862,-2.3091,-2.3091,-2.3091,-2.3091,0.0,0.0,0.0,0.0,0.0,0.0,0.0,0.0,0.0,0.0,0.0,0.0,0.0,0.0,0.0,0.0,0.0,0.0,0.0,0.0,0.0,0.0,0.0,0.0,0.0,0.0,0.0,0.0,0.0,0.0,0.0,0.0,0.0203,0.0547,0.0948,0.1286,0.1643,0.2032,0.074,-0.2148,-0.2081,-0.4285,-0.835,-0.8361,-0.8954,-1.0036,-1.0007,-0.9872,-0.9822,-0.9822,-0.9737,-0.9595,-0.9442,-0.9364,-0.9432,-1.0009,-1.0357,-1.0827,-1.2788,-1.3693,-1.422,-1.5514,-1.5737,-1.5583,-1.5583,-1.5369,-1.5202,-1.5565,-1.5945,-1.6377,-1.6683,-1.7213,-1.7582,-1.7582,-1.7582,-1.7582,-1.7582,-1.7582,-1.7582,-1.7582,-1.7582,-1.7582,-1.7582,-1.7582,-1.7582,-1.7582,-1.7582,-1.7582,-1.7582,-1.7582,-1.7582,-1.7582,-1.7535,-1.7507,-1.7712,-1.7665,-1.759,-1.7366,-1.7337,-1.7645,-1.8473,-1.8703,-1.9155,-1.9914,-2.0917,-2.1418,-2.1418,-2.2369,-2.2828,-2.2818,-2.3003,-2.3091,0.0,0.0,0.0,0.0,0.0,0.0,0.0,0.0,0.0,0.0,0.0,0.0,0.0,0.0,0.0,0.0,0.0,0.0,0.0,0.0,0.0,0.0,0.0,0.0,0.0,0.0,0.0,0.0,0.0,0.0,0.0,0.0,0.0135,0.0472,0.0876,0.128,0.1619,0.2021,0.074,-0.2215,-0.2148,-0.4,-0.7578,-0.792,-0.8566,-0.9249,-0.9665,-0.9836,-0.9822,-0.9822,-0.9737,-0.9595,-0.9442,-0.93,-0.9217,-0.9126,-0.9306,-0.9853,-1.1848,-1.2798,-1.3362,-1.5292,-1.5891,-1.5838,-1.5838,-1.5684,-1.5535,-1.6057,-1.6271,-1.643,-1.7014,-1.7378,-1.7582,-1.7582,-1.7582,-1.7582,-1.7582,-1.7582,-1.7582,-1.7582,-1.7582,-1.7582,-1.7582,-1.7582,-1.7582,-1.7582,-1.7582,-1.7582,-1.7582,-1.7582,-1.7582,-1.7582,-1.7153,-1.6848,-1.6762,-1.6758,-1.6918,-1.7312,-1.7301,-1.7326,-1.7466,-1.8334,-1.8834,-1.8972,-1.9877,-2.0367,-2.0367,-2.1373,-2.1872,-2.1872,-2.2731,-2.3091,0.0,0.0,0.0,0.0,0.0,0.0,0.0,0.0,0.0,0.0,0.0,0.0,0.0,0.0,0.0,0.0,0.0,0.0,0.0,0.0,0.0,0.0,0.0,0.0,0.0,0.0,0.0,0.0,0.0,0.0,0.0,0.0,0.0067,0.0202,0.0808,0.1144,0.1279,0.1885,0.1143,-0.094,-0.1745,-0.3529,-0.6171,-0.7121,-0.8064,-0.8931,-0.9544,-0.9822,-0.9815,-0.973,-0.9608,-0.9462,-0.9306,-0.9157,-0.9022,-0.8905,-0.9069,-0.95,-1.0927,-1.1999,-1.2978,-1.4435,-1.5351,-1.5891,-1.5891,-1.5838,-1.5737,-1.5797,-1.6164,-1.653,-1.6643,-1.7113,-1.7582,-1.7582,-1.7582,-1.7582,-1.7582,-1.7582,-1.7582,-1.7582,-1.7582,-1.7582,-1.7582,-1.7582,-1.7582,-1.7582,-1.7582,-1.7582,-1.7582,-1.7582,-1.7469,-1.7153,-1.6767,-1.6476,-1.6202,-1.6321,-1.658,-1.6885,-1.6911,-1.7005,-1.7279,-1.7692,-1.7924,-1.7924,-1.888,-1.9376,-1.9376,-2.0917,-2.1695,-2.1739,-2.2643,-2.3091,0.0,0.0,0.0,0.0,0.0,0.0,0.0,0.0,0.0,0.0,0.0,0.0,0.0,0.0,0.0,0.0,0.0,0.0,0.0,0.0,0.0,0.0,0.0,0.0,0.0,0.0,0.0,0.0,0.0,0.0,0.0,0.0,0.0067,0.0135,0.074,0.1144,0.1212,0.1885,0.148,0.0,-0.141,-0.3057,-0.4957,-0.66,-0.791,-0.8851,-0.9518,-0.9822,-0.9812,-0.9666,-0.952,-0.9364,-0.9268,-0.9066,-0.8885,-0.8885,-0.9028,-0.9356,-1.0351,-1.1508,-1.2752,-1.386,-1.4976,-1.5891,-1.5891,-1.5891,-1.5838,-1.5636,-1.6158,-1.6677,-1.6477,-1.7001,-1.7582,-1.7582,-1.7582,-1.7582,-1.7582,-1.7582,-1.7582,-1.7582,-1.7582,-1.7582,-1.7582,-1.7582,-1.7582,-1.7582,-1.7582,-1.7582,-1.7582,-1.7463,-1.712,-1.64,-1.6168,-1.5922,-1.568,-1.5862,-1.6155,-1.6548,-1.6588,-1.6817,-1.7279,-1.7279,-1.7279,-1.7279,-1.8017,-1.8519,-1.8788,-2.0466,-2.1418,-2.1739,-2.2643,-2.3091,0.0,0.0,0.0,0.0,0.0,0.0,0.0,0.0,0.0,0.0,0.0,0.0,0.0,0.0,0.0,0.0,0.0,0.0,0.0,0.0,0.0,0.0,0.0,0.0,0.0,0.0,0.0,0.0,0.0,0.0,0.0,0.0,0.0135,0.0471,0.0875,0.1279,0.1548,0.202,0.148,0.0,-0.141,-0.2778,-0.4117,-0.6678,-0.8186,-0.8851,-0.9518,-0.9822,-0.9812,-0.9666,-0.952,-0.9364,-0.9268,-0.9066,-0.8885,-0.8885,-0.9028,-0.9356,-1.0351,-1.1508,-1.2752,-1.386,-1.4976,-1.5891,-1.5891,-1.5891,-1.5891,-1.5891,-1.6258,-1.6677,-1.6677,-1.7153,-1.7582,-1.7582,-1.7582,-1.7582,-1.7582,-1.7582,-1.7582,-1.7582,-1.7582,-1.7582,-1.7582,-1.7582,-1.7582,-1.7582,-1.7582,-1.7582,-1.7582,-1.714,-1.6387,-1.5276,-1.5158,-1.5144,-1.5115,-1.5143,-1.5566,-1.6541,-1.6588,-1.6817,-1.7279,-1.7279,-1.7279,-1.7279,-1.7326,-1.7831,-1.8788,-1.9778,-2.0737,-2.1739,-2.2643,-2.3091,0.0,0.0,0.0,0.0,0.0,0.0,0.0,0.0,0.0,0.0,0.0,0.0,0.0,0.0,0.0,0.0,0.0,0.0,0.0,0.0,0.0,0.0,0.0,0.0,0.0,0.0,0.0,0.0,0.0,0.0,0.0,0.0202,0.0404,0.0471,0.1077,0.1481,0.1616,0.202,0.1952,0.1412,-0.0857,-0.3168,-0.5393,-0.714,-0.7994,-0.8238,-0.9335,-0.9822,-0.9802,-0.9557,-0.9429,-0.9357,-0.9106,-0.8981,-0.8885,-0.8885,-0.8967,-0.906,-0.9389,-1.0335,-1.1414,-1.1787,-1.3176,-1.4761,-1.4761,-1.5298,-1.5891,-1.5891,-1.6045,-1.6258,-1.6624,-1.6836,-1.7107,-1.7477,-1.7582,-1.7582,-1.7582,-1.7582,-1.7582,-1.7582,-1.7582,-1.7582,-1.7582,-1.7582,-1.7582,-1.7582,-1.7582,-1.7463,-1.712,-1.6593,-1.596,-1.5183,-1.4783,-1.4588,-1.455,-1.4592,-1.4879,-1.5553,-1.5601,-1.5974,-1.6817,-1.6817,-1.6958,-1.7279,-1.7279,-1.7785,-1.8788,-1.9741,-2.0737,-2.1739,-2.2643,-2.3091,0.0,0.0,0.0,0.0,0.0,0.0,0.0,0.0,0.0,0.0,0.0,0.0,0.0,0.0,0.0,0.0,0.0,0.0,0.0,0.0,0.0,0.0,0.0,0.0,0.0,0.0,0.0,0.0,0.0135,0.0202,0.0202,0.0538,0.074,0.0875,0.1346,0.1683,0.1818,0.2087,0.1679,0.0667,-0.1042,-0.3323,-0.6049,-0.7311,-0.7872,-0.7994,-0.9271,-0.9791,-0.9727,-0.9483,-0.9351,-0.9276,-0.9032,-0.8885,-0.8885,-0.8885,-0.8885,-0.8885,-0.8885,-0.9699,-1.0726,-1.0726,-1.2309,-1.4223,-1.4223,-1.4976,-1.5891,-1.5891,-1.5891,-1.5992,-1.6418,-1.663,-1.6836,-1.7325,-1.7529,-1.7582,-1.7582,-1.7582,-1.7582,-1.7582,-1.7582,-1.7582,-1.7582,-1.7582,-1.7582,-1.7582,-1.7449,-1.712,-1.6587,-1.6042,-1.545,-1.4875,-1.4497,-1.4298,-1.4298,-1.4298,-1.4544,-1.5083,-1.5083,-1.5553,-1.6541,-1.6588,-1.6767,-1.7165,-1.7157,-1.7735,-1.8909,-1.9662,-2.0713,-2.1986,-2.2751,-2.3091,0.0,0.0,0.0,0.0,0.0,0.0,0.0,0.0,0.0,0.0,0.0,0.0,0.0,0.0,0.0,0.0,0.0,0.0,0.0,0.0,0.0,0.0,0.0,0.0,0.0,0.0,0.0,0.0,0.0337,0.0538,0.0538,0.0942,0.1279,0.1616,0.1616,0.1818,0.2222,0.2221,0.0801,-0.1906,-0.1878,-0.3319,-0.5918,-0.7247,-0.7872,-0.793,-0.9211,-0.968,-0.9539,-0.9445,-0.935,-0.9193,-0.8994,-0.8885,-0.8885,-0.8885,-0.8885,-0.8885,-0.8885,-0.9644,-1.0621,-1.0621,-1.2146,-1.4002,-1.411,-1.4922,-1.5838,-1.5885,-1.5891,-1.5945,-1.6217,-1.6477,-1.6736,-1.712,-1.7378,-1.7582,-1.7582,-1.7582,-1.7582,-1.7582,-1.7582,-1.7582,-1.7582,-1.7582,-1.7582,-1.7582,-1.7127,-1.658,-1.6055,-1.5463,-1.4887,-1.4376,-1.4298,-1.4298,-1.4298,-1.4298,-1.4544,-1.5035,-1.5083,-1.5499,-1.6466,-1.6513,-1.66,-1.6835,-1.6828,-1.7555,-1.9025,-1.9495,-2.0612,-2.2392,-2.2766,-2.296,0.0,0.0,0.0,0.0,0.0,0.0,0.0,0.0,0.0,0.0,0.0,0.0,0.0,0.0,0.0,0.0,0.0,0.0,0.0,0.0,0.0,0.0,0.0,0.0,0.0,0.0202,0.0404,0.0404,0.0471,0.0606,0.0942,0.1279,0.1481,0.1616,0.1885,0.2087,0.2222,0.2132,0.125,-0.0454,-0.1404,-0.2764,-0.4518,-0.6594,-0.7508,-0.7569,-0.8848,-0.9376,-0.9232,-0.9325,-0.935,-0.9193,-0.8994,-0.8885,-0.8885,-0.8885,-0.8885,-0.8885,-0.8885,-0.9099,-0.9372,-0.9372,-1.0351,-1.1764,-1.258,-1.3673,-1.4815,-1.5672,-1.5571,-1.541,-1.6111,-1.6051,-1.6045,-1.6961,-1.7226,-1.7384,-1.7582,-1.7582,-1.7582,-1.7582,-1.7582,-1.7582,-1.7582,-1.7582,-1.7582,-1.7582,-1.6794,-1.6151,-1.603,-1.5463,-1.4887,-1.4376,-1.4298,-1.4298,-1.4298,-1.4298,-1.4346,-1.4496,-1.4496,-1.4684,-1.5179,-1.5166,-1.5449,-1.6015,-1.6008,-1.6699,-1.8121,-1.8487,-1.9278,-2.049,-2.0784,-2.1329,0.0,0.0,0.0,0.0,0.0,0.0,0.0,0.0,0.0,0.0,0.0,0.0,0.0,0.0,0.0,0.0,0.0138,0.0282,0.0286,0.0358,0.0498,0.0487,0.0484,0.0479,0.0472,0.0673,0.0808,0.0942,0.101,0.1077,0.1279,0.1683,0.1885,0.1885,0.2087,0.2222,0.2222,0.2125,0.1439,0.0064,-0.1269,-0.2623,-0.3999,-0.6151,-0.7261,-0.7447,-0.8482,-0.8919,-0.9026,-0.9124,-0.9138,-0.9052,-0.8971,-0.8885,-0.8885,-0.8885,-0.8885,-0.8885,-0.8885,-0.8885,-0.8885,-0.8885,-0.9699,-1.0836,-1.1433,-1.2856,-1.4331,-1.4976,-1.5089,-1.5148,-1.5951,-1.5832,-1.5773,-1.6743,-1.7067,-1.7279,-1.7529,-1.7582,-1.7582,-1.7582,-1.7582,-1.7582,-1.7582,-1.7582,-1.7582,-1.7582,-1.6787,-1.6124,-1.6017,-1.5258,-1.4607,-1.431,-1.4298,-1.4298,-1.4298,-1.4298,-1.4298,-1.4298,-1.4298,-1.447,-1.4841,-1.4882,-1.5015,-1.5359,-1.5569,-1.6082,-1.7024,-1.7628,-1.845,-1.9488,-1.9865,-2.0391,-0.0115,-0.0115,-0.0114,0.0,0.0,0.0,0.0,0.0,0.0,0.0,0.0,0.0,0.0,0.0,0.0,0.0,0.0341,0.0562,0.057,0.0848,0.1122,0.1119,0.1096,0.1079,0.1077,0.1144,0.1279,0.1548,0.1616,0.1683,0.1683,0.202,0.2222,0.2222,0.2222,0.222,0.2216,0.2119,0.15,0.0321,-0.1012,-0.2369,-0.369,-0.5657,-0.683,-0.7388,-0.8052,-0.8513,-0.88,-0.8858,-0.8866,-0.8826,-0.8881,-0.8885,-0.8885,-0.8885,-0.8885,-0.8885,-0.8885,-0.8885,-0.8885,-0.8885,-0.9588,-1.0511,-1.0672,-1.2146,-1.3786,-1.411,-1.4493,-1.4928,-1.5672,-1.5672,-1.5618,-1.6465,-1.6902,-1.7226,-1.7483,-1.7582,-1.7582,-1.7582,-1.7582,-1.7582,-1.7582,-1.7582,-1.7582,-1.7582,-1.6831,-1.6218,-1.6067,-1.5029,-1.4346,-1.4298,-1.4298,-1.4298,-1.4298,-1.4298,-1.4298,-1.4298,-1.4298,-1.4478,-1.493,-1.493,-1.4899,-1.4769,-1.5195,-1.5561,-1.5835,-1.6763,-1.7746,-1.8741,-1.9198,-1.9614,-0.0905,-0.0732,-0.0621,-0.0114,0.0,0.0,0.0,0.0,0.0,0.0,0.0,0.0,0.0,0.0,0.0,0.0,0.0273,0.0485,0.0492,0.0843,0.1118,0.1105,0.1099,0.1091,0.1078,0.1346,0.1548,0.1616,0.1885,0.2087,0.2087,0.2155,0.2222,0.2222,0.2222,0.2142,0.2117,0.2087,0.1928,0.1646,0.0312,-0.105,-0.24,-0.406,-0.5602,-0.7023,-0.7689,-0.8036,-0.8215,-0.8684,-0.8749,-0.8598,-0.8826,-0.8885,-0.8885,-0.8885,-0.8885,-0.8885,-0.8885,-0.8885,-0.8885,-0.8885,-0.9047,-0.9372,-1.0402,-1.1,-1.171,-1.3673,-1.3894,-1.3943,-1.5512,-1.5517,-1.5303,-1.6158,-1.6583,-1.6895,-1.7226,-1.743,-1.7582,-1.7582,-1.7582,-1.7582,-1.7582,-1.7582,-1.7582,-1.7582,-1.6831,-1.6268,-1.6275,-1.5322,-1.4544,-1.4346,-1.4298,-1.4298,-1.4298,-1.4298,-1.4298,-1.4298,-1.4298,-1.4249,-1.4125,-1.4119,-1.4093,-1.3982,-1.4458,-1.4761,-1.4943,-1.5738,-1.6406,-1.6896,-1.7228,-1.8009,-0.1461,-0.1346,-0.1293,-0.102,-0.0983,-0.0886,-0.0535,-0.0486,-0.0432,-0.0062,0.0,0.0,0.0,0.0,0.0,0.0,0.047,0.0824,0.0824,0.1313,0.1662,0.1651,0.1639,0.1696,0.1684,0.1818,0.1885,0.1885,0.2087,0.2222,0.2222,0.2222,0.2214,0.2131,0.2131,0.2116,0.2086,0.2055,0.2033,0.1955,0.0621,-0.0308,-0.1047,-0.3139,-0.4798,-0.5904,-0.6834,-0.756,-0.8035,-0.8256,-0.8395,-0.854,-0.8654,-0.8768,-0.8885,-0.8885,-0.8885,-0.8885,-0.8885,-0.8885,-0.8885,-0.8885,-0.8885,-0.8992,-0.9588,-1.0186,-1.0945,-1.2037,-1.2797,-1.3506,-1.4482,-1.4869,-1.5196,-1.5897,-1.653,-1.706,-1.7325,-1.7536,-1.7582,-1.7582,-1.7582,-1.7582,-1.7582,-1.7582,-1.7528,-1.7434,-1.6892,-1.641,-1.6153,-1.5379,-1.479,-1.4544,-1.4394,-1.4298,-1.4298,-1.4298,-1.4298,-1.4298,-1.4298,-1.4244,-1.4117,-1.4111,-1.4017,-1.3849,-1.4416,-1.4683,-1.4602,-1.5283,-1.5906,-1.6419,-1.6573,-1.713,-0.2021,-0.202,-0.1965,-0.1859,-0.1846,-0.1711,-0.1065,-0.0968,-0.0803,-0.0123,0.0,0.0,0.0,0.0,0.0,0.0,0.053,0.1022,0.1079,0.1631,0.2122,0.219,0.217,0.2222,0.2222,0.2222,0.2222,0.2222,0.2222,0.2222,0.2222,0.2216,0.2134,0.211,0.2103,0.2085,0.2054,0.2031,0.2016,0.2009,0.093,0.0308,-0.0062,-0.24,-0.3997,-0.4974,-0.6176,-0.7153,-0.7913,-0.7841,-0.8051,-0.8374,-0.8484,-0.8654,-0.8885,-0.8885,-0.8885,-0.8885,-0.8885,-0.8885,-0.8885,-0.8885,-0.8885,-0.8885,-0.8885,-0.9537,-1.0347,-1.0617,-1.1655,-1.2748,-1.329,-1.4056,-1.4922,-1.5885,-1.6583,-1.7173,-1.7529,-1.7582,-1.7582,-1.7582,-1.7582,-1.7582,-1.7582,-1.7582,-1.7482,-1.7246,-1.6894,-1.655,-1.6055,-1.5538,-1.5077,-1.479,-1.449,-1.4298,-1.4298,-1.4298,-1.4298,-1.4298,-1.4298,-1.4298,-1.4298,-1.4298,-1.4147,-1.3827,-1.4585,-1.4825,-1.4516,-1.5248,-1.5878,-1.6336,-1.6425,-1.6739,-0.2761,-0.2637,-0.2478,-0.1944,-0.1862,-0.1715,-0.108,-0.0976,-0.0803,-0.0123,0.0,0.0,0.0,0.0,0.0,0.0,0.0331,0.0674,0.1077,0.1415,0.1822,0.2159,0.2224,0.2222,0.2222,0.2222,0.2222,0.2222,0.2222,0.2222,0.2222,0.2129,0.2112,0.2109,0.2082,0.2053,0.2023,0.202,0.2005,0.198,0.1854,0.1173,-0.0062,-0.1539,-0.3198,-0.4974,-0.6176,-0.7035,-0.7566,-0.7726,-0.7883,-0.81,-0.8374,-0.8654,-0.8885,-0.8885,-0.8885,-0.8885,-0.8885,-0.8885,-0.8885,-0.8885,-0.8885,-0.8885,-0.8885,-0.8992,-0.932,-1.0402,-1.0625,-1.0794,-1.2146,-1.3181,-1.4266,-1.6193,-1.6677,-1.6895,-1.7477,-1.7582,-1.7582,-1.7582,-1.7582,-1.7582,-1.7582,-1.7582,-1.7482,-1.7246,-1.6894,-1.66,-1.6306,-1.5772,-1.5356,-1.5083,-1.4592,-1.4298,-1.4298,-1.4298,-1.4298,-1.4298,-1.4298,-1.4298,-1.4298,-1.4298,-1.4063,-1.3562,-1.4675,-1.5018,-1.4489,-1.5711,-1.624,-1.6123,-1.6624,-1.6767,-0.3365,-0.3277,-0.3202,-0.294,-0.2946,-0.289,-0.2196,-0.1818,-0.1419,-0.0741,-0.0309,0.0,0.0,0.0,0.0,0.0,0.0263,0.0537,0.0732,0.1205,0.1683,0.1818,0.202,0.2222,0.2222,0.2222,0.2222,0.2222,0.2222,0.2213,0.2129,0.2116,0.2093,0.2056,0.2043,0.2022,0.1994,0.1993,0.1988,0.1977,0.1977,0.1729,0.1172,-0.0185,-0.1846,-0.3744,-0.4913,-0.6203,-0.7502,-0.7477,-0.7589,-0.7771,-0.81,-0.8377,-0.8657,-0.8826,-0.8885,-0.8885,-0.8885,-0.8885,-0.8885,-0.8885,-0.8885,-0.8885,-0.8885,-0.8885,-0.8992,-0.9482,-0.9919,-1.0359,-1.0899,-1.2368,-1.3992,-1.5173,-1.6086,-1.6842,-1.7272,-1.7483,-1.7582,-1.7582,-1.7582,-1.7582,-1.7582,-1.7494,-1.7273,-1.6927,-1.6633,-1.6339,-1.6046,-1.5571,-1.522,-1.5131,-1.4736,-1.4496,-1.4298,-1.4298,-1.4298,-1.4298,-1.4298,-1.4298,-1.4298,-1.4298,-1.4123,-1.3755,-1.433,-1.4546,-1.4313,-1.4974,-1.537,-1.5614,-1.5844,-1.6009,-0.3683,-0.3647,-0.3615,-0.3615,-0.3706,-0.3676,-0.2963,-0.242,-0.1788,-0.1111,-0.0494,0.0,0.0,0.0,0.0,0.0,0.0197,0.0402,0.0465,0.107,0.1481,0.1616,0.1945,0.2145,0.2221,0.2222,0.2222,0.2222,0.2012,0.1862,0.1835,0.1565,0.1612,0.202,0.201,0.1996,0.1977,0.1977,0.1977,0.1977,0.1977,0.1977,0.1977,0.0493,-0.0983,-0.2561,-0.4157,-0.5737,-0.7217,-0.7354,-0.7601,-0.7881,-0.7989,-0.8266,-0.8654,-0.8768,-0.8826,-0.8885,-0.8885,-0.8885,-0.8885,-0.8885,-0.8885,-0.8885,-0.8885,-0.8885,-0.8885,-0.8885,-0.9323,-0.9923,-1.0249,-1.1551,-1.3122,-1.4309,-1.5441,-1.6358,-1.7067,-1.743,-1.7582,-1.7582,-1.7582,-1.7582,-1.7582,-1.7393,-1.7099,-1.6747,-1.646,-1.6166,-1.577,-1.5404,-1.5172,-1.4981,-1.479,-1.4592,-1.4346,-1.4298,-1.4298,-1.4298,-1.4298,-1.4298,-1.4298,-1.4298,-1.4171,-1.3912,-1.4259,-1.4428,-1.4345,-1.4687,-1.5026,-1.5238,-1.5378,-1.5584,-0.3695,-0.3677,-0.3677,-0.3677,-0.3829,-0.3738,-0.3073,-0.2439,-0.1788,-0.1111,-0.0494,0.0,0.0,0.0,0.0,0.0,0.0,0.0135,0.0471,0.0875,0.1212,0.1548,0.1929,0.2121,0.2219,0.2222,0.2222,0.2222,0.1528,0.1113,0.1097,0.0445,0.0631,0.1955,0.1992,0.1977,0.1977,0.1977,0.1977,0.1977,0.1977,0.1977,0.1915,0.0247,-0.0855,-0.1562,-0.4313,-0.5818,-0.6472,-0.7541,-0.8211,-0.8484,-0.8156,-0.838,-0.8881,-0.8598,-0.8657,-0.8885,-0.8885,-0.8885,-0.8885,-0.8885,-0.8885,-0.8885,-0.8885,-0.8885,-0.8885,-0.8885,-0.8885,-0.921,-1.0402,-1.0726,-1.1378,-1.3981,-1.4793,-1.5446,-1.6908,-1.743,-1.7582,-1.7582,-1.7582,-1.7582,-1.7582,-1.7393,-1.7099,-1.6747,-1.646,-1.6117,-1.558,-1.5493,-1.5302,-1.4736,-1.4688,-1.4592,-1.4346,-1.4298,-1.4298,-1.4298,-1.4298,-1.4298,-1.4298,-1.4298,-1.4171,-1.3912,-1.4694,-1.4978,-1.4684,-1.5436,-1.554,-1.5124,-1.5594,-1.5778,-0.3867,-0.3862,-0.3862,-0.3862,-0.3862,-0.3861,-0.3615,-0.3135,-0.2475,-0.1813,-0.1127,-0.0566,-0.0064,0.0,0.0,0.0,0.0,0.0066,0.0133,0.073,0.1132,0.1277,0.1811,0.201,0.148,0.1481,0.1207,0.073,0.0462,0.0326,0.0318,0.0126,0.0188,0.0622,0.1052,0.1297,0.1297,0.1791,0.1977,0.1977,0.1977,0.1977,0.1977,0.1482,0.0244,-0.1442,-0.2247,-0.4072,-0.6412,-0.6697,-0.7265,-0.7881,-0.7989,-0.7992,-0.8051,-0.81,-0.8211,-0.8269,-0.8269,-0.8436,-0.8654,-0.8654,-0.8768,-0.8885,-0.8885,-0.8885,-0.8885,-0.8885,-0.8885,-0.8992,-0.9372,-1.0076,-1.0891,-1.1755,-1.3383,-1.49,-1.5553,-1.6577,-1.7378,-1.7582,-1.7582,-1.7522,-1.7373,-1.7092,-1.6747,-1.6453,-1.6159,-1.5891,-1.5743,-1.5588,-1.5445,-1.5255,-1.5077,-1.479,-1.4346,-1.4298,-1.4298,-1.4298,-1.4298,-1.4298,-1.4298,-1.4298,-1.4171,-1.3912,-1.4131,-1.4225,-1.4133,-1.418,-1.4229,-1.4274,-1.4595,-1.4777,-0.3927,-0.392,-0.392,-0.392,-0.3906,-0.3889,-0.3889,-0.3455,-0.2912,-0.2516,-0.1892,-0.1267,-0.0901,-0.0588,-0.0394,-0.0391,-0.0395,-0.0265,0.0132,0.0463,0.0798,0.1001,0.1462,0.1524,0.0729,0.0729,0.0528,0.0065,-0.0195,-0.0321,-0.0316,-0.0627,-0.0748,-0.0741,0.0123,0.0617,0.0617,0.1297,0.1606,0.1606,0.1853,0.1977,0.1977,0.1853,0.0854,-0.0835,-0.1417,-0.2958,0.0,-0.6119,-0.6707,-0.7154,-0.7657,-0.7826,-0.7771,-0.7826,-0.7934,-0.7989,-0.7989,-0.8156,-0.8322,-0.8322,-0.8432,-0.8602,-0.8712,-0.8826,-0.8885,-0.8885,-0.8885,-0.8885,-0.8885,-0.9482,-1.0131,-1.0562,-1.2082,-1.3599,-1.4202,-1.5601,-1.6736,-1.6935,-1.7312,-1.7488,-1.7253,-1.6901,-1.6607,-1.6319,-1.6019,-1.5784,-1.5683,-1.5588,-1.5445,-1.5356,-1.522,-1.4981,-1.464,-1.4592,-1.4544,-1.4442,-1.4442,-1.4394,-1.4298,-1.4298,-1.422,-1.4057,-1.4051,-1.4002,-1.3906,-1.3743,-1.3797,-1.4057,-1.422,-1.4298,0.0,-0.393,-0.3934,-0.3934,-0.3916,-0.3895,-0.3895,-0.3458,0.0,-0.3082,-0.2586,-0.2155,-0.2187,-0.1631,-0.1185,-0.1183,-0.1197,-0.0801,0.0197,0.0133,0.02,0.0857,0.0975,0.0709,0.0,0.0,0.0,-0.0064,-0.0636,-0.1009,-0.1008,-0.1617,-0.1977,-0.1977,-0.0803,-0.0123,-0.0062,0.0617,0.0988,0.0988,0.1667,0.1975,0.1973,0.1665,0.103,0.0,-0.1408,-0.2419,-0.3299,-0.553,-0.642,-0.642,-0.7213,-0.7715,-0.7934,-0.766,-0.7715,-0.7934,-0.7934,-0.7934,-0.7989,-0.7989,-0.7989,-0.8045,-0.8374,-0.8657,-0.8881,-0.8881,-0.8885,-0.8885,-0.8885,-0.8885,-0.921,-1.0292,-1.1055,-1.1814,-1.3014,-1.4626,-1.5914,-1.6021,-1.6882,-1.7482,-1.7219,-1.6887,-1.66,-1.6286,-1.6005,-1.573,-1.554,-1.554,-1.5452,-1.5178,-1.5131,-1.5131,-1.5131,-1.5083,-1.4981,-1.4742,-1.4688,-1.4544,-1.4298,-1.4298,-1.4298,-1.4298,-1.4298,-1.4165,-1.3906,-1.3924,-1.4051,-1.4268,-1.4286,-1.4298,-0.3872,0.0,-0.3993,-0.3993,-0.4004,-0.3952,0.0,-0.3857,-0.3533,-0.3145,-0.2903,-0.2662,-0.2123,-0.1958,-0.1832,-0.1791,-0.1807,-0.1685,-0.1085,-0.0581,-0.013,0.0259,0.0323,0.0064,-0.0709,-0.0774,-0.0963,-0.146,-0.1643,-0.1758,-0.1739,-0.1918,-0.1977,-0.1977,-0.1667,-0.1297,-0.0741,0.0432,0.0988,0.0988,0.1667,0.1842,0.1638,0.176,0.1133,0.0,-0.0347,-0.1483,-0.3187,-0.397,-0.5252,-0.6589,-0.6596,-0.7046,-0.766,-0.7379,-0.7321,-0.7376,-0.7376,-0.7546,-0.7715,-0.7934,-0.7989,-0.8045,-0.8374,-0.854,-0.8654,-0.8826,-0.8885,-0.8885,-0.8885,-0.8885,-0.8992,-0.9265,-1.0296,-1.1592,-1.2999,-1.4465,-1.5867,-1.6995,-1.7417,-1.7415,-1.6901,-1.6754,-1.6533,-1.6012,-1.5872,-1.5784,-1.573,-1.573,-1.5689,-1.5642,-1.5642,-1.5642,-1.5642,-1.5118,-1.479,-1.4688,-1.4496,-1.4394,-1.4298,-1.4298,-1.4298,-1.4298,-1.4298,-1.4165,-1.3906,-1.4111,-1.4135,-1.4002,-1.4201,-1.4298,-0.3889,-0.3911,-0.3934,-0.3934,-0.3952,-0.3965,-0.3939,-0.3911,-0.3836,-0.3492,-0.3436,-0.3333,-0.3019,-0.274,-0.2556,-0.2516,-0.2397,-0.2139,-0.1596,-0.0761,-0.0254,-0.0386,-0.0382,-0.0697,-0.1404,-0.146,-0.1638,-0.2,-0.1999,-0.1992,-0.1977,-0.1977,-0.1977,-0.1977,-0.1977,-0.1667,-0.0988,0.0,0.0679,0.0988,0.1655,0.1825,0.1508,0.1617,0.106,0.0,-0.0115,-0.091,-0.2183,-0.3023,-0.3971,-0.4975,-0.5926,-0.6487,-0.6824,-0.7213,-0.7324,-0.721,-0.721,-0.7268,-0.7435,-0.7601,-0.7657,-0.7712,-0.7989,-0.81,-0.8214,-0.8771,-0.8885,-0.8885,-0.8885,-0.8885,-0.8885,-0.8885,-0.9702,-1.0895,-1.2191,-1.3706,-1.5221,-1.6558,-1.7259,-1.7395,-1.6807,-1.6707,-1.6506,-1.5871,-1.5784,-1.5784,-1.5784,-1.5784,-1.5784,-1.5784,-1.5784,-1.5784,-1.5784,-1.5356,-1.507,-1.507,-1.4921,-1.4777,-1.4688,-1.4688,-1.4688,-1.4688,-1.4421,-1.43,-1.4276,-1.4158,-1.4111,-1.4087,-1.4232,-1.4298,-0.3899,-0.3895,-0.3891,-0.3899,-0.3931,-0.3948,-0.3911,-0.3888,-0.3875,-0.3875,-0.3875,-0.3905,-0.4067,-0.3622,-0.3202,-0.3196,-0.3066,-0.2793,-0.2308,-0.1441,-0.112,-0.1659,-0.1566,-0.1674,-0.2259,-0.2114,-0.1977,-0.1977,-0.1977,-0.1977,-0.1977,-0.1977,-0.1977,-0.1977,-0.1972,-0.16,-0.0861,-0.0308,0.0308,0.0923,0.1515,0.1681,0.1317,0.1359,0.0815,0.0,-0.0229,-0.0568,-0.1009,-0.2297,-0.2857,-0.308,-0.5258,-0.604,-0.61,-0.7215,-0.7438,-0.7265,-0.721,-0.721,-0.721,-0.721,-0.721,-0.7265,-0.7493,-0.7607,-0.7773,-0.8549,-0.8771,-0.8771,-0.8826,-0.8826,-0.8826,-0.8826,-0.932,-1.0084,-1.1269,-1.2729,-1.4234,-1.5594,-1.6601,-1.712,-1.669,-1.664,-1.6453,-1.5864,-1.5784,-1.5784,-1.5784,-1.5784,-1.5784,-1.5784,-1.5784,-1.5784,-1.5784,-1.5635,-1.554,-1.554,-1.5493,-1.5356,-1.5131,-1.5083,-1.5083,-1.5083,-1.4612,-1.4465,-1.4688,-1.4216,-1.4081,-1.4298,-1.4298,-1.4298,-0.3946,-0.3924,-0.39,-0.3947,-0.3931,-0.3912,-0.395,-0.3946,-0.3873,-0.3873,-0.3873,-0.388,-0.3898,-0.3865,-0.3857,-0.3812,-0.4235,-0.4786,-0.5575,-0.53,-0.5047,-0.5132,-0.4132,-0.3511,-0.3581,-0.2656,-0.1977,-0.1977,-0.1977,-0.1977,-0.1977,-0.1977,-0.1977,-0.1977,-0.1952,-0.1332,-0.0182,-0.0061,0.0182,0.0605,0.1192,0.1174,0.0637,0.0867,0.0629,0.0,-0.0056,-0.0393,-0.0953,-0.1402,-0.2297,-0.358,-0.4697,-0.5701,-0.6649,-0.7326,-0.7551,-0.7493,-0.7268,-0.721,-0.721,-0.721,-0.721,-0.7265,-0.7493,-0.7607,-0.7662,-0.8048,-0.8156,-0.8211,-0.8484,-0.8543,-0.8543,-0.8543,-0.9206,-1.0084,-1.1269,-1.2087,-1.3219,-1.5089,-1.5627,-1.5875,-1.6285,-1.6339,-1.6226,-1.5879,-1.5784,-1.5784,-1.5784,-1.5784,-1.5784,-1.5784,-1.5784,-1.5784,-1.5784,-1.5784,-1.5737,-1.5737,-1.5363,-1.5131,-1.5083,-1.5083,-1.5083,-1.5083,-1.4794,-1.4651,-1.4688,-1.4399,-1.4256,-1.4298,-1.4298,-1.4298,-0.3911,-0.3931,-0.3947,-0.4005,-0.4001,-0.3979,-0.3973,-0.4019,-0.3986,-0.3922,-0.3909,-0.41,-0.4685,-0.4993,-0.5215,-0.5551,-0.5814,-0.6023,-0.6143,-0.602,-0.5896,-0.5896,-0.5345,-0.4671,-0.3997,-0.3387,-0.2713,-0.2038,-0.1977,-0.1969,-0.1953,-0.1952,-0.1945,-0.1928,-0.1914,-0.131,0.0,-0.0177,0.0177,0.1012,0.1289,0.1101,0.0517,0.0569,0.0395,0.0,-0.0168,-0.0449,-0.0897,-0.1177,-0.1849,-0.28,-0.4528,-0.5419,-0.5922,-0.7321,-0.7715,-0.7607,-0.7438,-0.7324,-0.721,-0.721,-0.721,-0.721,-0.7324,-0.7379,-0.7435,-0.7715,-0.7881,-0.81,-0.8429,-0.8484,-0.854,-0.8657,-0.9265,-1.0116,-1.114,-1.1872,-1.2723,-1.416,-1.4893,-1.534,-1.5399,-1.5924,-1.6172,-1.5872,-1.5784,-1.5784,-1.5784,-1.5784,-1.5784,-1.5784,-1.5784,-1.5784,-1.5784,-1.5784,-1.5784,-1.5784,-1.5594,-1.5458,-1.5458,-1.5458,-1.5458,-1.5458,-1.5261,-1.507,-1.4939,-1.464,-1.4544,-1.4496,-1.4394,-1.4442,-0.3872,-0.391,-0.4011,-0.4086,-0.4105,-0.4095,-0.4063,-0.406,-0.4038,-0.3948,-0.3929,-0.4192,-0.506,-0.5653,-0.6223,-0.7005,-0.7239,-0.7243,-0.6996,-0.6877,-0.6815,-0.6815,-0.6569,-0.5957,-0.4918,-0.4291,-0.3492,-0.2517,-0.2143,-0.1945,-0.1922,-0.1921,-0.191,-0.1887,-0.1761,-0.1172,-0.0117,-0.0231,0.0231,0.1289,0.121,0.0915,0.04,0.0338,0.0168,0.0,-0.0224,-0.0505,-0.0897,-0.1121,-0.1458,-0.2019,-0.4137,-0.514,-0.5532,-0.7429,-0.7937,-0.7662,-0.7607,-0.7493,-0.7268,-0.721,-0.721,-0.721,-0.721,-0.721,-0.7265,-0.7549,-0.7771,-0.7989,-0.8318,-0.8429,-0.8543,-0.8768,-0.9185,-0.9828,-1.07,-1.1226,-1.1873,-1.2889,-1.3763,-1.43,-1.4237,-1.5132,-1.5754,-1.5478,-1.5635,-1.5784,-1.5784,-1.5784,-1.5784,-1.5784,-1.5784,-1.5784,-1.5784,-1.5784,-1.5784,-1.5784,-1.5784,-1.5784,-1.5784,-1.5784,-1.5784,-1.5784,-1.5588,-1.5404,-1.5172,-1.4933,-1.479,-1.479,-1.4592,-1.4694,-0.3872,-0.3913,-0.3899,-0.4012,-0.3978,-0.3991,-0.4108,-0.3995,-0.3938,-0.3928,-0.3927,-0.3946,-0.4006,-0.5119,-0.6326,-0.7219,-0.8111,-0.8958,-0.9876,-0.9694,-0.9515,-0.9515,-0.8471,-0.7734,-0.7612,-0.5343,-0.386,-0.38,-0.2621,-0.1892,-0.1889,-0.1889,-0.1888,-0.1886,-0.1278,-0.0806,-0.0461,0.0057,0.051,0.0921,0.0623,0.0337,0.0056,0.0056,0.0,0.0,0.0,-0.0336,-0.0897,-0.0897,-0.129,-0.1907,-0.3246,-0.4918,-0.6702,-0.7983,-0.8266,-0.7937,-0.7662,-0.7607,-0.7549,-0.7268,-0.721,-0.721,-0.721,-0.721,-0.7265,-0.7549,-0.7607,-0.7718,-0.7989,-0.8266,-0.8484,-0.854,-0.8716,-0.8993,-0.9509,-0.9599,-1.0008,-1.1295,-1.1611,-1.1944,-1.2699,-1.3732,-1.446,-1.4394,-1.5207,-1.5784,-1.5784,-1.5784,-1.5784,-1.5784,-1.5784,-1.5784,-1.5784,-1.5784,-1.5784,-1.5784,-1.5784,-1.5784,-1.5784,-1.5784,-1.5784,-1.5784,-1.5588,-1.5493,-1.5493,-1.522,-1.5083,-1.5083,-1.5035,-1.5083,-0.3877,-0.4542,-0.502,-0.4166,-0.4571,-0.5045,-0.4254,-0.4046,-0.4015,-0.3977,-0.4648,-0.5688,-0.7253,-0.8573,-0.949,-0.9775,-0.9933,-1.0119,-1.0304,-1.0004,-0.9822,-0.9822,-0.939,-0.8745,-0.7818,-0.681,-0.5508,-0.3917,-0.3305,-0.2696,-0.1859,-0.1857,-0.1849,-0.183,-0.1591,-0.1132,-0.0453,-0.0394,-0.0056,0.0566,0.045,0.028,0.0,0.0,0.0,0.0,0.0,-0.0224,-0.0617,-0.0841,-0.1121,-0.1626,-0.3023,-0.4975,-0.6982,-0.7485,-0.7931,-0.8318,-0.8211,-0.7937,-0.7607,-0.7493,-0.7324,-0.721,-0.7379,-0.7438,-0.7493,-0.7771,-0.7992,-0.8156,-0.8263,-0.8368,-0.8413,-0.8573,-0.8625,-0.8755,-0.9179,-0.9212,-0.9426,-1.0154,-1.0803,-1.1363,-1.1722,-1.2635,-1.3511,-1.4202,-1.4634,-1.5112,-1.5737,-1.5784,-1.5784,-1.5784,-1.5784,-1.5784,-1.5784,-1.5784,-1.5784,-1.5784,-1.5784,-1.5784,-1.5784,-1.5784,-1.5784,-1.5784,-1.573,-1.5635,-1.5493,-1.5404,-1.5356,-1.5356,-1.5172,-1.5267,-0.4504,-0.5479,-0.628,-0.5358,-0.5851,-0.6236,-0.5425,-0.4603,-0.4247,-0.5074,-0.5918,-0.7108,-0.8864,-1.0156,-1.0853,-1.0819,-1.0785,-1.0728,-1.0486,-1.0023,-0.9754,-0.9754,-0.971,-0.9281,-0.8293,-0.7772,-0.6657,-0.4491,-0.3889,-0.3113,-0.1884,-0.1826,-0.1817,-0.1795,-0.1514,-0.1121,-0.0561,-0.0505,-0.0224,0.028,0.028,0.0168,0.0,0.0,0.0,0.0,0.0,-0.0168,-0.0393,-0.0673,-0.0953,-0.1458,-0.3022,-0.4806,-0.6591,-0.6985,-0.7765,-0.8598,-0.854,-0.8156,-0.7715,-0.7607,-0.7493,-0.7379,-0.7551,-0.7662,-0.7771,-0.81,-0.8322,-0.8475,-0.8433,-0.8352,-0.8326,-0.8491,-0.8263,-0.8232,-0.8849,-0.8834,-0.8916,-0.9504,-1.0255,-1.078,-1.078,-1.1672,-1.2587,-1.3301,-1.3685,-1.4238,-1.5213,-1.535,-1.5445,-1.5784,-1.5784,-1.5784,-1.5784,-1.5784,-1.5784,-1.5784,-1.5784,-1.5784,-1.5784,-1.5784,-1.5784,-1.5784,-1.5784,-1.573,-1.5588,-1.5588,-1.5588,-1.5588,-1.541,-1.5499,-0.5772,-0.665,-0.7562,-0.7856,-0.7679,-0.7568,-0.7862,-0.5845,-0.4685,-0.737,-0.7793,-0.7757,-0.7899,-0.8869,-0.9651,-0.9792,-1.0354,-1.0785,-1.0785,-1.0116,-0.9608,-0.9608,-0.9473,-0.9381,-0.9381,-0.8202,-0.6922,-0.5669,-0.4346,-0.3079,-0.1851,-0.1795,-0.1795,-0.1795,-0.0897,-0.0561,-0.0897,-0.0056,0.028,0.0,0.0,0.0,0.0,0.0,0.0,0.0,0.0,-0.0168,-0.0393,-0.0393,-0.0785,-0.1458,-0.2966,-0.4305,-0.5528,-0.6649,-0.7823,-0.8826,-0.8598,-0.8263,-0.7934,-0.7718,-0.7607,-0.7607,-0.7607,-0.7771,-0.81,-0.8429,-0.8484,-0.8452,-0.8317,-0.8281,-0.8243,-0.815,-0.7596,-0.7395,-0.8466,-0.8345,-0.8287,-0.9381,-0.9766,-0.9884,-0.9884,-1.0903,-1.1634,-1.1419,-1.2294,-1.3303,-1.4184,-1.4298,-1.4682,-1.5689,-1.5784,-1.5784,-1.5784,-1.5784,-1.5784,-1.5784,-1.5784,-1.5784,-1.5784,-1.5784,-1.5784,-1.5784,-1.5784,-1.5784,-1.5784,-1.5784,-1.5784,-1.5784,-1.5784,-1.5784,-0.5549,-0.7122,-0.8654,-0.7717,-0.8218,-0.8953,-0.9149,-0.7917,-0.7187,-0.8891,-0.92,-0.9481,-1.0443,-1.0936,-1.1115,-1.1009,-1.08,-1.0584,-1.0465,-0.9883,-0.9449,-0.9449,-0.9408,-0.934,-0.9289,-0.8894,-0.7799,-0.563,-0.5096,-0.397,-0.1907,-0.1795,-0.1795,-0.1795,-0.129,-0.1009,-0.0897,-0.0393,-0.0112,0.0,0.0,0.0,0.0,0.0,0.0,0.0,0.0,-0.0056,-0.0168,-0.0561,-0.0953,-0.1346,-0.2074,-0.3079,-0.4305,-0.5475,-0.6647,-0.7768,-0.8491,-0.8598,-0.8318,-0.8266,-0.81,-0.7934,-0.8156,-0.8266,-0.8432,-0.8712,-0.8585,-0.831,-0.8169,-0.7796,-0.7507,-0.762,-0.725,-0.7101,-0.7798,-0.7666,-0.7736,-0.8829,-0.9214,-0.9482,-0.9833,-1.0183,-1.0654,-1.1299,-1.1607,-1.2374,-1.4064,-1.4298,-1.4682,-1.5689,-1.5784,-1.5784,-1.5784,-1.5784,-1.5784,-1.5784,-1.5784,-1.5784,-1.5784,-1.5784,-1.5784,-1.5784,-1.5784,-1.5784,-1.5784,-1.5784,-1.5784,-1.5784,-1.5784,-1.5784,-0.6982,-0.8579,-0.9982,-0.9257,-0.962,-1.0222,-1.0457,-0.9988,-0.9505,-0.9744,-1.0157,-1.0741,-1.1663,-1.1708,-1.1696,-1.1638,-1.1074,-1.058,-1.0416,-0.9769,-0.9347,-0.9347,-0.9239,-0.9167,-0.9076,-0.9066,-0.8068,-0.5588,-0.5417,-0.436,-0.1907,-0.1795,-0.1795,-0.1795,-0.1346,-0.1065,-0.0897,-0.0449,-0.0168,0.0,0.0,0.0,0.0,0.0,0.0,0.0,0.0,0.0,-0.0056,-0.0673,-0.1009,-0.1177,-0.1627,-0.2521,-0.3747,-0.4972,-0.6144,-0.7265,-0.8491,-0.8712,-0.8484,-0.8484,-0.8374,-0.8208,-0.8429,-0.8598,-0.8644,-0.8646,-0.8512,-0.8183,-0.7827,-0.7407,-0.7129,-0.7226,-0.6947,-0.6789,-0.7335,-0.7335,-0.7553,-0.8711,-0.906,-0.9377,-0.9942,-1.0054,-1.0257,-1.0712,-1.1015,-1.1693,-1.2964,-1.3821,-1.4538,-1.5159,-1.554,-1.5784,-1.5784,-1.5784,-1.5784,-1.5784,-1.5784,-1.5784,-1.5784,-1.5784,-1.5784,-1.5784,-1.5784,-1.5784,-1.5784,-1.5784,-1.5784,-1.5784,-1.5784,-1.5784,-0.9252,-1.0353,-1.1273,-1.1667,-1.1482,-1.1349,-1.1716,-1.1776,-1.1466,-1.0233,-1.0782,-1.159,-1.1744,-1.1658,-1.1583,-1.178,-1.1121,-1.0587,-1.0572,-0.9777,-0.919,-0.919,-0.9018,-0.8885,-0.8885,-0.8885,-0.7986,-0.5753,-0.5472,-0.4414,-0.2074,-0.1851,-0.1795,-0.1795,-0.1234,-0.0897,-0.0897,-0.028,0.0,0.0,0.0,0.0,0.0,0.0,0.0,0.0,0.0,0.0,-0.0056,-0.0673,-0.0897,-0.0953,-0.157,-0.2465,-0.358,-0.4916,-0.6033,-0.7152,-0.8436,-0.8712,-0.854,-0.854,-0.854,-0.854,-0.854,-0.8712,-0.8796,-0.8432,-0.8275,-0.8044,-0.7312,-0.7081,-0.6992,-0.6821,-0.6589,-0.6537,-0.7036,-0.7138,-0.7478,-0.874,-0.9153,-0.9526,-1.0056,-1.0298,-1.0286,-0.9916,-1.0559,-1.1142,-1.1334,-1.2916,-1.41,-1.4298,-1.5112,-1.5683,-1.5778,-1.5784,-1.5784,-1.5784,-1.5784,-1.5784,-1.5784,-1.5784,-1.5784,-1.5784,-1.5784,-1.5784,-1.5784,-1.5784,-1.5784,-1.5784,-1.5784,-1.5784,-0.8942,-1.0093,-1.1085,-1.1172,-1.1447,-1.1716,-1.1776,-1.1776,-1.1716,-1.1405,-1.1558,-1.176,-1.1784,-1.1744,-1.1712,-1.1589,-1.0875,-1.0312,-1.0235,-0.949,-0.8984,-0.8984,-0.8902,-0.8885,-0.8885,-0.8885,-0.8322,-0.6871,-0.5919,-0.4749,-0.3301,-0.2297,-0.1795,-0.1795,-0.1234,-0.0897,-0.0897,-0.028,0.0,0.0,0.0,0.0,0.0,0.0,0.0,0.0,0.0,0.0,-0.0056,-0.0673,-0.0897,-0.0953,-0.157,-0.1963,-0.2465,-0.4582,-0.5528,-0.6086,-0.8152,-0.8881,-0.8826,-0.8826,-0.8826,-0.8826,-0.8826,-0.8826,-0.8796,-0.8432,-0.8097,-0.7709,-0.7234,-0.6808,-0.652,-0.6492,-0.6437,-0.6437,-0.6537,-0.6587,-0.6874,-0.7973,-0.8484,-0.9007,-0.969,-1.0036,-1.0099,-0.9738,-0.9846,-1.0274,-1.1138,-1.1595,-1.249,-1.4148,-1.449,-1.4921,-1.573,-1.5784,-1.5784,-1.5784,-1.5784,-1.5784,-1.5784,-1.5784,-1.5784,-1.5784,-1.5784,-1.5784,-1.5784,-1.5784,-1.5784,-1.5784,-1.5784,-1.5784,-0.8847,-1.0053,-1.1027,-1.1098,-1.1475,-1.1776,-1.1776,-1.1776,-1.1776,-1.1776,-1.1776,-1.1776,-1.1776,-1.1703,-1.1614,-1.1516,-1.0751,-1.0152,-1.0119,-0.9415,-0.8885,-0.8885,-0.8885,-0.8885,-0.8885,-0.8885,-0.838,-0.7207,-0.6031,-0.486,-0.3692,-0.2465,-0.1795,-0.1795,-0.1234,-0.0897,-0.0897,-0.028,0.0,0.0,0.0,0.0,0.0,0.0,0.0,0.0,0.0,0.0,-0.0056,-0.0505,-0.0729,-0.0953,-0.1402,-0.1683,-0.2019,-0.3858,-0.4916,-0.5639,-0.7429,-0.8436,-0.8885,-0.8885,-0.8885,-0.8885,-0.8885,-0.8885,-0.8783,-0.8189,-0.7865,-0.7552,-0.6941,-0.6586,-0.6387,-0.6387,-0.6387,-0.6387,-0.6387,-0.6387,-0.6673,-0.7517,-0.7914,-0.8377,-0.9257,-0.9705,-0.9872,-0.9766,-0.9681,-0.985,-1.0473,-1.0941,-1.1804,-1.3366,-1.4004,-1.4729,-1.573,-1.5784,-1.5784,-1.5784,-1.5784,-1.5784,-1.5784,-1.5784,-1.5784,-1.5784,-1.5784,-1.5784,-1.5784,-1.5784,-1.5784,-1.5784,-1.5784,-1.5784,-0.8809,-1.0067,-1.101,-1.121,-1.148,-1.1752,-1.1784,-1.1776,-1.1768,-1.1736,-1.1756,-1.1764,-1.1736,-1.1606,-1.1488,-1.1455,-1.0712,-1.0168,-1.0107,-0.9471,-0.894,-0.8885,-0.8885,-0.8885,-0.8885,-0.8885,-0.838,-0.7207,-0.6031,-0.486,-0.3692,-0.2465,-0.1739,-0.1627,-0.1177,-0.0841,-0.0729,-0.0224,0.0,0.0,0.0,0.0,0.0,0.0,0.0,0.0,0.0,0.0,0.0,-0.028,-0.0617,-0.0953,-0.1177,-0.1514,-0.1963,-0.3135,-0.436,-0.5584,-0.6705,-0.7878,-0.8885,-0.8885,-0.8885,-0.8885,-0.8885,-0.8865,-0.8626,-0.7934,-0.7635,-0.7403,-0.6597,-0.6387,-0.6387,-0.6387,-0.6387,-0.6387,-0.6387,-0.6387,-0.6623,-0.7316,-0.76,-0.8057,-0.9078,-0.9446,-0.9677,-0.9819,-0.9742,-0.9713,-0.9827,-1.0523,-1.1409,-1.2587,-1.3511,-1.4532,-1.5683,-1.5784,-1.5784,-1.5784,-1.5784,-1.5784,-1.5784,-1.5784,-1.5784,-1.5784,-1.5784,-1.5784,-1.5784,-1.5784,-1.5784,-1.5784,-1.5784,-1.5784,-0.8548,-1.0082,-1.1042,-1.1375,-1.1476,-1.159,-1.1748,-1.1776,-1.1732,-1.1569,-1.1663,-1.1727,-1.1565,-1.1516,-1.1447,-1.1285,-1.0809,-1.0344,-1.0107,-0.9638,-0.9213,-0.8937,-0.8885,-0.8885,-0.8885,-0.8885,-0.838,-0.7207,-0.6031,-0.486,-0.3692,-0.2465,-0.157,-0.1009,-0.0953,-0.0673,-0.0112,-0.0056,0.0,0.0,0.0,0.0,0.0,0.0,0.0,0.0,0.0,0.0,0.0,-0.028,-0.0617,-0.0953,-0.1177,-0.1514,-0.1963,-0.3135,-0.436,-0.5584,-0.6705,-0.7878,-0.8885,-0.8885,-0.8885,-0.8885,-0.8885,-0.8684,-0.8278,-0.7852,-0.7464,-0.7081,-0.6522,-0.6387,-0.6387,-0.6387,-0.6387,-0.6387,-0.6387,-0.6387,-0.6525,-0.7063,-0.791,-0.8823,-0.9634,-0.9692,-0.9587,-0.9657,-0.977,-0.9807,-0.9681,-0.987,-1.073,-1.2506,-1.2829,-1.3698,-1.5635,-1.5784,-1.5784,-1.5784,-1.5784,-1.5784,-1.5784,-1.5784,-1.5784,-1.5784,-1.5784,-1.5784,-1.5784,-1.5784,-1.5784,-1.5784,-1.5784,-1.5784,-0.839,-1.0046,-1.1172,-1.1449,-1.1587,-1.1711,-1.1853,-1.1845,-1.1723,-1.1537,-1.1565,-1.1565,-1.1378,-1.1265,-1.1175,-1.1094,-1.0707,-1.0258,-0.9976,-0.9639,-0.9268,-0.8937,-0.8885,-0.8885,-0.8885,-0.8885,-0.838,-0.7207,-0.6031,-0.486,-0.3692,-0.2465,-0.1514,-0.0897,-0.0729,-0.0393,0.0,0.0168,0.0168,0.0,0.0,0.0,0.0,0.0,0.0,0.0,0.0,0.0,0.0,-0.0112,-0.0449,-0.0897,-0.1009,-0.1346,-0.1851,-0.2409,-0.3804,-0.5472,-0.5977,-0.7371,-0.8885,-0.8885,-0.8885,-0.8885,-0.8885,-0.8616,-0.8199,-0.7796,-0.74,-0.7009,-0.652,-0.6387,-0.6387,-0.6387,-0.6387,-0.6387,-0.6387,-0.6387,-0.6553,-0.7065,-0.8032,-0.8887,-0.9234,-0.9474,-0.9661,-0.9758,-0.9835,-0.9855,-0.9782,-0.9839,-1.0414,-1.1731,-1.2339,-1.3312,-1.4825,-1.5493,-1.5784,-1.5784,-1.5784,-1.5784,-1.5784,-1.5784,-1.5784,-1.5784,-1.5784,-1.5784,-1.5784,-1.5784,-1.5784,-1.5784,-1.5784,-1.5784,-0.7976,-0.9565,-1.0771,-1.1362,-1.159,-1.1687,-1.1873,-1.1866,-1.1711,-1.1476,-1.1427,-1.1358,-1.1131,-1.1025,-1.0956,-1.0907,-1.0619,-1.0253,-0.9871,-0.9651,-0.9379,-0.8937,-0.8885,-0.8885,-0.8885,-0.8885,-0.8266,-0.676,-0.5864,-0.4749,-0.3246,-0.2298,-0.1458,-0.0673,-0.0561,-0.028,0.0224,0.028,0.0336,0.0448,0.0168,0.0,0.0,0.0,0.0,0.0,0.0,0.0,0.0,0.0,-0.0336,-0.0897,-0.0897,-0.129,-0.1795,-0.1795,-0.3135,-0.4972,-0.5306,-0.6755,-0.8494,-0.8826,-0.8858,-0.8824,-0.8824,-0.856,-0.8201,-0.7846,-0.7474,-0.7112,-0.662,-0.6487,-0.6487,-0.6487,-0.6437,-0.6387,-0.6387,-0.6387,-0.6587,-0.7288,-0.8081,-0.8775,-0.9072,-0.9426,-0.9772,-0.9899,-0.9947,-0.9925,-0.9831,-0.99,-1.0268,-1.1105,-1.1853,-1.2877,-1.4202,-1.4968,-1.554,-1.5784,-1.5784,-1.5784,-1.5784,-1.5784,-1.5784,-1.5784,-1.5784,-1.5784,-1.5784,-1.5784,-1.5784,-1.5784,-1.5784,-1.5784,-0.7072,-0.8232,-0.9429,-1.1063,-1.1351,-1.1353,-1.1728,-1.1784,-1.1675,-1.1313,-1.1236,-1.1131,-1.0781,-1.0854,-1.0967,-1.0737,-1.0696,-1.0472,-0.9871,-0.9816,-0.9541,-0.8992,-0.8885,-0.8885,-0.8885,-0.8885,-0.7931,-0.5639,-0.5417,-0.4359,-0.2019,-0.1851,-0.1234,-0.0056,-0.0561,-0.0336,0.0841,0.028,0.056,0.168,0.056,0.0,0.0,0.0,0.0,0.0,0.0,0.0,0.0,0.0,-0.0336,-0.0897,-0.0897,-0.129,-0.1795,-0.1795,-0.2576,-0.3858,-0.5027,-0.62,-0.7376,-0.8546,-0.8842,-0.8723,-0.8723,-0.8405,-0.8102,-0.7956,-0.7705,-0.7364,-0.6877,-0.6795,-0.6795,-0.6795,-0.6589,-0.6387,-0.6387,-0.6387,-0.6686,-0.7739,-0.8187,-0.873,-0.9772,-0.9969,-0.9974,-0.9982,-1.0081,-1.0026,-0.9685,-0.9937,-1.0467,-1.1119,-1.1268,-1.2101,-1.4148,-1.4346,-1.4777,-1.573,-1.5784,-1.5784,-1.5784,-1.5784,-1.5784,-1.5784,-1.5784,-1.5784,-1.5784,-1.5784,-1.5784,-1.5784,-1.5784,-1.5784,-0.5969,-0.7579,-0.9256,-1.0051,-1.0724,-1.1275,-1.1569,-1.1504,-1.1354,-1.111,-1.1062,-1.0984,-1.0737,-1.0749,-1.0769,-1.0704,-1.0692,-1.0472,-0.9871,-0.9816,-0.9596,-0.8992,-0.8885,-0.8885,-0.8885,-0.8885,-0.7928,-0.5584,-0.5417,-0.436,-0.1907,-0.1795,-0.1234,-0.0056,-0.0393,-0.0224,0.0561,0.0168,0.0224,0.0616,0.0224,0.0,0.0,0.0,0.0,0.0,0.0,0.0,0.0,0.0,-0.0224,-0.0617,-0.0841,-0.1121,-0.1514,-0.1739,-0.2577,-0.3748,-0.4972,-0.6144,-0.7321,-0.8491,-0.8835,-0.871,-0.871,-0.8378,-0.7988,-0.8027,-0.7769,-0.7506,-0.7392,-0.7401,-0.7401,-0.7401,-0.7297,-0.7242,-0.7242,-0.7498,-0.7959,-0.8731,-0.9107,-0.9539,-1.0301,-1.0305,-1.0205,-1.0205,-1.0263,-1.0205,-0.9839,-1.001,-1.0176,-1.0201,-1.0788,-1.1512,-1.2247,-1.2877,-1.3703,-1.4777,-1.4825,-1.5112,-1.5784,-1.5784,-1.5784,-1.5784,-1.5784,-1.5784,-1.5784,-1.5784,-1.5784,-1.5784,-1.5784,-1.5784,-0.5316,-0.6644,-0.8082,-0.8676,-0.9691,-1.0601,-1.0778,-1.1019,-1.1175,-1.1005,-1.1024,-1.0967,-1.0724,-1.0692,-1.0692,-1.0692,-1.0692,-1.0492,-0.9946,-0.9846,-0.9642,-0.9135,-0.9042,-0.9011,-0.9011,-0.8967,-0.7928,-0.5584,-0.5417,-0.436,-0.1907,-0.1907,-0.1458,-0.0449,-0.0224,0.0168,0.0841,0.028,0.0224,0.0616,0.0168,0.0,0.0,0.0,0.0,0.0,0.0,0.0,0.0,0.0,-0.0168,-0.0449,-0.0785,-0.1065,-0.1346,-0.1683,-0.2297,-0.3246,-0.486,-0.5919,-0.6816,-0.838,-0.8835,-0.871,-0.871,-0.8428,-0.8095,-0.8193,-0.805,-0.7843,-0.7836,-0.7809,-0.7809,-0.7703,-0.7896,-0.8037,-0.793,-0.8048,-0.8381,-0.9003,-0.9331,-0.9768,-1.0548,-1.0497,-1.045,-1.0497,-1.0502,-1.0334,-0.9975,-1.0045,-0.9953,-0.9661,-1.0256,-1.0788,-1.117,-1.1804,-1.2635,-1.3709,-1.41,-1.4586,-1.5255,-1.5635,-1.5784,-1.5784,-1.5784,-1.5784,-1.5784,-1.5784,-1.5784,-1.5784,-1.5784,-1.5784,0.0,0.0,0.0,-0.7007,-0.8225,-0.9167,-0.9378,-1.0336,-1.1102,-1.0936,-1.096,-1.0907,-1.0724,-1.0692,-1.0692,-1.0692,-1.0696,-1.054,-1.01,-1.0013,-0.9845,-0.948,-0.9306,-0.9217,-0.9217,-0.9028,-0.7937,-0.5588,-0.5417,-0.436,-0.1907,-0.202,-0.1907,-0.1346,-0.0168,0.084,0.1735,0.056,0.056,0.1735,0.056,0.0,0.0,0.0,0.0,0.0,0.0,0.0,0.0,0.0,-0.0168,-0.0449,-0.0785,-0.1065,-0.1346,-0.1683,-0.1795,-0.213,-0.4528,-0.5361,-0.5806,-0.8097,-0.878,-0.871,-0.871,-0.8604,-0.8482,-0.8486,-0.8489,-0.8437,-0.8184,-0.8131,-0.8082,-0.7821,-0.8241,-0.8612,-0.8396,-0.8021,-0.7871,-0.8443,-0.8752,-0.9272,-1.0425,-1.0585,-1.0685,-1.0936,-1.0741,-1.0414,-0.9959,-0.9892,-0.9823,-0.9599,-0.9579,-1.0015,-1.1077,-1.117,-1.156,-1.2581,-1.3613,-1.425,-1.4298,-1.5255,-1.5784,-1.5784,-1.5784,-1.5784,-1.5784,-1.5784,-1.5784,-1.5784,-1.5784,-1.5784,-0.3365,0.0,0.0,0.0,0.0,0.0,-0.7735,-0.8703,-0.9538,-0.9495,-1.0157,-1.0753,-1.07,-1.0692,-1.0692,-1.0692,-1.0806,-1.0799,-1.0397,-1.0277,-1.008,-0.978,-0.9517,-0.9432,-0.9662,-0.9351,-0.8239,-0.608,-0.5566,-0.436,-0.1907,-0.1234,-0.1009,-0.129,-0.0168,0.0448,0.0504,0.0168,0.0168,0.0504,0.0168,0.0,0.0,0.0,0.0,0.0,0.0,0.0,0.0,0.0,-0.0056,-0.0168,-0.0673,-0.0953,-0.1065,-0.1627,-0.1795,-0.2019,-0.358,-0.4693,-0.5639,-0.7093,-0.8117,-0.871,-0.871,-0.8604,-0.8506,-0.8615,-0.8648,-0.8672,-0.8675,-0.8706,-0.8651,-0.8596,-0.8736,-0.8821,-0.8766,-0.8626,-0.876,-0.9352,-0.9363,-0.9598,-1.0343,-1.0237,-1.0091,-1.0072,-1.0059,-0.9907,-0.9638,-0.9693,-0.9709,-0.9611,-0.9579,-0.9723,-1.0015,-1.0064,-1.0498,-1.156,-1.1901,-1.2732,-1.425,-1.4586,-1.5064,-1.5778,-1.5784,-1.5784,-1.5784,-1.5784,-1.5784,-1.5784,-1.5784,-1.5784,-0.2637,-0.3475,-0.4313,-0.459,0.0,0.0,-0.6366,-0.731,-0.8309,-0.8809,-0.9475,-1.0084,-1.0637,-1.0692,-1.0692,-1.0692,-1.0846,-1.088,-1.0607,-1.0478,-1.0314,-1.0089,-0.9749,-0.9535,-0.9769,-0.9452,-0.8355,-0.6068,-0.5616,-0.4392,-0.1908,-0.1121,-0.0897,-0.1121,-0.0224,0.0168,0.0,0.0,0.0,0.0,0.0,0.0,0.0,0.0,0.0,0.0,0.0,0.0,0.0,0.0,0.0,-0.0056,-0.0673,-0.0897,-0.0953,-0.157,-0.1795,-0.2018,-0.3747,-0.4804,-0.5695,-0.7318,-0.8268,-0.8804,-0.8804,-0.8699,-0.8608,-0.8764,-0.8804,-0.8825,-0.8861,-0.8885,-0.8885,-0.8885,-0.8885,-0.8885,-0.8885,-0.8885,-0.8992,-0.9379,-0.9355,-0.945,-1.0047,-0.9992,-0.9904,-0.9919,-0.9904,-0.9819,-0.9731,-0.9661,-0.9662,-0.9708,-0.9669,-0.9579,-0.9579,-0.9579,-0.9871,-1.0498,-1.093,-1.1755,-1.298,-1.3854,-1.4586,-1.5159,-1.5588,-1.5784,-1.5784,-1.5784,-1.5784,-1.5784,-1.5784,-1.5784,-0.2356,-0.2525,-0.275,-0.3251,-0.4199,0.0,-0.5093,-0.5977,-0.7138,-0.8254,-0.8589,-0.903,-1.008,-1.0414,-1.0523,-1.0523,-1.0791,-1.0916,-1.0797,-1.0622,-1.0491,-1.0347,-0.9964,-0.9719,-0.9719,-0.9444,-0.8299,-0.5937,-0.5443,-0.4262,-0.1908,-0.1458,-0.1177,-0.0897,-0.0336,0.0,0.0,0.0,0.0,0.0,0.0,0.0,0.0,0.0,0.0,0.0,0.0,0.0,0.0,0.0,0.0,-0.0056,-0.0673,-0.0897,-0.0953,-0.157,-0.1795,-0.213,-0.4416,-0.5306,-0.575,-0.7986,-0.8771,-0.8885,-0.8885,-0.8845,-0.8764,-0.8844,-0.8885,-0.8885,-0.8885,-0.8885,-0.8885,-0.8885,-0.8885,-0.8885,-0.8885,-0.8885,-0.8885,-0.8885,-0.8885,-0.9047,-0.9596,-0.9706,-0.9816,-1.0091,-1.0012,-0.9904,-0.9992,-0.9727,-0.9627,-0.9888,-0.975,-0.9599,-0.9579,-0.9579,-0.9579,-0.9579,-1.0498,-1.1077,-1.1219,-1.2974,-1.4052,-1.4298,-1.5302,-1.5784,-1.5784,-1.5784,-1.5784,-1.5784,-1.5784,-1.5784,-0.1234,-0.1627,-0.202,-0.2131,-0.2354,0.0,-0.3139,-0.4142,-0.5194,-0.5924,-0.6811,-0.7529,-0.775,-0.8582,-0.9254,-0.9254,-1.0229,-1.1029,-1.1081,-1.0973,-1.0848,-1.071,-1.0454,-1.0331,-1.0331,-0.9229,-0.7994,-0.684,-0.4599,-0.2813,-0.1851,-0.1458,-0.1177,-0.0897,-0.0336,0.0,0.0,0.0,0.0,0.0,0.0,0.0,0.0,0.0,0.0,0.0,0.0,0.0,0.0,0.0,0.0,-0.0056,-0.0673,-0.0897,-0.0953,-0.157,-0.1795,-0.2019,-0.3469,-0.4582,-0.5639,-0.6982,-0.81,-0.8885,-0.8885,-0.8861,-0.8844,-0.8875,-0.8885,-0.8885,-0.8885,-0.8885,-0.8885,-0.8885,-0.8885,-0.8885,-0.8885,-0.8885,-0.8885,-0.8885,-0.8885,-0.8937,-0.9047,-0.9103,-0.9103,-0.9158,-0.9133,-0.9337,-0.99,-0.972,-0.968,-1.0167,-1.0007,-0.9778,-0.9591,-0.9579,-0.9579,-0.9579,-0.9772,-1.0306,-1.117,-1.1609,-1.2587,-1.425,-1.5302,-1.5784,-1.5784,-1.5784,-1.5784,-1.5784,-1.5784,-1.5784,-0.0841,-0.1121,-0.1402,-0.1739,-0.1795,0.0,0.0,-0.297,-0.3863,-0.4754,-0.5644,-0.6422,-0.6974,-0.7584,-0.8198,-0.8809,-0.9488,-1.0216,-1.1013,-1.1039,-1.1026,-1.1072,-1.068,-1.0486,-1.0609,-0.9246,-0.7663,-0.6002,-0.4042,-0.2545,-0.1627,-0.157,-0.1234,-0.0449,-0.0168,0.0,0.0,0.0,0.0,0.0,0.0,0.0,0.0,0.0,0.0,0.0,0.0,0.0,0.0,0.0,0.0,-0.0056,-0.0673,-0.0897,-0.0953,-0.157,-0.1795,-0.2074,-0.3858,-0.4916,-0.5695,-0.7429,-0.838,-0.8885,-0.8885,-0.8885,-0.8885,-0.8885,-0.8885,-0.8885,-0.8885,-0.8885,-0.8885,-0.8885,-0.8885,-0.8885,-0.8885,-0.8885,-0.8885,-0.8885,-0.8885,-0.8885,-0.8885,-0.8885,-0.8885,-0.8885,-0.9158,-0.9567,-1.0078,-1.0204,-1.0261,-1.0407,-1.0242,-0.9966,-0.9644,-0.9579,-0.9579,-0.9579,-0.9579,-0.9817,-1.04,-1.093,-1.195,-1.3463,-1.4526,-1.5064,-1.5064,-1.554,-1.5784,-1.5784,-1.5784,-1.5784,-0.0617,-0.0729,-0.0841,-0.1346,-0.1458,-0.1458,0.0,0.0,0.0,-0.3917,-0.4533,-0.5202,-0.6253,-0.6642,-0.7085,-0.8088,-0.842,-0.8974,-1.0145,-1.0286,-1.0524,-1.1139,-1.08,-1.0533,-1.0469,-0.8894,-0.6887,-0.469,-0.3748,-0.2672,-0.1347,-0.1627,-0.1234,-0.0056,0.0,0.0,0.0,0.0,0.0,0.0,0.0,0.0,0.0,0.0,0.0,0.0,0.0,0.0,0.0,0.0,0.0,-0.0056,-0.0673,-0.0897,-0.0953,-0.157,-0.1963,-0.2465,-0.4637,-0.5528,-0.6086,-0.8211,-0.8885,-0.8885,-0.8885,-0.8885,-0.8885,-0.8885,-0.8885,-0.8885,-0.8885,-0.8885,-0.8885,-0.8885,-0.8885,-0.8885,-0.8885,-0.8885,-0.8885,-0.8885,-0.8885,-0.8885,-0.8885,-0.8885,-0.8885,-0.8885,-0.9323,-0.9761,-1.0147,-1.0454,-1.0617,-1.0644,-1.0355,-1.0066,-0.9743,-0.9545,-0.9426,-0.9426,-0.9426,-0.9426,-0.9426,-1.0493,-1.1463,-1.2387,-1.3559,-1.4148,-1.425,-1.5255,-1.5778,-1.5784,-1.5784,-1.5784,-0.0056,-0.0112,-0.0112,-0.0168,-0.0224,-0.0336,-0.0897,0.0,-0.1458,-0.2636,0.0,-0.3197,-0.3866,0.0,0.0,-0.5759,-0.6644,-0.7404,-0.776,-0.7803,-0.8605,-1.0776,-1.1259,-1.0823,-0.9457,-0.7165,-0.5123,-0.3521,-0.3518,-0.292,-0.1402,-0.1627,-0.1234,-0.0056,0.0,0.0,0.0,0.0,0.0,0.0,0.0,0.0,0.0,0.0,0.0,0.0,0.0,0.0,0.0,0.0,0.0,-0.0056,-0.0673,-0.0897,-0.0953,-0.157,-0.2465,-0.358,-0.4916,-0.6089,-0.7152,-0.8491,-0.8885,-0.8885,-0.8885,-0.8885,-0.8885,-0.8885,-0.8885,-0.8885,-0.8885,-0.8885,-0.8885,-0.8885,-0.8885,-0.8885,-0.8885,-0.8885,-0.8885,-0.8885,-0.8885,-0.8885,-0.8885,-0.8885,-0.8885,-0.8885,-0.894,-0.9213,-0.9761,-0.9691,-0.9887,-1.0781,-1.0233,-0.99,-1.0171,-0.9406,-0.8874,-0.8874,-0.8874,-0.8874,-0.8874,-0.9899,-1.0783,-1.1365,-1.2813,-1.3692,-1.3956,-1.501,-1.5635,-1.5784,-1.5784,-1.5784,0.0,0.0,0.0,0.0,0.0,-0.0056,-0.0336,-0.0673,-0.1065,-0.157,0.0,0.0,0.0,0.0,0.0,0.0,-0.5815,-0.6383,-0.7097,-0.7336,-0.7844,-0.8962,-0.963,-0.947,-0.8033,-0.6513,-0.4998,-0.3568,-0.3254,-0.2661,-0.1627,-0.1402,-0.0897,0.0,0.0,0.0,0.0,0.0,0.0,0.0,0.0,0.0,0.0,0.0,0.0,0.0,0.0,0.0,0.0,0.0,0.0,-0.0056,-0.0673,-0.0897,-0.0953,-0.157,-0.213,-0.28,-0.4749,-0.5697,-0.6422,-0.8266,-0.8885,-0.8885,-0.8885,-0.8885,-0.8885,-0.8885,-0.8885,-0.8885,-0.8885,-0.8885,-0.8885,-0.8885,-0.8885,-0.8885,-0.8885,-0.8885,-0.8885,-0.8885,-0.8885,-0.8885,-0.8885,-0.8885,-0.8885,-0.8885,-0.9213,-0.9541,-0.9761,-1.0036,-1.0186,-1.0383,-1.0002,-0.9676,-0.9395,-0.8872,-0.8478,-0.8333,-0.8333,-0.8333,-0.8333,-0.8775,-0.9118,-0.9365,-1.0569,-1.1692,-1.2587,-1.359,-1.4561,-1.541,-1.5547,-1.5689,0.0,0.0,0.0,0.0,0.0,0.0,0.0,-0.0336,-0.0673,-0.0841,-0.1234,0.0,0.0,0.0,-0.3141,-0.4424,0.0,-0.5202,-0.6031,-0.6263,-0.6692,-0.7492,-0.7887,-0.7738,-0.6747,-0.5731,-0.4765,-0.3796,-0.3148,-0.2498,-0.1852,-0.1234,-0.0617,0.0,0.0,0.0,0.0,0.0,0.0,0.0,0.0,0.0,0.0,0.0,0.0,0.0,0.0,0.0,0.0,0.0,0.0,-0.0056,-0.0673,-0.0897,-0.0953,-0.157,-0.2019,-0.2576,-0.4693,-0.5806,-0.6644,-0.8322,-0.8885,-0.8885,-0.8885,-0.8885,-0.8885,-0.8885,-0.8885,-0.8885,-0.8885,-0.8885,-0.8885,-0.8885,-0.8885,-0.8885,-0.8885,-0.8885,-0.8885,-0.8885,-0.8885,-0.8885,-0.8885,-0.8885,-0.8885,-0.8885,-0.9268,-0.9541,-0.9541,-0.9926,-1.0151,-0.9969,-0.9716,-0.9384,-0.8951,-0.8445,-0.8084,-0.7789,-0.7789,-0.7839,-0.7988,-0.7839,-0.7839,-0.7988,-0.8909,-0.9887,-1.0925,-1.1984,-1.3156,-1.4442,-1.5064,-1.5452,0.0,0.0,0.0,0.0,0.0,0.0,0.0,0.0,-0.0168,-0.0785,-0.0897,-0.1121,-0.1739,-0.23,-0.2693,-0.275,-0.3253,0.0,0.0,-0.3701,-0.4622,-0.7144,-0.645,-0.581,-0.5752,-0.4521,-0.3737,-0.3679,-0.306,-0.2414,-0.1851,-0.1234,-0.0617,0.0,0.0,0.0,0.0,0.0,0.0,0.0,0.0,0.0,0.0,0.0,0.0,0.0,0.0,0.0,0.0,0.0,0.0,-0.0056,-0.0673,-0.0897,-0.0953,-0.157,-0.2521,-0.3748,-0.4972,-0.6866,-0.8826,-0.8881,-0.8885,-0.8885,-0.8885,-0.8885,-0.8885,-0.8885,-0.8885,-0.8885,-0.8885,-0.8885,-0.8885,-0.8885,-0.8885,-0.8885,-0.8885,-0.8885,-0.8885,-0.8885,-0.8885,-0.8885,-0.8885,-0.8885,-0.8885,-0.8885,-0.894,-0.8937,-0.8937,-0.8937,-0.9154,-0.9754,-0.9254,-0.9063,-0.9362,-0.8299,-0.7534,-0.7238,-0.7238,-0.7437,-0.7988,-0.7487,-0.7487,-0.7988,-0.8566,-0.8958,-0.9266,-1.0373,-1.1546,-1.2829,-1.4394,-1.5131,0.0,0.0,0.0,0.0,0.0,0.0,0.0,0.0,-0.0056,-0.028,-0.028,-0.0505,-0.1065,-0.1346,-0.1795,-0.2581,-0.2862,-0.3141,0.0,-0.3587,-0.393,-0.4794,-0.4538,-0.461,-0.5402,-0.4364,-0.3449,-0.3055,-0.2476,-0.1851,-0.1234,-0.0617,-0.0224,0.0,0.0,0.0,0.0,0.0,0.0,0.0,0.0,0.0,0.0,0.0,0.0,0.0,0.0,0.0,0.0,0.0,-0.0112,-0.028,-0.0729,-0.1009,-0.1234,-0.1627,-0.2074,-0.2688,-0.4693,-0.6924,-0.8885,-0.8885,-0.8885,-0.8885,-0.8885,-0.8885,-0.8885,-0.8885,-0.8885,-0.8885,-0.8885,-0.8885,-0.8885,-0.8885,-0.8885,-0.8885,-0.8885,-0.8885,-0.8885,-0.8885,-0.8885,-0.8885,-0.8885,-0.8885,-0.8885,-0.8885,-0.8885,-0.8885,-0.8885,-0.8885,-0.8992,-0.9158,-0.8919,-0.8647,-0.8286,-0.7391,-0.6783,-0.6686,-0.6686,-0.6736,-0.6936,-0.6786,-0.6736,-0.6936,-0.7132,-0.7673,-0.8665,-0.9932,-1.1205,-1.2484,-1.3902,-1.4736,0.0,0.0,0.0,0.0,0.0,0.0,0.0,0.0,0.0,0.0,0.0,-0.0112,-0.0505,-0.0729,-0.1177,-0.1908,-0.2244,-0.258,0.0,-0.3253,-0.3365,-0.3587,-0.3587,-0.3923,-0.4702,-0.4033,-0.3365,-0.275,-0.2132,-0.1514,-0.0953,-0.0336,0.0,0.0,0.0,0.0,0.0,0.0,0.0,0.0,0.0,0.0,0.0,0.0,0.0,0.0,0.0,0.0,0.0,0.0,-0.0112,-0.028,-0.0729,-0.1009,-0.1234,-0.1627,-0.2353,-0.3301,-0.486,-0.6924,-0.8885,-0.8885,-0.8885,-0.8885,-0.8885,-0.8885,-0.8885,-0.8885,-0.8885,-0.8885,-0.8885,-0.8885,-0.8885,-0.8885,-0.8885,-0.8885,-0.8885,-0.8885,-0.8885,-0.8885,-0.8885,-0.8885,-0.8885,-0.8885,-0.8885,-0.8885,-0.8885,-0.8885,-0.8885,-0.8885,-0.8885,-0.8885,-0.8801,-0.8415,-0.7697,-0.6963,-0.6487,-0.6387,-0.6387,-0.6387,-0.6387,-0.6387,-0.6387,-0.6387,-0.6387,-0.683,-0.7673,-0.9049,-1.0373,-1.1648,-1.2969,-1.4052]}]]